[[{"header":{"parameterUnit":"m.s-1","parameterCategory":1,"la1":31.0,"la2":29.5877,"lo1":-88.7671,"lo2":-86.6584,"dy":0.0162,"dx":0.0185,"nx":115,"ny":88,"refTime":"2023-07-23T00:00:00:Z","depth":0,"parameterNumber":2,"parameterNumberName":"U-component_of_WINDS"},"data":[0.0,0.0,0.0,0.0,0.0,0.0,0.0,0.0,0.0,0.0,0.0,0.0,0.0,0.0,0.0,0.0,0.0,0.0,0.0,0.0,0.0,0.0,0.0,0.0,0.0,0.0,0.0,0.0,0.0,0.0,0.0,0.0,0.0,0.0,0.0,0.0,0.0,0.0,0.0,0.0,0.0,0.0,0.0,0.0,0.0,0.0,0.0,0.0,0.0,0.0,0.0,0.0,0.0,0.0,0.0,0.0,0.0,0.0,0.0,0.0,0.0,0.0,0.0,0.0,0.0,0.0,0.0,0.0,0.0,0.0,0.0,0.0,0.0,0.0,0.0,0.0,0.0,0.0,0.0,0.0,0.0,0.0,0.0,0.0,0.0,0.0,0.0,0.0,0.0,0.0,0.0,0.0,0.0,0.0,0.0,0.0,0.0,0.0,0.0,0.0,0.0,0.0,0.0,0.0,0.0,0.0,0.0,0.0,0.0,0.0,0.0,0.0,0.0,0.0,0.0,0.0,0.0,0.0,0.0,0.0,0.0,0.0,0.0,0.0,0.0,0.0,0.0,0.0,0.0,0.0,0.0,0.0,0.0,0.0,0.0,0.0,0.0,0.0,0.0,0.0,0.0,0.0,0.0,0.0,0.0,0.0,0.0,0.0,0.0,0.0,0.0,0.0,0.0,0.0,0.0,0.0,0.0,0.0,0.0,0.0,0.0,0.0,0.0,0.0,0.0,0.0,0.0,0.0,0.0,0.0,0.0,0.0,0.0,0.0,0.0,0.0,0.0,0.0,0.0,0.0,0.0,0.0,0.0,0.0,0.0,0.0,0.0,0.0,0.0,0.0,0.0,0.0,0.0,0.0,0.0,0.0,0.0,0.0,0.0,0.0,0.0,0.0,0.0,0.0,0.0,0.0,0.0,0.0,0.0,0.0,0.0,0.0,0.0,0.0,0.0,0.0,0.0,0.0,0.0,0.0,0.0,0.0,0.0,0.0,0.0,0.0,0.0,0.0,0.0,0.0,0.0,0.0,0.0,0.0,0.0,0.0,0.0,0.0,0.0,0.0,0.0,0.0,0.0,0.0,0.0,0.0,0.0,0.0,0.0,0.0,0.0,0.0,0.0,0.0,0.0,0.0,0.0,0.0,0.0,0.0,0.0,0.0,0.0,0.0,0.0,0.0,0.0,0.0,0.0,0.0,0.0,0.0,0.0,0.0,0.0,0.0,0.0,0.0,0.0,0.0,0.0,0.0,0.0,0.0,0.0,0.0,0.0,0.0,0.0,0.0,0.0,0.0,0.0,0.0,0.0,0.0,0.0,0.0,0.0,0.0,0.0,0.0,0.0,0.0,0.0,0.0,0.0,0.0,0.0,0.0,0.0,0.0,0.0,0.0,0.0,0.0,0.0,0.0,0.0,0.0,0.0,0.0,0.0,0.0,0.0,0.0,0.0,0.0,0.0,0.0,0.0,0.0,0.0,0.0,0.0,0.0,0.0,0.0,0.0,0.0,0.0,0.0,0.0,0.0,0.0,0.0,0.0,0.0,0.0,0.0,0.0,0.0,0.0,0.0,0.0,0.0,0.0,0.0,0.0,0.0,0.0,0.0,0.0,0.0,0.0,0.0,0.0,0.0,0.0,0.0,0.0,0.0,0.0,0.0,0.0,0.0,0.0,0.0,0.0,0.0,0.0,0.0,0.0,0.0,0.0,0.0,0.0,0.0,0.0,0.0,0.0,0.0,0.0,0.0,0.0,0.0,0.0,0.0,0.0,0.0,0.0,0.0,0.0,0.0,0.0,0.0,0.0,0.0,0.0,0.0,0.0,0.0,0.0,0.0,0.0,0.0,0.0,0.0,0.0,0.0,0.0,0.0,0.0,0.0,0.0,0.0,0.0,0.0,0.0,0.0,0.0,0.0,0.0,0.0,0.0,0.0,0.0,0.0,0.0,0.0,0.0,0.0,0.0,0.0,0.0,0.0,0.0,0.0,0.0,0.0,0.0,0.0,0.0,0.0,0.0,0.0,0.0,0.0,0.0,0.0,0.0,0.0,0.0,0.0,0.0,0.0,0.0,0.0,0.0,0.0,0.0,0.0,0.0,0.0,0.0,0.0,0.0,0.0,0.0,0.0,0.0,0.0,0.0,0.0,0.0,0.0,0.0,0.0,0.0,0.0,0.0,0.0,0.0,0.0,0.0,0.0,0.0,0.0,0.0,0.0,0.0,0.0,0.0,0.0,0.0,0.0,0.0,0.0,0.0,0.0,0.0,0.0,0.0,0.0,0.0,0.0,0.0,0.0,0.0,0.0,0.0,0.0,0.0,0.0,0.0,0.0,0.0,0.0,0.0,0.0,0.0,0.0,0.0,0.0,0.0,0.0,0.0,0.0,0.0,0.0,0.0,0.0,0.0,0.0,0.0,0.0,0.0,0.0,0.0,0.0,0.0,0.0,0.0,0.0,0.0,0.0,0.0,0.0,0.0,0.0,0.0,0.0,0.0,0.0,0.0,0.0,0.0,0.0,0.0,0.0,0.0,0.0,0.0,0.0,0.0,0.0,0.0,0.0,0.0,0.0,0.0,0.0,0.0,0.0,0.0,0.0,0.0,0.0,0.0,0.0,0.0,0.0,0.0,0.0,0.0,0.0,0.0,0.0,0.0,0.0,0.0,0.0,0.0,0.0,0.0,0.0,0.0,0.0,0.0,0.0,0.0,0.0,0.0,0.0,0.0,0.0,0.0,0.0,0.0,0.0,0.0,0.0,0.0,0.0,0.0,0.0,0.0,0.0,0.0,0.0,0.0,0.0,0.0,0.0,0.0,0.0,0.0,0.0,0.0,0.0,0.0,0.0,0.0,0.0,0.0,0.0,0.0,0.0,0.0,0.0,0.0,0.0,0.0,0.0,0.0,0.0,0.0,0.0,0.0,0.0,0.0,0.0,0.0,0.0,0.0,0.0,0.0,0.0,0.0,0.0,0.0,0.0,0.0,0.0,0.0,0.0,0.0,0.0,0.0,0.0,0.0,0.0,0.0,0.0,0.0,0.0,0.0,0.0,0.0,0.0,0.0,0.0,0.0,0.0,0.0,0.0,0.0,0.0,0.0,0.0,0.0,0.0,0.0,0.0,0.0,0.0,0.0,0.0,0.0,0.0,0.0,0.0,0.0,0.0,0.0,0.0,0.0,0.0,0.0,0.0,0.0,0.0,0.0,0.0,0.0,0.0,0.0,0.0,0.0,0.0,0.0,0.0,0.0,0.0,0.0,0.0,0.0,0.0,0.0,0.0,0.0,0.0,0.0,0.0,0.0,0.0,0.0,0.0,0.0,0.0,0.0,0.0,0.0,0.0,0.0,0.0,0.0,0.0,0.0,0.0,0.0,0.0,0.0,0.0,0.0,0.0,0.0,0.0,0.0,0.0,0.0,0.0,0.0,0.0,0.0,0.0,0.0,0.0,0.0,0.0,0.0,0.0,0.0,0.0,0.0,0.0,0.0,0.0,0.0,0.0,0.0,0.0,0.0,0.0,0.0,0.0,0.0,0.0,0.0,0.0,0.0,0.0,0.0,0.0,0.0,0.0,0.0,0.0,0.0,0.0,0.0,0.0,0.0,0.0,0.0,0.0,0.0,0.0,0.0,0.0,0.0,0.0,0.0,0.0,0.0,0.0,0.0,0.0,0.0,0.0,0.0,0.0,0.0,0.0,0.0,0.0,0.0,0.0,0.0,0.0,0.0,0.0,0.0,0.0,0.0,0.0,0.0,0.0,0.0,0.0,0.0,0.0,0.0,0.0,0.0,0.0,0.0,0.0,0.0,0.0,0.0,0.0,0.0,0.0,0.0,0.0,0.0,0.0,0.0,0.0,0.0,0.0,0.0,0.0,0.0,0.0,0.0,0.0,0.0,0.0,0.0,0.0,0.0,0.0,0.0,0.0,0.0,0.0,0.0,0.0,0.0,0.0,0.0,0.0,0.0,0.0,0.0,0.0,0.0,0.0,0.0,0.0,0.0,0.0,0.0,0.0,0.0,0.0,0.0,0.0,0.0,0.0,0.0,0.0,0.0,0.0,0.0,0.0,0.0,0.0,0.0,0.0,0.0,0.0,0.0,0.0,0.0,0.0,0.0,0.0,0.0,0.0,0.0,0.0,0.0,0.0,0.0,0.0,0.0,0.0,0.0,0.0,0.0,0.0,0.0,0.0,0.0,0.0,0.0,0.0,0.0,0.0,0.0,0.0,0.0,0.0,0.0,0.0,0.0,0.0,0.0,0.0,0.0,0.0,0.0,0.0,-2.4253,0.0,0.0,0.0,0.0,0.0,0.0,0.0,0.0,0.0,0.0,0.0,0.0,0.0,0.0,0.0,0.0,0.0,0.0,0.0,0.0,0.0,0.0,0.0,0.0,0.0,0.0,0.0,0.0,0.0,0.0,0.0,0.0,0.0,0.0,0.0,0.0,0.0,0.0,0.0,0.0,0.0,0.0,0.0,0.0,0.0,0.0,0.0,0.0,0.0,0.0,0.0,0.0,0.0,0.0,0.0,0.0,0.0,0.0,0.0,0.0,0.0,0.0,0.0,0.0,0.0,0.0,0.0,0.0,0.0,0.0,0.0,0.0,0.0,0.0,0.0,0.0,0.0,0.0,0.0,0.0,0.0,0.0,0.0,0.0,0.0,0.0,0.0,0.0,0.0,0.0,0.0,0.0,0.0,0.0,0.0,0.0,0.0,0.0,0.0,0.0,0.0,0.0,0.0,0.0,0.0,0.0,0.0,0.0,0.0,0.0,-2.57,-2.5701,-2.5698,-2.5301,-2.4391,0.0,0.0,0.0,0.0,0.0,0.0,0.0,0.0,0.0,0.0,0.0,0.0,0.0,0.0,0.0,0.0,0.0,0.0,0.0,0.0,0.0,0.0,0.0,0.0,0.0,0.0,0.0,0.0,0.0,0.0,0.0,0.0,0.0,0.0,0.0,0.0,0.0,0.0,0.0,0.0,0.0,0.0,0.0,0.0,0.0,0.0,0.0,0.0,0.0,0.0,0.0,0.0,0.0,0.0,0.0,0.0,0.0,0.0,0.0,0.0,0.0,0.0,0.0,0.0,0.0,0.0,0.0,0.0,0.0,0.0,0.0,0.0,0.0,0.0,0.0,0.0,0.0,0.0,0.0,0.0,0.0,0.0,0.0,0.0,0.0,0.0,0.0,0.0,0.0,0.0,0.0,0.0,0.0,0.0,0.0,0.0,0.0,0.0,0.0,0.0,0.0,0.0,0.0,0.0,0.0,0.0,0.0,0.0,0.0,0.0,0.0,0.0,-2.5715,-2.5119,-2.3883,0.0,0.0,0.0,0.0,0.0,0.0,0.0,0.0,0.0,0.0,0.0,0.0,0.0,0.0,0.0,0.0,0.0,0.0,0.0,0.0,0.0,0.0,0.0,0.0,0.0,0.0,0.0,0.0,0.0,0.0,0.0,0.0,0.0,0.0,0.0,0.0,0.0,0.0,0.0,0.0,0.0,0.0,0.0,0.0,0.0,0.0,0.0,0.0,0.0,0.0,0.0,0.0,0.0,0.0,0.0,0.0,0.0,0.0,0.0,0.0,0.0,0.0,0.0,0.0,0.0,0.0,0.0,0.0,0.0,0.0,0.0,0.0,0.0,0.0,0.0,0.0,0.0,0.0,0.0,0.0,0.0,0.0,0.0,0.0,0.0,0.0,0.0,0.0,0.0,0.0,0.0,0.0,0.0,0.0,0.0,0.0,0.0,0.0,0.0,0.0,0.0,0.0,0.0,0.0,0.0,0.0,0.0,0.0,0.0,0.0,-2.5697,-2.5697,-2.5694,0.0,-2.2527,0.0,0.0,0.0,0.0,0.0,0.0,0.0,0.0,0.0,0.0,0.0,0.0,0.0,0.0,0.0,0.0,0.0,0.0,0.0,0.0,0.0,0.0,0.0,0.0,0.0,0.0,0.0,0.0,0.0,0.0,0.0,0.0,0.0,0.0,0.0,0.0,0.0,0.0,0.0,0.0,0.0,0.0,0.0,0.0,0.0,0.0,0.0,0.0,0.0,0.0,0.0,0.0,0.0,0.0,0.0,0.0,0.0,0.0,0.0,0.0,0.0,0.0,0.0,0.0,0.0,0.0,0.0,0.0,0.0,0.0,0.0,0.0,0.0,0.0,0.0,0.0,0.0,0.0,0.0,0.0,0.0,0.0,0.0,0.0,0.0,0.0,0.0,0.0,0.0,0.0,0.0,0.0,0.0,0.0,0.0,0.0,0.0,0.0,0.0,0.0,0.0,0.0,0.0,0.0,0.0,0.0,0.0,0.0,0.0,0.0,-2.5649,-2.5654,-2.5649,-2.4846,0.0,0.0,0.0,0.0,0.0,0.0,0.0,0.0,0.0,0.0,0.0,0.0,0.0,0.0,0.0,0.0,0.0,0.0,0.0,0.0,0.0,0.0,0.0,0.0,0.0,0.0,0.0,0.0,0.0,0.0,0.0,0.0,0.0,0.0,0.0,0.0,0.0,0.0,0.0,0.0,0.0,0.0,0.0,0.0,0.0,0.0,0.0,0.0,0.0,0.0,0.0,0.0,0.0,0.0,0.0,0.0,0.0,0.0,0.0,0.0,0.0,0.0,0.0,0.0,0.0,0.0,0.0,0.0,0.0,0.0,0.0,0.0,0.0,0.0,0.0,0.0,0.0,0.0,0.0,0.0,0.0,0.0,0.0,0.0,0.0,0.0,0.0,0.0,0.0,0.0,0.0,0.0,0.0,0.0,0.0,0.0,0.0,0.0,0.0,0.0,0.0,0.0,0.0,0.0,0.0,0.0,0.0,0.0,0.0,0.0,-2.5525,-2.5562,-2.559,-2.5568,-2.5039,-2.3928,0.0,0.0,0.0,0.0,0.0,0.0,0.0,0.0,0.0,0.0,0.0,0.0,0.0,0.0,0.0,0.0,0.0,0.0,0.0,0.0,0.0,0.0,0.0,0.0,0.0,0.0,0.0,0.0,0.0,0.0,0.0,0.0,0.0,0.0,0.0,0.0,0.0,0.0,0.0,0.0,0.0,0.0,0.0,0.0,0.0,0.0,0.0,0.0,0.0,0.0,0.0,0.0,0.0,0.0,0.0,0.0,0.0,0.0,0.0,0.0,0.0,0.0,0.0,0.0,0.0,0.0,0.0,0.0,0.0,0.0,0.0,0.0,0.0,0.0,0.0,0.0,0.0,0.0,0.0,0.0,0.0,0.0,0.0,0.0,0.0,0.0,0.0,0.0,0.0,0.0,0.0,0.0,0.0,0.0,0.0,0.0,0.0,0.0,0.0,0.0,0.0,0.0,0.0,0.0,0.0,0.0,0.0,0.0,-2.5395,-2.5476,-2.5556,-2.5619,-2.5535,-2.5105,0.0,0.0,0.0,0.0,0.0,0.0,0.0,0.0,0.0,0.0,0.0,0.0,0.0,0.0,0.0,0.0,0.0,0.0,0.0,0.0,0.0,0.0,0.0,0.0,0.0,0.0,0.0,0.0,0.0,0.0,0.0,0.0,0.0,0.0,0.0,0.0,0.0,0.0,0.0,0.0,0.0,0.0,0.0,0.0,0.0,0.0,0.0,0.0,0.0,0.0,0.0,0.0,0.0,0.0,0.0,0.0,0.0,0.0,0.0,0.0,0.0,0.0,0.0,0.0,0.0,0.0,0.0,0.0,0.0,0.0,0.0,0.0,0.0,0.0,0.0,0.0,0.0,0.0,0.0,0.0,0.0,0.0,0.0,0.0,0.0,0.0,0.0,0.0,0.0,0.0,0.0,0.0,0.0,0.0,0.0,0.0,0.0,0.0,0.0,0.0,0.0,0.0,0.0,0.0,0.0,0.0,0.0,0.0,0.0,-2.5262,-2.5421,-2.5531,-2.5595,-2.5511,-2.537,0.0,0.0,0.0,0.0,0.0,0.0,0.0,0.0,0.0,0.0,0.0,0.0,0.0,0.0,0.0,0.0,0.0,0.0,0.0,0.0,0.0,0.0,0.0,0.0,0.0,0.0,0.0,0.0,0.0,0.0,0.0,0.0,0.0,0.0,0.0,0.0,0.0,0.0,0.0,0.0,0.0,0.0,0.0,0.0,0.0,0.0,0.0,0.0,0.0,0.0,0.0,0.0,0.0,0.0,0.0,0.0,0.0,0.0,0.0,0.0,0.0,0.0,0.0,0.0,0.0,0.0,0.0,0.0,0.0,0.0,0.0,0.0,0.0,0.0,0.0,0.0,0.0,0.0,0.0,0.0,0.0,0.0,0.0,0.0,0.0,0.0,0.0,0.0,0.0,0.0,0.0,0.0,0.0,0.0,0.0,0.0,0.0,0.0,0.0,0.0,0.0,0.0,0.0,0.0,0.0,0.0,0.0,0.0,0.0,-2.5203,0.0,-2.555,-2.5579,-2.5538,-2.5511,0.0,0.0,0.0,0.0,0.0,0.0,0.0,0.0,0.0,0.0,0.0,0.0,0.0,0.0,0.0,0.0,0.0,0.0,0.0,0.0,0.0,0.0,0.0,0.0,0.0,0.0,0.0,0.0,0.0,0.0,0.0,0.0,0.0,0.0,0.0,0.0,0.0,0.0,0.0,0.0,0.0,0.0,0.0,0.0,0.0,0.0,0.0,0.0,0.0,0.0,0.0,0.0,0.0,0.0,0.0,0.0,0.0,0.0,0.0,0.0,0.0,0.0,0.0,0.0,0.0,0.0,0.0,0.0,0.0,0.0,0.0,0.0,0.0,0.0,0.0,0.0,0.0,0.0,0.0,0.0,0.0,0.0,0.0,0.0,0.0,0.0,0.0,0.0,0.0,0.0,0.0,0.0,0.0,0.0,0.0,0.0,0.0,0.0,0.0,0.0,0.0,0.0,0.0,0.0,0.0,0.0,0.0,0.0,-2.485,-2.5264,-2.5437,-2.555,-2.5579,-2.5538,-2.5518,0.0,0.0,0.0,0.0,0.0,0.0,0.0,0.0,0.0,0.0,0.0,0.0,0.0,0.0,0.0,0.0,0.0,0.0,0.0,0.0,0.0,0.0,0.0,0.0,0.0,0.0,0.0,0.0,0.0,0.0,0.0,0.0,0.0,0.0,0.0,0.0,0.0,0.0,0.0,0.0,0.0,0.0,0.0,0.0,0.0,0.0,0.0,0.0,0.0,0.0,0.0,0.0,0.0,0.0,0.0,0.0,0.0,0.0,0.0,0.0,0.0,0.0,0.0,0.0,0.0,0.0,0.0,0.0,0.0,0.0,0.0,0.0,0.0,0.0,0.0,0.0,0.0,0.0,0.0,0.0,0.0,0.0,0.0,0.0,0.0,0.0,0.0,0.0,0.0,0.0,0.0,0.0,0.0,0.0,0.0,0.0,0.0,0.0,0.0,0.0,0.0,0.0,0.0,0.0,0.0,0.0,0.0,0.0,0.0,-2.5274,-2.5437,-2.5511,-2.5601,-2.5544,-2.5518,0.0,0.0,0.0,0.0,0.0,0.0,0.0,0.0,0.0,0.0,0.0,0.0,0.0,0.0,0.0,0.0,0.0,0.0,0.0,0.0,0.0,0.0,0.0,0.0,0.0,0.0,0.0,0.0,0.0,0.0,0.0,0.0,0.0,0.0,0.0,0.0,0.0,0.0,0.0,0.0,0.0,0.0,0.0,0.0,0.0,0.0,0.0,0.0,0.0,0.0,0.0,0.0,0.0,0.0,0.0,0.0,0.0,0.0,0.0,0.0,0.0,0.0,0.0,0.0,0.0,0.0,0.0,0.0,0.0,0.0,0.0,0.0,0.0,0.0,0.0,0.0,0.0,0.0,0.0,0.0,0.0,0.0,0.0,0.0,0.0,0.0,0.0,0.0,0.0,0.0,0.0,0.0,0.0,0.0,0.0,0.0,0.0,0.0,0.0,0.0,0.0,0.0,0.0,0.0,0.0,0.0,0.0,0.0,0.0,-2.5348,-2.5422,-2.5511,-2.5589,-2.5538,-2.5466,-2.5422,0.0,0.0,0.0,0.0,0.0,0.0,0.0,0.0,0.0,0.0,0.0,0.0,0.0,0.0,0.0,0.0,0.0,0.0,0.0,0.0,0.0,0.0,0.0,0.0,0.0,0.0,0.0,0.0,0.0,0.0,0.0,0.0,0.0,0.0,0.0,0.0,0.0,0.0,0.0,0.0,0.0,0.0,0.0,0.0,0.0,0.0,0.0,0.0,0.0,0.0,0.0,0.0,0.0,0.0,0.0,0.0,0.0,0.0,0.0,0.0,0.0,0.0,0.0,0.0,0.0,0.0,0.0,0.0,0.0,0.0,0.0,0.0,0.0,0.0,0.0,0.0,0.0,0.0,0.0,0.0,0.0,0.0,0.0,0.0,0.0,0.0,0.0,0.0,0.0,0.0,0.0,0.0,0.0,0.0,0.0,0.0,0.0,0.0,0.0,0.0,0.0,0.0,0.0,0.0,0.0,0.0,0.0,0.0,-2.5406,-2.5452,-2.5525,-2.5499,-2.5525,-2.5483,0.0,0.0,0.0,0.0,0.0,0.0,0.0,0.0,0.0,0.0,0.0,0.0,0.0,0.0,0.0,0.0,0.0,0.0,0.0,0.0,0.0,0.0,0.0,0.0,0.0,0.0,0.0,0.0,0.0,0.0,0.0,0.0,0.0,0.0,0.0,0.0,0.0,0.0,0.0,0.0,0.0,0.0,0.0,0.0,0.0,0.0,0.0,0.0,0.0,0.0,0.0,0.0,0.0,0.0,0.0,0.0,0.0,0.0,0.0,0.0,0.0,0.0,0.0,0.0,0.0,0.0,0.0,0.0,0.0,0.0,0.0,0.0,0.0,0.0,0.0,0.0,0.0,0.0,0.0,0.0,0.0,0.0,0.0,0.0,0.0,0.0,0.0,0.0,0.0,0.0,0.0,0.0,0.0,0.0,0.0,0.0,0.0,0.0,0.0,0.0,0.0,0.0,0.0,0.0,0.0,0.0,0.0,0.0,0.0,-2.539,-2.5459,-2.5493,-2.5499,-2.5505,-2.5453,0.0,0.0,0.0,0.0,0.0,0.0,0.0,0.0,0.0,0.0,0.0,0.0,0.0,0.0,0.0,0.0,0.0,0.0,0.0,0.0,0.0,0.0,0.0,0.0,0.0,0.0,0.0,0.0,0.0,0.0,0.0,0.0,0.0,0.0,0.0,0.0,0.0,0.0,0.0,0.0,0.0,0.0,0.0,0.0,0.0,0.0,0.0,0.0,0.0,0.0,0.0,0.0,0.0,0.0,0.0,0.0,0.0,0.0,0.0,0.0,0.0,0.0,0.0,0.0,0.0,0.0,0.0,0.0,0.0,0.0,0.0,0.0,0.0,0.0,0.0,0.0,0.0,0.0,0.0,0.0,0.0,0.0,0.0,0.0,0.0,0.0,0.0,0.0,0.0,0.0,0.0,0.0,0.0,0.0,0.0,0.0,0.0,0.0,0.0,0.0,0.0,0.0,0.0,0.0,0.0,0.0,0.0,0.0,-2.5365,-2.5461,-2.5452,-2.5459,-2.5444,-2.5453,-2.5404,0.0,0.0,0.0,0.0,0.0,0.0,0.0,0.0,0.0,0.0,0.0,0.0,0.0,0.0,0.0,0.0,0.0,0.0,0.0,0.0,0.0,0.0,0.0,0.0,0.0,0.0,0.0,0.0,0.0,0.0,0.0,0.0,0.0,0.0,0.0,0.0,0.0,0.0,0.0,0.0,0.0,0.0,0.0,0.0,0.0,0.0,0.0,0.0,0.0,0.0,0.0,0.0,0.0,0.0,0.0,0.0,0.0,0.0,0.0,0.0,0.0,0.0,0.0,0.0,0.0,0.0,0.0,0.0,0.0,0.0,0.0,0.0,0.0,0.0,0.0,0.0,0.0,0.0,0.0,0.0,0.0,0.0,0.0,0.0,0.0,0.0,0.0,0.0,0.0,0.0,0.0,0.0,0.0,0.0,0.0,0.0,0.0,0.0,0.0,0.0,0.0,0.0,0.0,0.0,0.0,0.0,0.0,0.0,-2.5437,-2.5466,-2.543,-2.5374,-2.536,-2.5369,-2.5332,0.0,0.0,0.0,0.0,0.0,0.0,0.0,0.0,0.0,0.0,0.0,0.0,0.0,0.0,0.0,0.0,0.0,0.0,0.0,0.0,0.0,0.0,0.0,0.0,0.0,0.0,0.0,0.0,0.0,0.0,0.0,0.0,0.0,0.0,0.0,0.0,0.0,0.0,0.0,0.0,0.0,0.0,0.0,0.0,0.0,0.0,0.0,0.0,0.0,0.0,0.0,0.0,0.0,0.0,0.0,0.0,0.0,0.0,0.0,0.0,0.0,0.0,0.0,0.0,0.0,0.0,0.0,0.0,0.0,0.0,0.0,0.0,0.0,0.0,0.0,0.0,0.0,0.0,0.0,0.0,0.0,0.0,0.0,0.0,0.0,0.0,0.0,0.0,0.0,0.0,0.0,0.0,0.0,0.0,0.0,0.0,0.0,0.0,0.0,0.0,0.0,0.0,0.0,0.0,0.0,0.0,0.0,0.0,-2.5444,-2.5422,-2.5343,-2.5245,-2.5091,-2.5198,-2.5209,0.0,0.0,0.0,0.0,0.0,0.0,0.0,0.0,0.0,0.0,0.0,0.0,0.0,0.0,0.0,0.0,0.0,0.0,0.0,0.0,0.0,0.0,0.0,0.0,0.0,0.0,0.0,0.0,0.0,0.0,0.0,0.0,0.0,0.0,0.0,0.0,0.0,0.0,0.0,0.0,0.0,0.0,0.0,0.0,0.0,0.0,0.0,0.0,-1.0181,0.0,0.0,0.0,0.0,0.0,0.0,0.0,0.0,0.0,0.0,0.0,0.0,0.0,0.0,0.0,0.0,0.0,0.0,0.0,0.0,0.0,0.0,0.0,0.0,0.0,0.0,0.0,0.0,0.0,0.0,0.0,0.0,0.0,0.0,0.0,0.0,0.0,0.0,0.0,0.0,0.0,0.0,0.0,0.0,0.0,0.0,0.0,0.0,0.0,0.0,0.0,0.0,0.0,0.0,0.0,0.0,0.0,0.0,0.0,-2.5406,-2.5288,-2.5139,-2.4953,-2.4743,-2.47,-2.4766,0.0,0.0,0.0,0.0,0.0,0.0,0.0,0.0,0.0,0.0,0.0,0.0,0.0,0.0,0.0,0.0,0.0,0.0,0.0,0.0,0.0,0.0,0.0,0.0,0.0,0.0,0.0,0.0,0.0,0.0,0.0,0.0,0.0,0.0,0.0,0.0,0.0,0.0,0.0,0.0,0.0,0.0,0.0,0.0,0.0,0.0,0.0,0.0,0.0,0.0,0.0,0.0,0.0,0.0,0.0,0.0,0.0,0.0,0.0,0.0,0.0,0.0,0.0,0.0,0.0,0.0,0.0,0.0,0.0,0.0,0.0,0.0,0.0,0.0,0.0,0.0,0.0,0.0,0.0,0.0,0.0,0.0,0.0,0.0,0.0,0.0,0.0,0.0,0.0,0.0,0.0,0.0,0.0,0.0,0.0,0.0,0.0,0.0,0.0,0.0,0.0,0.0,0.0,0.0,0.0,0.0,0.0,-2.5339,-2.5274,-2.5081,-2.4803,-2.4527,-2.4205,-2.4026,-2.4063,-2.4381,0.0,0.0,0.0,0.0,0.0,0.0,0.0,0.0,0.0,0.0,0.0,0.0,0.0,0.0,0.0,0.0,0.0,0.0,0.0,0.0,0.0,0.0,0.0,0.0,0.0,0.0,0.0,0.0,0.0,0.0,0.0,0.0,0.0,0.0,0.0,0.0,0.0,0.0,-1.1013,-0.9937,0.0,0.0,0.0,0.0,0.0,0.0,0.0,0.0,-0.9779,0.0,0.0,0.0,0.0,0.0,0.0,0.0,0.0,0.0,0.0,0.0,0.0,0.0,0.0,0.0,0.0,0.0,0.0,0.0,0.0,0.0,0.0,0.0,0.0,0.0,0.0,0.0,0.0,0.0,0.0,0.0,0.0,0.0,0.0,0.0,0.0,0.0,0.0,0.0,0.0,0.0,0.0,0.0,0.0,0.0,0.0,0.0,0.0,0.0,0.0,0.0,0.0,0.0,0.0,0.0,0.0,-2.5216,-2.5178,-2.4919,-2.454,-2.4195,-2.3823,-2.3415,-2.3221,-2.3106,-2.3152,0.0,0.0,0.0,0.0,0.0,0.0,0.0,0.0,0.0,0.0,0.0,0.0,0.0,0.0,0.0,0.0,0.0,0.0,0.0,0.0,0.0,0.0,0.0,0.0,0.0,0.0,0.0,0.0,0.0,0.0,0.0,0.0,0.0,0.0,0.0,0.0,0.0,0.0,0.0,-0.942,-0.892,0.0,0.0,0.0,0.0,0.0,0.0,0.0,0.0,-1.0288,0.0,0.0,0.0,0.0,0.0,0.0,0.0,0.0,0.0,0.0,0.0,0.0,0.0,0.0,0.0,0.0,0.0,0.0,0.0,0.0,0.0,0.0,0.0,0.0,0.0,0.0,0.0,0.0,0.0,0.0,0.0,0.0,0.0,0.0,0.0,0.0,0.0,0.0,0.0,0.0,0.0,0.0,0.0,0.0,0.0,0.0,0.0,0.0,0.0,0.0,0.0,0.0,0.0,0.0,0.0,-2.4412,-2.4197,-2.3938,-2.3584,-2.3056,-2.2621,-2.2263,-2.1915,-2.1787,0.0,0.0,0.0,0.0,0.0,0.0,0.0,0.0,0.0,0.0,0.0,0.0,0.0,0.0,0.0,0.0,0.0,0.0,0.0,0.0,0.0,0.0,0.0,0.0,0.0,0.0,0.0,0.0,0.0,0.0,0.0,0.0,0.0,0.0,0.0,0.0,0.0,0.0,0.0,0.0,-0.9263,-0.8894,-0.8516,0.0,0.0,0.0,0.0,0.0,0.0,-0.9524,-1.0161,0.0,0.0,0.0,0.0,0.0,0.0,0.0,0.0,0.0,0.0,0.0,0.0,0.0,0.0,0.0,0.0,0.0,0.0,0.0,0.0,0.0,0.0,0.0,0.0,0.0,0.0,0.0,0.0,0.0,0.0,0.0,0.0,0.0,0.0,0.0,0.0,0.0,0.0,0.0,0.0,0.0,0.0,0.0,0.0,0.0,0.0,0.0,0.0,0.0,0.0,0.0,0.0,0.0,0.0,0.0,-2.3168,-2.2898,-2.2587,-2.222,-2.1596,-2.1128,-2.0828,-2.0415,-2.0252,0.0,0.0,0.0,0.0,0.0,0.0,0.0,0.0,0.0,0.0,0.0,0.0,0.0,0.0,0.0,0.0,0.0,0.0,0.0,0.0,0.0,0.0,0.0,0.0,0.0,0.0,0.0,0.0,0.0,0.0,0.0,0.0,0.0,0.0,0.0,0.0,0.0,0.0,0.0,0.0,0.0,-0.885,-0.827,-0.8107,0.0,0.0,0.0,0.0,-0.9022,-0.9524,0.0,0.0,0.0,0.0,0.0,0.0,0.0,0.0,0.0,0.0,0.0,0.0,0.0,0.0,0.0,0.0,0.0,0.0,0.0,0.0,0.0,0.0,0.0,0.0,0.0,0.0,0.0,0.0,0.0,0.0,0.0,0.0,0.0,0.0,0.0,0.0,0.0,0.0,0.0,0.0,0.0,0.0,0.0,0.0,0.0,0.0,0.0,0.0,0.0,0.0,0.0,0.0,0.0,0.0,0.0,0.0,-2.1387,-2.1249,-2.0865,-2.0226,-1.9734,-1.9341,-1.8936,-1.8642,-1.8493,0.0,0.0,0.0,0.0,0.0,0.0,0.0,0.0,0.0,0.0,0.0,0.0,0.0,0.0,0.0,0.0,0.0,0.0,0.0,0.0,0.0,0.0,0.0,0.0,0.0,0.0,0.0,0.0,0.0,0.0,0.0,0.0,0.0,0.0,0.0,0.0,0.0,0.0,0.0,0.0,0.0,-0.8737,-0.827,-0.8172,-0.8042,0.0,0.0,-0.87,-0.9332,-0.9919,0.0,0.0,0.0,0.0,0.0,0.0,0.0,0.0,0.0,0.0,0.0,0.0,0.0,0.0,0.0,0.0,0.0,0.0,0.0,0.0,0.0,0.0,0.0,0.0,0.0,0.0,0.0,0.0,0.0,0.0,0.0,0.0,0.0,0.0,0.0,0.0,0.0,0.0,0.0,0.0,0.0,0.0,0.0,0.0,0.0,0.0,0.0,0.0,0.0,0.0,0.0,0.0,0.0,0.0,0.0,-1.9004,-1.9121,-1.8678,-1.8266,-1.7909,-1.7445,-1.709,-1.6777,-1.6405,-1.6237,0.0,0.0,0.0,0.0,0.0,0.0,0.0,0.0,0.0,0.0,0.0,0.0,0.0,0.0,0.0,0.0,0.0,0.0,0.0,0.0,0.0,0.0,0.0,0.0,0.0,0.0,0.0,0.0,0.0,0.0,0.0,0.0,0.0,0.0,0.0,0.0,0.0,0.0,0.0,0.0,0.0,0.0,-0.8495,-0.8441,0.0,0.0,0.0,-0.9022,-0.9576,0.0,0.0,0.0,0.0,0.0,0.0,0.0,0.0,0.0,0.0,0.0,0.0,0.0,0.0,0.0,0.0,0.0,0.0,0.0,0.0,0.0,0.0,0.0,0.0,0.0,0.0,0.0,0.0,0.0,0.0,0.0,0.0,0.0,0.0,0.0,0.0,0.0,0.0,0.0,0.0,0.0,0.0,0.0,0.0,0.0,0.0,0.0,0.0,0.0,0.0,0.0,0.0,0.0,0.0,0.0,0.0,0.0,-1.6748,-1.6126,-1.5775,-1.5654,-1.5274,-1.4967,-1.4767,-1.4495,0.0,0.0,0.0,0.0,0.0,0.0,0.0,0.0,0.0,0.0,0.0,0.0,0.0,0.0,0.0,0.0,0.0,0.0,0.0,0.0,0.0,0.0,0.0,0.0,0.0,0.0,0.0,-1.4656,0.0,0.0,0.0,0.0,0.0,0.0,0.0,0.0,0.0,0.0,0.0,0.0,0.0,0.0,-0.9548,-0.87,-0.8765,-0.8765,0.0,0.0,-0.9396,-0.9907,-1.0415,-1.0856,0.0,0.0,0.0,0.0,0.0,0.0,0.0,0.0,0.0,0.0,0.0,0.0,0.0,0.0,0.0,0.0,0.0,0.0,0.0,0.0,0.0,0.0,0.0,0.0,0.0,0.0,0.0,0.0,0.0,0.0,0.0,0.0,0.0,0.0,0.0,0.0,0.0,0.0,0.0,0.0,0.0,0.0,0.0,0.0,0.0,0.0,0.0,0.0,0.0,0.0,0.0,0.0,0.0,0.0,0.0,-1.437,-1.3973,-1.374,-1.3689,-1.3449,-1.3185,-1.2994,-1.3242,-1.2978,0.0,0.0,0.0,0.0,0.0,0.0,0.0,0.0,0.0,0.0,0.0,0.0,0.0,0.0,0.0,0.0,0.0,0.0,0.0,0.0,0.0,0.0,0.0,0.0,0.0,0.0,0.0,0.0,0.0,0.0,0.0,0.0,0.0,0.0,0.0,0.0,0.0,0.0,0.0,0.0,0.0,-0.9612,-0.9022,-0.8958,-0.8958,0.0,0.0,-0.9919,-1.0351,-1.0856,-1.131,-1.156,0.0,0.0,0.0,0.0,0.0,0.0,0.0,0.0,0.0,0.0,0.0,0.0,0.0,0.0,0.0,0.0,0.0,0.0,0.0,0.0,0.0,0.0,0.0,0.0,0.0,0.0,0.0,0.0,0.0,0.0,0.0,0.0,0.0,0.0,0.0,0.0,0.0,0.0,0.0,0.0,0.0,0.0,0.0,0.0,0.0,0.0,0.0,0.0,0.0,0.0,0.0,0.0,0.0,-1.2395,-1.2502,-1.1831,-1.1513,-1.158,-1.1548,-1.1399,-1.1048,-1.1065,-1.0761,0.0,0.0,0.0,0.0,0.0,0.0,0.0,0.0,0.0,0.0,0.0,0.0,0.0,0.0,0.0,0.0,0.0,0.0,0.0,0.0,0.0,0.0,0.0,0.0,0.0,0.0,0.0,0.0,-1.4223,-1.4076,-1.3476,0.0,0.0,0.0,0.0,0.0,0.0,0.0,0.0,0.0,0.0,-0.9792,-0.9332,-0.9344,0.0,0.0,-0.9728,-1.0238,-1.0618,-1.1059,-1.1373,-1.156,-1.1358,0.0,0.0,0.0,0.0,0.0,0.0,0.0,0.0,0.0,0.0,0.0,0.0,0.0,0.0,0.0,0.0,0.0,0.0,0.0,0.0,0.0,0.0,0.0,0.0,0.0,0.0,0.0,0.0,0.0,0.0,0.0,0.0,0.0,0.0,0.0,0.0,0.0,0.0,0.0,0.0,0.0,0.0,0.0,0.0,0.0,0.0,0.0,0.0,0.0,0.0,0.0,0.0,-1.0922,-1.1092,-1.031,-0.9961,-1.0064,-1.0131,-1.0028,-0.9651,-0.9524,-0.9211,0.0,0.0,0.0,0.0,0.0,0.0,0.0,0.0,0.0,0.0,0.0,0.0,0.0,0.0,0.0,0.0,0.0,0.0,0.0,0.0,0.0,0.0,0.0,0.0,0.0,0.0,0.0,0.0,-1.2976,-1.261,-1.1935,0.0,0.0,0.0,0.0,0.0,0.0,0.0,0.0,0.0,0.0,-0.9818,-0.9415,-0.9424,-0.9536,-0.9652,-1.0047,-1.0491,-1.087,-1.1185,-1.1435,-1.156,0.0,0.0,0.0,0.0,0.0,0.0,0.0,0.0,0.0,0.0,0.0,0.0,0.0,0.0,0.0,0.0,0.0,0.0,0.0,0.0,0.0,0.0,0.0,0.0,0.0,0.0,0.0,0.0,0.0,0.0,-2.2546,0.0,0.0,0.0,0.0,0.0,0.0,0.0,0.0,0.0,0.0,0.0,0.0,0.0,0.0,0.0,0.0,0.0,0.0,0.0,0.0,0.0,0.0,-1.0193,-1.0121,-0.9519,-0.9316,-0.942,-0.9316,-0.9106,-0.883,-0.9056,-0.8685,-0.7545,0.0,0.0,0.0,0.0,0.0,0.0,0.0,0.0,0.0,0.0,0.0,0.0,0.0,0.0,0.0,0.0,0.0,0.0,0.0,0.0,0.0,0.0,0.0,0.0,0.0,0.0,-1.1794,-1.1344,-1.0954,0.0,0.0,0.0,0.0,0.0,0.0,0.0,0.0,0.0,0.0,-0.9618,-0.9629,-0.9186,-0.9316,-0.9612,-0.9919,-1.0301,-1.0681,-1.0996,-1.1373,-1.1622,0.0,0.0,0.0,0.0,0.0,0.0,0.0,0.0,0.0,0.0,0.0,0.0,0.0,0.0,0.0,0.0,0.0,0.0,0.0,0.0,0.0,0.0,0.0,0.0,0.0,0.0,0.0,-2.6549,-2.541,0.0,0.0,0.0,0.0,0.0,0.0,0.0,0.0,0.0,0.0,0.0,-2.1774,-2.1362,0.0,0.0,0.0,0.0,0.0,0.0,0.0,0.0,0.0,0.0,0.0,0.0,-0.9557,-0.9459,-0.8921,-0.8633,-0.858,-0.854,-0.8315,-0.7812,-0.7741,-0.7257,-0.6416,0.0,0.0,0.0,0.0,0.0,0.0,0.0,0.0,0.0,0.0,0.0,0.0,0.0,0.0,0.0,0.0,0.0,0.0,0.0,0.0,0.0,0.0,0.0,0.0,0.0,-1.0793,0.0,0.0,0.0,0.0,0.0,0.0,0.0,0.0,0.0,0.0,0.0,-0.9945,-0.9794,-0.9806,-0.9767,-0.9542,-0.9551,-0.9612,0.0,0.0,0.0,0.0,0.0,0.0,0.0,0.0,0.0,0.0,0.0,0.0,0.0,0.0,-1.0491,-1.0428,-1.0667,-1.0905,-1.0933,0.0,0.0,0.0,0.0,0.0,0.0,0.0,0.0,0.0,0.0,0.0,0.0,0.0,0.0,0.0,0.0,-2.3576,0.0,0.0,0.0,0.0,0.0,0.0,0.0,0.0,-2.1098,-2.0514,-1.9571,-1.927,-1.8507,0.0,-1.7158,-1.6856,0.0,0.0,0.0,0.0,0.0,0.0,0.0,0.0,-0.9382,-0.9169,-0.8593,-0.8209,-0.8049,-0.7889,-0.7568,-0.7128,-0.6652,-0.6109,-0.5382,-0.5226,-0.5205,0.0,0.0,0.0,0.0,0.0,0.0,0.0,0.0,0.0,0.0,0.0,0.0,0.0,0.0,0.0,0.0,0.0,0.0,0.0,0.0,0.0,0.0,0.0,-0.9779,0.0,0.0,0.0,0.0,0.0,0.0,0.0,0.0,0.0,-0.9536,-0.9728,-0.9755,-0.9718,-0.9666,-0.964,-0.9542,0.0,0.0,0.0,0.0,0.0,0.0,0.0,-1.1358,-1.1247,-1.1247,-1.1185,-1.0996,-1.087,-1.0744,-1.0618,0.0,0.0,-1.0681,-1.0774,-1.0953,-1.0967,-1.093,-1.097,-1.1123,-1.1395,-1.1752,0.0,0.0,0.0,0.0,0.0,0.0,0.0,0.0,-2.6676,-2.5241,0.0,-2.2193,0.0,0.0,0.0,0.0,0.0,-1.8909,0.0,0.0,-1.8776,-1.8144,-1.7415,-1.7476,-1.6908,-1.5578,-1.5653,-1.5205,-1.4427,-1.4696,0.0,0.0,0.0,0.0,0.0,0.0,-0.9557,-0.9169,-0.8538,-0.8008,-0.7676,-0.73,-0.6977,-0.6652,-0.5946,-0.5226,-0.4553,-0.4622,-0.4755,-0.4948,-0.4789,0.0,0.0,0.0,0.0,0.0,0.0,0.0,0.0,0.0,0.0,0.0,0.0,0.0,0.0,0.0,0.0,0.0,0.0,0.0,0.0,-0.9075,0.0,0.0,0.0,0.0,0.0,0.0,0.0,0.0,0.0,0.0,-0.918,-0.9268,-0.9237,-0.9124,0.0,0.0,0.0,0.0,-0.9612,-0.9919,-1.0174,-1.0428,-1.0744,-1.0954,-1.1066,-1.1045,0.0,0.0,-1.0807,-1.0807,-1.0744,-1.0618,-1.0681,-1.0807,-1.078,-1.0684,-1.0611,-1.0629,-1.0477,-1.0422,-1.0721,-1.0917,-1.1172,-2.5623,0.0,0.0,0.0,0.0,-2.7763,-2.7337,-2.6582,-2.5419,-2.4008,-2.2345,-2.0731,0.0,0.0,0.0,0.0,0.0,0.0,-1.6779,-1.6717,-1.6622,-1.6244,-1.5611,-1.5499,-1.5103,-1.4639,-1.456,-1.4236,-1.3659,-1.3732,-1.3453,-1.2882,0.0,0.0,0.0,0.0,-0.9407,-0.8789,-0.8233,-0.7794,-0.7419,-0.7031,-0.6436,-0.5727,-0.5124,-0.4682,-0.4354,-0.4239,-0.4161,-0.3996,-0.4027,0.0,0.0,0.0,0.0,0.0,0.0,0.0,0.0,0.0,0.0,0.0,0.0,0.0,0.0,0.0,0.0,0.0,0.0,0.0,-0.8765,-0.8646,-0.8312,0.0,0.0,0.0,0.0,0.0,0.0,0.0,0.0,0.0,-0.8226,-0.8781,-0.9052,0.0,0.0,-0.9308,-0.9237,-0.936,-0.9612,-0.9792,0.0,0.0,0.0,-1.0604,-1.0667,-1.0555,-1.0631,-1.0694,-1.0681,-1.0744,-1.0744,-1.0618,-1.0681,-1.0739,-1.052,-1.0592,-1.0692,-1.061,-1.0638,-1.0676,-1.073,-1.0988,-1.1272,-2.5997,-2.5661,-2.6278,-2.6622,-2.6753,-2.6587,-2.6015,-2.5232,-2.4008,-2.2571,-2.0946,-1.9207,-1.7785,-1.6644,-1.5593,0.0,0.0,0.0,-1.4792,-1.4812,-1.4757,-1.454,-1.4212,-1.4118,-1.3931,-1.3716,-1.3598,-1.3292,-1.2859,-1.2766,-1.248,-1.2068,0.0,0.0,-1.0519,-0.9935,-0.9306,-0.8621,-0.8033,-0.7526,-0.7041,-0.6436,-0.5727,-0.5014,-0.4519,-0.4252,-0.4113,-0.3868,-0.371,-0.3533,-0.3429,-0.335,0.0,0.0,0.0,0.0,0.0,0.0,0.0,0.0,0.0,0.0,0.0,-0.9,-0.9011,0.0,0.0,0.0,-0.8765,-0.8656,-0.8313,-0.8185,0.0,0.0,0.0,0.0,0.0,0.0,0.0,-0.6723,-0.6796,-0.6949,-0.7389,-0.7902,-0.8462,-0.8882,-0.9022,-0.9151,-0.9151,0.0,-0.9356,-0.96,-0.9664,-0.9792,-1.0047,-1.0187,-1.0251,-1.0174,-1.0301,-1.0364,-1.0351,-1.0491,-1.0555,-1.0555,-1.0681,-1.0711,-1.0471,-1.0618,-1.0668,-1.0477,-1.0524,-1.0632,-1.0714,-1.0983,-1.1386,-2.6303,-2.5833,-2.6083,-2.6011,-2.568,-2.5142,-2.454,-2.3825,-2.2438,-2.0988,-1.9509,-1.7687,-1.6192,-1.4999,-1.3751,0.0,-1.3204,-1.3044,-1.3113,-1.3297,-1.3155,-1.3074,-1.3054,-1.3218,-1.317,-1.2909,-1.2638,-1.2363,-1.2036,-1.18,-1.1447,-1.0931,-1.1138,-1.0918,-1.0236,-0.9701,-0.9121,-0.8472,-0.7792,-0.7139,-0.6534,-0.5555,-0.4849,-0.4463,-0.4132,-0.3849,-0.3727,-0.3461,-0.3299,-0.3289,-0.2901,-0.2627,-0.2631,0.0,0.0,0.0,0.0,0.0,0.0,0.0,0.0,0.0,0.0,0.0,0.0,0.0,0.0,0.0,-0.8366,0.0,-0.7892,-0.7757,0.0,0.0,0.0,-0.625,-0.5888,-0.5992,-0.6036,-0.6036,0.0,0.0,-0.6584,0.0,-0.7462,-0.8516,-0.8689,-0.8765,-0.8882,-0.8947,-0.9022,-0.9215,-0.9227,-0.9367,-0.9612,-0.9688,-0.9753,-0.9868,-0.9919,-0.997,-0.9958,-1.0161,-1.0301,-1.0314,-1.0618,-1.0774,-1.0653,-1.0653,-1.0549,-1.0324,-1.0318,-1.0435,-1.0742,-1.1099,-1.1504,-2.6821,-2.5716,-2.556,-2.5378,-2.502,-2.4059,-2.3169,-2.2238,-2.0898,-1.9585,-1.8147,-1.6353,-1.4531,-1.2762,-1.2052,-1.1775,-1.1865,-1.1662,-1.1641,-1.1775,-1.1886,-1.1999,-1.1999,-1.2246,-1.2314,-1.2166,-1.2017,-1.1719,-1.1318,-1.0929,-1.0446,-0.9941,-0.9592,-0.9479,-0.9535,-0.9036,-0.841,-0.7595,-0.7052,-0.6372,-0.5508,-0.4904,-0.4463,-0.4132,-0.3577,-0.3314,-0.3174,-0.287,-0.2599,-0.2427,-0.243,-0.2237,-0.1676,-0.1858,0.0,0.0,0.0,0.0,0.0,0.0,0.0,0.0,0.0,-0.74,-0.7792,0.0,-0.7857,0.0,-0.8027,-0.7954,-0.7612,-0.7461,0.0,0.0,-0.6371,-0.613,-0.5586,-0.5529,-0.5568,-0.5568,-0.5498,-0.5579,-0.5893,-0.6079,-0.6441,-0.7138,-0.7747,-0.8236,-0.8366,-0.8506,-0.8635,-0.8635,-0.8711,-0.8776,-0.9034,-0.9163,-0.9215,-0.9215,-0.946,-0.9588,-0.964,-0.997,-1.0314,-1.0314,-1.0681,-1.0933,-1.0774,-1.093,-1.1015,-1.095,-1.0761,-1.0726,-1.1065,-1.1569,-1.2017,-2.6963,-2.6034,-2.5177,-2.4629,-2.4152,-2.3046,-2.2062,-2.1007,-1.953,-1.817,-1.686,-1.4632,-1.2744,-1.1304,-1.0723,-1.0567,-1.0709,-1.0585,-1.0541,-1.0694,-1.0947,-1.1049,-1.1099,-1.1418,-1.1519,-1.1469,-1.1217,-1.0964,-1.0592,-1.0115,-0.9562,-0.8922,-0.8396,-0.8118,-0.8026,-0.7944,-0.7543,-0.6804,-0.6091,-0.5391,-0.4629,-0.4242,-0.3855,-0.3522,-0.2961,-0.2662,-0.2667,-0.2275,-0.2057,-0.1965,-0.1887,-0.1567,-0.0896,-0.0867,-0.0949,0.0,0.0,0.0,0.0,0.0,0.0,0.0,0.0,0.0,0.0,0.0,-0.7254,-0.7496,-0.7644,-0.7542,-0.7316,-0.7168,-0.6837,-0.6298,-0.6174,-0.5942,-0.542,-0.5277,-0.5216,-0.5103,-0.502,-0.51,-0.5265,-0.549,-0.5799,-0.6203,-0.683,-0.7466,-0.7847,-0.7987,-0.8052,-0.8127,-0.8127,-0.8257,-0.8506,-0.8765,-0.8894,-0.8958,-0.9204,-0.9396,-0.9408,-0.9856,-1.0174,-1.0238,-1.0681,-1.108,-1.1067,-1.1137,-1.1287,-1.1398,-1.1331,-1.1319,-1.1569,-1.2067,-1.2491,-2.689,-2.6354,-2.4942,-2.3983,-2.324,-2.2193,-2.1117,-2.003,-1.8432,-1.6946,-1.5444,-1.2893,-1.132,-1.0499,-0.9886,-0.962,-0.9725,-0.9681,-0.9718,-0.9873,-1.0131,-1.0249,-1.0249,-1.0608,-1.0761,-1.071,-1.0454,-1.0131,-0.9858,-0.9302,-0.8672,-0.7972,-0.7385,-0.6798,-0.6237,-0.6524,-0.6426,-0.5882,-0.4999,-0.434,-0.3855,-0.3466,-0.3132,-0.2794,-0.2352,-0.2128,-0.2128,-0.174,-0.1628,-0.1684,-0.1291,-0.0841,-0.0336,-0.0,-0.0059,0.0,-0.0786,0.0,0.0,0.0,0.0,0.0,0.0,0.0,0.0,-0.6345,-0.6533,-0.6804,-0.7091,-0.7188,-0.6909,-0.6776,-0.6585,-0.6201,-0.59,-0.558,-0.5242,-0.5077,-0.4912,-0.4629,-0.4684,-0.4739,-0.465,-0.502,-0.5404,-0.5616,-0.6006,-0.6539,-0.7129,-0.7391,-0.7466,-0.7596,-0.7596,-0.7792,-0.8042,-0.8441,-0.8646,-0.87,-0.8958,-0.9215,-0.9227,-0.9664,-0.9983,-1.0047,-1.0618,-1.1122,-1.1296,-1.1271,-1.1422,-1.188,-1.1834,-1.1837,-1.2067,-1.2491,-1.2909,-2.7143,-2.5828,-2.5116,-2.4098,-2.2924,-2.1756,-2.0571,-1.9388,-1.7975,-1.5954,-1.3496,-1.2198,-1.1264,-1.0534,-0.977,-0.948,-0.9466,-0.9111,-0.9015,-0.9054,-0.9316,-0.942,-0.9472,-0.9821,-0.9976,-0.9873,-0.9769,-0.9562,-0.9159,-0.8606,-0.7984,-0.7289,-0.6598,-0.5909,-0.5219,0.0,0.0,0.0,-0.3959,-0.3566,-0.3128,-0.2854,-0.2575,-0.2352,-0.1905,0.0,-0.1684,-0.1347,-0.1235,-0.1291,-0.0841,0.0,0.0,0.0,0.0,0.0,0.0,0.0,0.0,0.0,0.0,0.0,-0.465,-0.518,-0.5921,-0.6276,-0.6419,-0.6423,-0.6587,-0.6559,-0.6404,-0.633,-0.6156,-0.5736,-0.5517,-0.5187,-0.4739,-0.4629,-0.4519,-0.4187,-0.4187,-0.4187,-0.4206,-0.4552,-0.4911,-0.51,-0.5481,-0.5866,-0.6218,-0.6679,-0.7007,-0.7082,-0.7204,-0.74,-0.7587,-0.7792,-0.8052,-0.8236,-0.8506,-0.8765,-0.9022,-0.9484,-0.9856,-0.9983,-1.0618,-1.1185,-1.1483,-1.1449,-1.1559,-1.227,-1.2253,-1.2215,-1.2382,-1.2803,-1.3218,-2.7201,0.0,-2.5049,-2.4024,0.0,-2.1773,-2.054,-1.9245,-1.7696,-1.5526,-1.2966,-1.1853,-1.1093,-1.058,-0.9751,-0.9402,-0.9389,-0.9144,-0.8932,-0.8802,-0.9018,-0.9045,-0.8883,-0.9211,-0.9263,-0.9211,-0.9054,-0.883,-0.8461,-0.7877,-0.7235,-0.6544,-0.5891,-0.5219,-0.4572,-0.3835,-0.3406,-0.335,-0.3072,-0.2738,-0.246,-0.2184,-0.1964,-0.1793,0.0,0.0,0.0,0.0,0.0,0.0,0.0,0.0,0.0,0.0,0.0,-0.0631,-0.1378,-0.22,-0.2939,-0.3236,-0.3587,-0.4054,-0.4448,-0.4898,-0.5381,-0.5678,-0.5808,-0.5828,-0.5931,-0.5999,-0.59,-0.5837,-0.5618,-0.5399,-0.5179,-0.4904,-0.4457,-0.4298,-0.4132,-0.386,-0.3855,-0.391,-0.391,-0.4253,-0.4594,-0.4864,-0.5233,-0.5557,-0.5756,-0.621,-0.6613,-0.6745,-0.6942,-0.7138,-0.7335,-0.7521,-0.7727,-0.8042,-0.8312,-0.8635,-0.8958,-0.9408,-0.9868,-1.011,-1.0744,-1.131,-1.1703,-1.176,-1.184,-1.2422,-1.2532,-1.2518,-1.2812,-1.3258,-1.3716,-2.7061,-2.6453,-2.5014,-2.3979,-2.3276,-2.202,-2.0538,-1.8996,0.0,0.0,0.0,-1.1843,-1.1044,-1.0653,-0.9886,-0.9519,-0.9473,-0.9246,-0.9035,-0.8808,-0.8882,-0.8838,-0.8605,-0.8659,-0.8699,-0.8699,-0.8368,-0.8103,-0.7771,-0.7182,-0.6564,-0.5881,-0.5282,-0.4678,-0.3984,-0.3226,-0.2772,-0.2742,-0.2348,-0.2073,-0.1905,-0.1625,-0.1459,-0.1291,-0.1179,-0.1121,-0.1121,-0.1009,-0.1009,-0.1009,-0.0841,-0.0785,-0.0841,-0.1065,-0.1289,-0.1511,-0.1846,-0.246,-0.3527,-0.3583,-0.3694,-0.4076,-0.4463,-0.4739,-0.4897,-0.5124,-0.5242,-0.5242,-0.5407,-0.5462,-0.5454,-0.5281,-0.5124,-0.4904,-0.4794,-0.4567,-0.4125,-0.3965,-0.3805,-0.3583,-0.3577,-0.3699,-0.3739,-0.4101,-0.443,-0.4671,-0.5061,-0.5425,-0.5617,-0.5947,-0.6284,-0.6539,-0.6679,-0.6876,-0.7073,-0.7269,-0.7531,-0.7857,-0.8182,-0.8506,-0.8958,-0.9408,-0.9856,-1.0238,-1.087,-1.1435,-1.195,-1.1996,-1.2097,-1.2729,-1.2687,-1.2725,-1.3202,-1.3757,-1.4208,-2.6907,-2.5942,-2.5303,-2.4157,-2.275,-2.1966,-2.0336,-1.7978,-1.6158,-1.4728,-1.3739,-1.2507,-1.1673,-1.1148,-1.0438,-0.9939,-0.9624,-0.9204,-0.8891,0.0,-0.8676,-0.8608,-0.8614,-0.8388,-0.8275,-0.8221,-0.7848,-0.7461,-0.7192,-0.6598,-0.6018,-0.5433,-0.4883,-0.4204,-0.329,-0.2704,-0.2373,-0.2128,-0.1961,-0.1684,-0.1403,-0.1347,-0.1347,-0.1291,-0.1291,-0.1291,-0.1291,-0.1235,-0.1291,-0.1403,-0.1403,-0.1459,-0.1628,-0.1961,-0.2352,-0.2691,-0.2742,-0.3016,-0.3572,-0.391,-0.4249,-0.4581,-0.4574,-0.4629,-0.4904,-0.4959,-0.4959,-0.4959,-0.5007,-0.4959,-0.4849,-0.4794,-0.4629,-0.4242,-0.4132,-0.3965,-0.3577,-0.3466,-0.3411,-0.3188,-0.3188,-0.3298,-0.3518,-0.3871,-0.417,-0.4463,-0.4854,-0.5219,-0.555,-0.5822,-0.602,-0.6218,-0.6284,-0.6408,-0.6736,-0.6876,-0.7204,-0.7661,-0.7922,-0.8312,-0.8894,-0.9332,-0.9716,-1.0238,-1.087,-1.1498,-1.1981,-1.1996,-1.231,-1.2839,-1.2913,-1.3008,-1.3635,-1.4208,-1.4605,-2.6697,-2.608,-2.5173,-2.4242,-2.3317,-2.1666,-1.9892,-1.8167,-1.6689,-1.5287,-1.3967,-1.2964,-1.2163,-1.1545,-1.0981,-1.0492,-1.0168,-0.9852,-0.9455,-0.9125,-0.9061,-0.8924,-0.8673,-0.8438,-0.8377,-0.8321,-0.7869,-0.7529,-0.7177,-0.6549,-0.5959,-0.5455,-0.475,-0.3974,-0.3195,-0.2895,-0.2576,-0.2183,-0.1828,-0.1628,-0.1459,-0.1347,-0.1347,-0.1459,-0.1459,-0.1515,-0.1569,-0.1569,-0.1569,-0.1681,-0.1737,-0.1849,-0.2017,-0.2408,-0.2854,-0.3193,-0.3411,-0.3683,-0.407,-0.4408,-0.4629,-0.4691,-0.4636,-0.4629,-0.4684,-0.4739,-0.4794,-0.4684,-0.4677,-0.4574,-0.4353,-0.4242,-0.4076,-0.3688,-0.3577,-0.3355,-0.3081,-0.297,-0.2914,-0.2919,-0.2902,-0.3074,-0.3367,-0.3686,-0.3982,-0.4249,-0.4742,-0.5153,-0.5418,-0.5557,-0.5756,-0.6145,-0.6218,-0.6342,-0.6605,-0.6811,-0.7138,-0.7606,-0.7857,-0.8247,-0.8894,-0.9268,-0.9716,-1.0364,-1.0996,-1.1685,-1.2305,-1.257,-1.2906,-1.3478,-1.3509,-1.367,-1.4169,-1.4719,-1.5152,-2.644,-2.602,-2.5075,-2.4281,-2.3537,-2.13,-1.9724,-1.863,-1.7542,-1.6141,-1.4623,-1.3589,-1.2727,-1.2054,-1.1527,-1.1122,-1.0758,-1.0555,-1.0171,-0.9605,-0.953,-0.9259,-0.8895,-0.8599,-0.8516,-0.8398,-0.7925,-0.7498,-0.7131,-0.6542,-0.5904,-0.5326,-0.4566,-0.3944,-0.3356,-0.3171,-0.2915,-0.2523,-0.2118,-0.1834,-0.1722,-0.1605,-0.16,-0.1701,-0.1815,-0.1863,-0.1961,-0.1958,-0.2014,-0.2069,-0.2125,-0.2293,-0.2464,-0.2854,-0.3188,-0.3527,-0.391,-0.4242,-0.4574,-0.4787,-0.4849,-0.4739,-0.4746,-0.4629,-0.4519,-0.4581,-0.4519,-0.4463,-0.4353,-0.4242,-0.3965,-0.3799,-0.3577,-0.3304,-0.3077,-0.291,-0.2635,-0.2482,-0.2497,-0.2622,-0.2689,-0.293,-0.3227,-0.3576,-0.3865,-0.4229,-0.4695,-0.5087,-0.5292,-0.5359,-0.5624,-0.5947,-0.6145,-0.6276,-0.6539,-0.6811,-0.7073,-0.7596,-0.7857,-0.8312,-0.8882,-0.9396,-0.9907,-1.0555,-1.1247,-1.1934,-1.2642,-1.3101,-1.35,-1.4073,-1.4228,-1.4437,-1.5204,-1.5707,-1.5882,-2.6,-2.5441,-2.5087,-2.4095,-2.2599,-2.1185,-2.0002,-1.9052,-1.8018,-1.7071,-1.5969,-1.4448,-1.3443,-1.2774,-1.2258,-1.17,-1.1073,-1.1059,-1.0717,-1.0223,-0.994,-0.9675,-0.9321,-0.8801,-0.8457,-0.8303,-0.7698,-0.723,-0.687,-0.6267,-0.554,-0.4734,-0.4409,-0.4142,-0.3855,-0.3526,-0.3294,-0.3206,-0.3001,-0.2566,-0.2079,-0.214,-0.217,-0.2167,-0.2404,-0.2485,-0.2422,-0.2579,-0.2687,-0.2794,-0.2794,-0.2961,-0.3244,-0.3471,-0.3638,-0.391,-0.4242,-0.4629,-0.5014,-0.4959,-0.4897,-0.4897,-0.4739,-0.4636,-0.4519,-0.4353,-0.4249,-0.4193,-0.4021,-0.3855,-0.3638,-0.3527,-0.3244,-0.2858,-0.2747,-0.2579,-0.2366,-0.2301,-0.2353,-0.2314,-0.2602,-0.2818,-0.3115,-0.3448,-0.3841,-0.4443,-0.4671,-0.496,-0.516,-0.5292,-0.5491,-0.5822,-0.5954,-0.6086,-0.6416,-0.6679,-0.7073,-0.7456,-0.7912,-0.8431,-0.9075,-0.9664,-1.0174,-1.087,-1.156,-1.2243,-1.2838,-1.3279,-1.3787,-1.458,-1.4996,-1.545,-1.6508,-1.7099,-1.7046,-2.5873,-2.5229,-2.4754,-2.3663,-2.2193,-2.1188,-2.0205,-1.9153,-1.8389,-1.76,-1.6782,-1.5782,-1.4737,-1.3737,-1.2996,-1.2411,-1.2,-1.1585,-1.1185,-1.073,-1.0434,-1.0132,-0.9731,-0.9333,-0.8962,-0.8663,-0.808,-0.7578,-0.7138,-0.6324,-0.5596,-0.5068,-0.4737,-0.4472,-0.4164,-0.3896,-0.3675,-0.3568,-0.3503,-0.337,-0.3099,-0.2822,-0.2757,-0.2847,-0.2963,-0.3066,-0.3082,-0.3092,-0.3113,-0.3108,-0.3222,-0.336,-0.3527,-0.3805,-0.4027,-0.4138,-0.4519,-0.4842,-0.5069,-0.5132,-0.5069,-0.4904,-0.4842,-0.4739,-0.4519,-0.4304,-0.4193,-0.4193,-0.3965,-0.3688,-0.3355,-0.3244,-0.3077,-0.2747,-0.2523,-0.237,-0.2247,-0.2158,-0.2133,-0.2367,-0.2558,-0.2744,-0.3067,-0.3423,-0.3977,-0.4556,-0.4761,-0.4894,-0.5226,-0.5359,-0.5557,-0.5822,-0.5888,-0.602,-0.635,-0.6679,-0.7073,-0.7456,-0.7912,-0.8431,-0.9139,-0.9792,-1.0428,-1.1122,-1.1872,-1.2613,-1.3346,-1.4022,-1.4542,-1.5266,-1.5964,-1.658,-1.7114,-1.7509,-1.7528,-2.5732,-2.511,-2.4246,-2.3245,-2.2142,-2.1381,-2.0419,-1.9354,-1.8705,-1.7968,-1.7285,-1.6714,-1.595,-1.4964,-1.3982,-1.3316,-1.2946,-1.2332,-1.1818,-1.1439,-1.1038,-1.0618,-1.0174,-0.9779,-0.946,-0.9011,-0.8484,-0.7837,-0.726,-0.635,-0.5778,-0.542,-0.509,-0.4704,-0.4535,-0.4256,-0.412,-0.4046,-0.4021,-0.4001,-0.3909,-0.3563,-0.3393,-0.337,-0.3427,-0.348,-0.3569,-0.3495,-0.351,-0.3569,-0.3639,-0.3744,-0.3857,-0.4045,-0.4249,-0.4415,-0.4684,-0.4959,-0.5132,-0.5242,-0.5187,-0.4959,-0.4959,-0.4842,-0.4629,-0.4408,-0.4298,-0.4249,-0.4021,-0.3688,-0.3299,-0.3132,-0.2965,-0.2747,-0.2426,-0.2295,-0.2284,-0.2142,-0.2197,-0.2496,-0.2628,-0.2868,-0.3266,-0.3643,-0.409,-0.4628,-0.4761,-0.4894,-0.5226,-0.5359,-0.5557,-0.5888,-0.5954,-0.6086,-0.6416,-0.6745,-0.7138,-0.7587,-0.8107,-0.8689,-0.9396,-1.0047,-1.0807,-1.1622,-1.229,-1.3025,-1.3872,-1.4628,-1.5525,-1.6363,-1.7093,-1.763,-1.7984,-1.8191,-1.8607,-2.563,-2.4797,-2.3549,-2.2905,-2.2542,-2.1555,-2.0658,-1.9736,-1.8982,-1.817,-1.748,-1.7079,-1.6715,-1.6381,-1.5149,-1.4427,-1.4032,-1.3316,-1.2724,-1.2322,-1.1799,-1.1199,-1.0568,-1.0174,-0.974,-0.9274,-0.8625,-0.7766,-0.6836,-0.6168,-0.5769,-0.5569,-0.5237,-0.502,-0.489,-0.4687,-0.4632,-0.4599,-0.4512,-0.4463,-0.4452,-0.4276,-0.3967,-0.3623,-0.3727,-0.3741,-0.3712,-0.3814,-0.3931,-0.4174,-0.4053,-0.41,-0.4378,-0.4326,-0.4435,-0.4802,-0.4912,-0.5014,-0.5242,-0.5297,-0.5242,-0.5124,-0.5069,-0.5014,-0.4849,-0.4629,-0.4519,-0.4463,-0.4255,-0.3928,-0.3649,-0.3365,-0.3081,-0.2815,-0.2653,-0.2517,-0.2422,-0.2544,-0.256,-0.2648,-0.2894,-0.3197,-0.3675,-0.3889,-0.4161,-0.4561,-0.4761,-0.4894,-0.5153,-0.5418,-0.5617,-0.5888,-0.6086,-0.6276,-0.6605,-0.6942,-0.7335,-0.7857,-0.8431,-0.9151,-0.9907,-1.0667,-1.1358,-1.2166,-1.2964,-1.3752,-1.4529,-1.5449,-1.6404,-1.7268,-1.8084,-1.8625,-1.88,-1.9506,-1.9864,-2.5585,-2.406,-2.3348,-2.2777,-2.2209,-2.1449,-2.0626,-1.9889,-1.9092,-1.8398,-1.7705,-1.7392,-1.7185,-1.6941,-1.6118,-1.5444,-1.4849,-1.3884,-1.3328,-1.3131,-1.2563,-1.1977,-1.1514,-1.0982,-1.0447,-0.9773,-0.9151,-0.8265,-0.7242,-0.6688,-0.6293,-0.5994,-0.5441,-0.511,-0.5081,-0.487,-0.4726,-0.4648,-0.4462,-0.4375,-0.4375,-0.4197,-0.3983,-0.3808,-0.4008,-0.4148,-0.4105,-0.403,-0.4113,-0.4307,-0.4302,-0.4351,-0.459,-0.4664,-0.4707,-0.4912,-0.4947,-0.5072,-0.5148,-0.5242,-0.5242,-0.5124,-0.5069,-0.5085,-0.4897,-0.4787,-0.4739,-0.4754,-0.4727,-0.4599,-0.4415,-0.3851,-0.3391,-0.3228,-0.3038,-0.2934,-0.2973,-0.2991,-0.2982,-0.3169,-0.3409,-0.3689,-0.3961,-0.4167,-0.4361,-0.4821,-0.4954,-0.5087,-0.5352,-0.555,-0.5749,-0.602,-0.6218,-0.6482,-0.6942,-0.7073,-0.74,-0.7977,-0.8624,-0.9396,-1.0174,-1.1108,-1.1919,-1.2704,-1.3554,-1.451,-1.5332,-1.6425,-1.7379,-1.8061,-1.8887,-1.9235,-1.9552,-1.999,-2.0321,-2.5172,-2.3722,-2.2972,-2.2478,-2.1907,-2.1391,-2.0703,-1.9965,-1.931,-1.8594,-1.7896,-1.7586,-1.7392,-1.7028,-1.6542,-1.6087,-1.5515,-1.4461,-1.3894,-1.3811,-1.3126,-1.2526,-1.2051,-1.1491,-1.0886,-1.0124,-0.9346,-0.8443,-0.7522,-0.6944,-0.6618,-0.6455,-0.5656,-0.5316,-0.5279,-0.4995,-0.4768,-0.4688,-0.4515,-0.4347,-0.4274,-0.4094,-0.397,-0.397,-0.4112,-0.424,-0.4167,-0.4153,-0.424,-0.4423,-0.4433,-0.4528,-0.4742,-0.4857,-0.4931,-0.4959,-0.5115,-0.5238,-0.5254,-0.5409,-0.5474,-0.5409,-0.5458,-0.5401,-0.5345,-0.5345,-0.5345,-0.5311,-0.5316,-0.5342,-0.5203,-0.4667,-0.4134,-0.3865,-0.361,-0.3564,-0.3648,-0.3568,-0.3549,-0.3737,-0.3956,-0.4161,-0.4367,-0.45,-0.4761,-0.5153,-0.5219,-0.5418,-0.5617,-0.5815,-0.5947,-0.6218,-0.6548,-0.6876,-0.7335,-0.7587,-0.7912,-0.8431,-0.9139,-0.9856,-1.0604,-1.1593,-1.252,-1.3312,-1.4195,-1.5196,-1.6291,-1.7379,-1.817,-1.8839,-1.9263,-1.9577,-1.9914,-2.0169,-2.0497,-2.4415,-2.3568,-2.2518,-2.2025,-2.1721,-2.1298,-2.0771,-2.0123,-1.9487,-1.8821,-1.8113,-1.7719,-1.7254,-1.6908,-1.6491,-1.6263,-1.5965,-1.5101,-1.4555,-1.4316,-1.3567,-1.2886,-1.2341,-1.1737,-1.1045,-1.0207,-0.9038,-0.8127,-0.7583,-0.7009,-0.671,-0.6455,-0.5806,-0.5481,-0.5622,-0.5212,-0.4919,-0.4732,-0.4579,-0.4382,-0.4223,-0.4077,-0.3953,-0.3935,-0.3993,-0.4046,-0.3991,-0.4172,-0.4361,-0.4538,-0.4564,-0.4697,-0.4856,-0.4897,-0.4992,-0.51,-0.5275,-0.5457,-0.5555,-0.5719,-0.5883,-0.6002,-0.6087,-0.6122,-0.6232,-0.6181,-0.6122,-0.6173,-0.6096,-0.6053,-0.6001,-0.588,-0.5396,-0.4674,-0.4448,-0.4336,-0.4266,-0.4284,-0.4284,-0.4356,-0.4489,-0.4556,-0.4694,-0.4894,-0.5153,-0.5359,-0.555,-0.5683,-0.5888,-0.6152,-0.635,-0.6482,-0.6811,-0.7204,-0.7661,-0.8107,-0.856,-0.9011,-0.9792,-1.0491,-1.1233,-1.2151,-1.3191,-1.4034,-1.5235,-1.6239,-1.7268,-1.8224,-1.8709,-1.9316,-1.9629,-1.9862,-2.0169,-2.0422,-2.0646,-2.4277,-2.3724,-2.2415,-2.1797,-2.1589,-2.1128,-2.0715,-2.0183,-1.9546,-1.8918,-1.828,-1.7719,-1.7254,-1.6908,-1.6491,-1.614,-1.5929,-1.53,-1.4898,-1.46,-1.4081,-1.3454,-1.2885,-1.2312,-1.1301,-1.0058,-0.9173,-0.8514,-0.7917,-0.7317,-0.698,-0.6707,-0.5956,-0.5591,-0.5569,-0.5251,-0.4862,-0.4696,-0.4511,-0.4337,-0.411,-0.3925,-0.3802,-0.3742,-0.3883,-0.3894,-0.3914,-0.4122,-0.4314,-0.4567,-0.4587,-0.4742,-0.4964,-0.5158,-0.5169,-0.5143,-0.5373,-0.5508,-0.5479,-0.5828,-0.6078,-0.6121,-0.6371,-0.6551,-0.6611,-0.6671,-0.6731,-0.6861,-0.6955,-0.705,-0.7016,-0.7066,-0.6615,-0.5568,-0.522,-0.5111,-0.5127,-0.5127,-0.5087,-0.5027,-0.5093,-0.516,-0.5292,-0.5425,-0.5579,-0.5785,-0.5911,-0.6102,-0.6234,-0.6523,-0.6679,-0.6942,-0.7269,-0.771,-0.8209,-0.8832,-0.9421,-0.9891,-1.0494,-1.1122,-1.1903,-1.281,-1.3777,-1.4982,-1.6202,-1.7222,-1.8247,-1.8869,-1.9291,-1.9681,-1.999,-2.0195,-2.0398,-2.0599,-2.0772,-2.4378,-2.3801,-2.2533,-2.1732,-2.1359,-2.1051,-2.0661,-2.0249,-1.9707,-1.9155,-1.8629,-1.7953,-1.7427,-1.6951,-1.6474,-1.607,-1.5788,-1.5204,-1.4928,-1.4719,-1.4248,-1.3637,-1.3039,-1.2157,-1.1192,-0.9992,-0.9301,-0.8741,-0.8207,-0.7586,-0.7227,-0.6957,-0.6179,-0.5787,-0.5701,-0.5388,-0.5052,-0.4772,-0.4599,-0.4349,-0.4086,-0.3921,-0.3736,-0.3687,-0.3832,-0.3856,-0.3843,-0.3993,-0.4177,-0.4455,-0.459,-0.4827,-0.5087,-0.5286,-0.5384,-0.5373,-0.5531,-0.5751,-0.5786,-0.6162,-0.6448,-0.6635,-0.6821,-0.7078,-0.7202,-0.7377,-0.7491,-0.7778,-0.7871,-0.8028,-0.8048,-0.8078,-0.7713,-0.7076,-0.6429,-0.6092,-0.6005,-0.594,-0.5911,-0.5933,-0.597,-0.606,-0.6135,-0.6203,-0.6271,-0.6407,-0.6611,-0.6747,-0.6958,-0.7162,-0.7346,-0.7616,-0.8078,-0.8493,-0.8786,-0.9519,-1.0246,-1.0744,-1.1291,-1.1807,-1.2458,-1.3537,-1.461,-1.6005,-1.7334,-1.803,-1.8946,-1.9267,-1.9683,-1.9991,-2.0296,-2.0398,-2.0575,-2.0725,-2.0875,-2.4476,-2.3764,-2.2666,-2.1822,-2.1225,-2.0974,-2.0722,-2.0469,-1.985,-1.9411,-1.9089,-1.8227,-1.7622,-1.7099,-1.6527,-1.6119,-1.5732,-1.5153,-1.4731,-1.4454,-1.4052,-1.3491,-1.2763,-1.164,-1.0656,-0.9948,-0.9316,-0.8787,-0.8392,-0.7764,-0.7362,-0.723,-0.649,-0.6025,-0.5912,-0.561,-0.5213,-0.4971,-0.4713,-0.4508,-0.4182,-0.3934,-0.3847,-0.3834,-0.383,-0.3793,-0.3873,-0.3913,-0.4045,-0.4217,-0.4574,-0.4852,-0.5093,-0.5292,-0.5418,-0.5529,-0.5815,-0.6071,-0.6334,-0.6546,-0.688,-0.7325,-0.7519,-0.7782,-0.8109,-0.827,-0.8398,-0.8803,-0.8849,-0.8935,-0.8988,-0.8992,-0.8874,-0.8755,-0.7821,-0.7166,-0.6836,-0.6789,-0.6813,-0.6854,-0.6979,-0.7078,-0.7037,-0.7178,-0.7257,-0.7328,-0.746,-0.7654,-0.7794,-0.7906,-0.8183,-0.8514,-0.879,-0.9251,-0.9593,-1.0355,-1.1169,-1.1817,-1.2367,-1.3028,-1.3583,-1.4708,-1.5959,-1.7326,-1.823,-1.8911,-1.9417,-1.9808,-1.999,-2.0169,-2.0398,-2.0549,-2.0625,-2.0675,-2.0725,-2.4232,-2.3465,-2.2449,-2.1686,-2.1168,-2.0819,-2.0664,-2.0508,-1.9889,-1.9507,-1.9146,-1.8416,-1.7824,-1.7418,-1.6885,-1.6404,-1.5905,-1.5455,-1.4988,-1.4451,-1.4021,-1.3347,-1.257,-1.1618,-1.075,-1.0105,-0.9358,-0.8873,-0.8603,-0.7788,-0.7417,-0.7364,-0.6639,-0.621,-0.5948,-0.5716,-0.5438,-0.5074,-0.4986,-0.4685,-0.4357,-0.4179,-0.4064,-0.3847,-0.3843,-0.383,-0.3874,-0.4042,-0.4137,-0.4222,-0.4516,-0.4789,-0.4913,-0.5093,-0.5352,-0.5617,-0.5822,-0.6086,-0.6416,-0.6811,-0.7269,-0.7661,-0.7987,-0.8376,-0.8753,-0.9011,-0.9332,-0.9664,-0.9792,-0.9932,-0.9957,-1.0043,-1.0019,-0.9864,-0.8872,-0.8038,-0.7788,-0.7803,-0.7794,-0.7803,-0.7849,-0.7895,-0.7914,-0.7904,-0.7975,-0.7975,-0.8127,-0.8269,-0.845,-0.8654,-0.8898,-0.9097,-0.9452,-0.9892,-1.0422,-1.1248,-1.1992,-1.2773,-1.3637,-1.459,-1.536,-1.637,-1.7666,-1.909,-1.9215,-1.9756,-2.0055,-2.0319,-2.0399,-2.0425,-2.0398,-2.0474,-2.0347,-2.0347,-2.0398,-2.4238,-2.3304,-2.2493,-2.1788,-2.1091,-2.0722,-2.0566,-2.0372,-1.9947,-1.9582,-1.9257,-1.854,-1.7997,-1.76,-1.7063,-1.6463,-1.5851,-1.5374,-1.4907,-1.4439,-1.3817,-1.3011,-1.2215,-1.1433,-1.0708,-1.0151,-0.9337,-0.8808,-0.8455,-0.7803,-0.7498,-0.7318,-0.6885,-0.6544,-0.63,-0.6031,-0.5746,-0.5453,-0.5268,-0.4964,-0.4695,-0.4526,-0.4389,-0.4157,-0.4055,-0.3963,-0.3999,-0.4173,-0.4278,-0.4313,-0.4501,-0.4717,-0.4857,-0.4986,-0.5292,-0.569,-0.5888,-0.6218,-0.6679,-0.7129,-0.7531,-0.7987,-0.8452,-0.884,-0.928,-0.9652,-0.9996,-1.0599,-1.0806,-1.1002,-1.119,-1.1222,-1.1047,-1.0823,-1.0065,-0.9375,-0.8954,-0.8855,-0.8837,-0.8806,-0.8794,-0.8782,-0.8782,-0.8709,-0.8709,-0.8802,-0.8895,-0.903,-0.9249,-0.9352,-0.9619,-0.9873,-1.023,-1.0789,-1.1469,-1.2291,-1.3286,-1.4002,-1.5318,-1.6204,-1.687,-1.7802,-1.8819,-1.9855,-2.0193,-2.0528,-2.0769,-2.0828,-2.0705,-2.0681,-2.0553,-2.0348,-2.0246,-2.0093,-2.0118,-2.4388,-2.3143,-2.2778,-2.195,-2.0976,-2.0644,-2.0489,-2.0274,-1.9982,-1.9747,-1.9376,-1.8788,-1.8177,-1.7752,-1.7046,-1.6305,-1.5685,-1.52,-1.467,-1.4172,-1.3509,-1.2612,-1.1875,-1.128,-1.0624,-0.9955,-0.9321,-0.8765,-0.8369,-0.7881,-0.7613,-0.7425,-0.7027,-0.6871,-0.6656,-0.641,-0.6098,-0.5843,-0.5561,-0.5245,-0.5068,-0.488,-0.4665,-0.4494,-0.4366,-0.4236,-0.4256,-0.4292,-0.437,-0.4342,-0.4577,-0.481,-0.5054,-0.5135,-0.5413,-0.5866,-0.6133,-0.6515,-0.7073,-0.74,-0.7877,-0.8495,-0.8831,-0.9285,-0.9993,-1.0497,-1.1016,-1.168,-1.1891,-1.2167,-1.2482,-1.238,-1.2081,-1.1763,-1.1501,-1.1049,-1.0373,-0.9895,-0.9739,-0.9739,-0.9723,-0.9669,-0.9625,-0.9549,-0.9528,-0.9511,-0.9606,-0.9744,-0.9892,-1.0103,-1.041,-1.0739,-1.1206,-1.171,-1.2485,-1.3317,-1.4419,-1.5409,-1.6985,-1.8015,-1.8342,-1.9113,-1.9772,-2.044,-2.0888,-2.1269,-2.1554,-2.1517,-2.1161,-2.0907,-2.0781,-2.0397,-2.0065,-1.9861,-1.9888,-2.4325,-2.2941,-2.2696,-2.195,-2.0976,-2.0644,-2.0489,-2.0274,-2.002,-1.9706,-1.9292,-1.8824,-1.8391,-1.7894,-1.7296,-1.675,-1.6121,-1.5375,-1.4752,-1.3626,-1.3087,-1.2322,-1.1505,-1.1059,-1.057,-0.9961,-0.9465,-0.8974,-0.8479,-0.8043,-0.7724,-0.7496,-0.7143,-0.6966,-0.6795,-0.6707,-0.6435,-0.6133,-0.5946,-0.5616,-0.5271,-0.516,-0.4944,-0.4758,-0.4594,-0.4494,-0.4408,-0.4545,-0.4598,-0.4691,-0.4817,-0.5067,-0.52,-0.5429,-0.5776,-0.6112,-0.6415,-0.6764,-0.7184,-0.77,-0.833,-0.923,-0.9718,-1.04,-1.1303,-1.1731,-1.224,-1.2743,-1.3091,-1.3313,-1.3386,-1.3308,-1.3134,-1.287,-1.2652,-1.233,-1.1767,-1.1046,-1.0627,-1.0502,-1.0387,-1.0293,-1.0293,-1.0218,-1.0218,-1.0293,-1.0368,-1.0443,-1.0594,-1.0818,-1.1105,-1.1403,-1.1948,-1.2392,-1.3258,-1.4248,-1.561,-1.6736,-1.8203,-1.9414,-1.9748,-2.0228,-2.0865,-2.1283,-2.1666,-2.1981,-2.2178,-2.1888,-2.1483,-2.1281,-2.097,-2.0611,-2.02,-1.9899,-1.9747,-2.4263,-2.2818,-2.2635,-2.187,-2.0898,-2.0644,-2.0411,-2.0098,-1.9942,-1.9627,-1.9152,-1.8851,-1.8371,-1.787,-1.7302,-1.6714,-1.5974,-1.5159,-1.4237,-1.3294,-1.2699,-1.1929,-1.1241,-1.0722,-1.0212,-0.9777,-0.9331,-0.8815,-0.8288,-0.8032,-0.7672,-0.7326,-0.7143,-0.7054,-0.6966,-0.6884,-0.6707,-0.6435,-0.6257,-0.6039,-0.5813,-0.5627,-0.5399,-0.5029,-0.4836,-0.4809,-0.4634,-0.4703,-0.4831,-0.5012,-0.5177,-0.5312,-0.5335,-0.5623,-0.598,-0.6409,-0.6867,-0.7389,-0.7845,-0.8435,-0.9164,-0.9968,-1.059,-1.1263,-1.2062,-1.2646,-1.3276,-1.3775,-1.4125,-1.4323,-1.4369,-1.4222,-1.4063,-1.381,-1.3623,-1.34,-1.3014,-1.2087,-1.1341,-1.118,-1.1031,-1.0881,-1.0807,-1.0813,-1.0778,-1.079,-1.0778,-1.0842,-1.1192,-1.1403,-1.1626,-1.2009,-1.2479,-1.3141,-1.3912,-1.5166,-1.6756,-1.7946,-1.9233,-2.02,-2.073,-2.1247,-2.1823,-2.2002,-2.2176,-2.2406,-2.2505,-2.2138,-2.1813,-2.1549,-2.1237,-2.0772,-2.0385,-2.0152,-2.0048,-2.4117,-2.2615,-2.2554,-2.173,-2.0722,-2.0566,-2.0333,-1.9942,-1.9863,-1.9548,-1.9011,-1.8772,-1.8273,-1.7708,-1.7139,-1.6468,-1.5477,-1.4573,-1.3646,-1.2966,-1.2272,-1.1585,-1.0895,-1.0299,-0.9777,-0.9515,-0.9078,-0.8552,-0.812,-0.7856,-0.7591,-0.7143,-0.7143,-0.7054,-0.7054,-0.6966,-0.6795,-0.67,-0.6523,-0.6428,-0.6328,-0.6151,-0.5824,-0.5448,-0.5278,-0.5168,-0.5078,-0.5031,-0.5143,-0.5358,-0.5569,-0.565,-0.562,-0.5882,-0.6208,-0.6849,-0.7414,-0.808,-0.8653,-0.9302,-1.002,-1.0798,-1.1434,-1.2081,-1.2809,-1.3499,-1.4102,-1.4643,-1.5051,-1.5238,-1.5363,-1.5215,-1.4961,-1.4652,-1.4574,-1.4381,-1.3914,-1.3037,-1.2518,-1.1966,-1.1828,-1.1701,-1.1511,-1.1383,-1.1286,-1.1226,-1.1301,-1.1427,-1.1714,-1.1987,-1.2236,-1.2539,-1.3082,-1.42,-1.5113,-1.6381,-1.7953,-1.9014,-2.0176,-2.0926,-2.162,-2.2062,-2.2445,-2.2366,-2.247,-2.2677,-2.2688,-2.2461,-2.2095,-2.182,-2.1458,-2.0976,-2.0682,-2.0403,-2.0274,-2.3681,-2.2594,-2.2151,-2.1431,-2.0683,-2.0566,-2.0333,-1.9942,-1.9863,-1.9469,-1.8772,-1.8531,-1.8112,-1.7465,-1.6812,-1.5809,-1.481,-1.3984,-1.3307,-1.2613,-1.1929,-1.1327,-1.0549,-0.9951,-0.9428,-0.9078,-0.8727,-0.8376,-0.7944,-0.768,-0.7415,-0.7143,-0.7143,-0.7143,-0.7143,-0.7054,-0.6966,-0.6877,-0.6789,-0.6612,-0.6517,-0.6334,-0.6204,-0.5832,-0.5786,-0.5628,-0.5598,-0.5496,-0.5502,-0.5793,-0.6087,-0.6106,-0.6297,-0.6638,-0.7076,-0.7425,-0.8043,-0.8732,-0.9253,-0.995,-1.0734,-1.1576,-1.2347,-1.3123,-1.3909,-1.4638,-1.5113,-1.5564,-1.586,-1.6122,-1.6127,-1.6032,-1.5889,-1.5622,-1.537,-1.5203,-1.465,-1.4156,-1.3726,-1.3182,-1.287,-1.2492,-1.2272,-1.2079,-1.1989,-1.2041,-1.2054,-1.2145,-1.2387,-1.2563,-1.2825,-1.3163,-1.3609,-1.4972,-1.6336,-1.7734,-1.9134,-1.9981,-2.1054,-2.1774,-2.2411,-2.2817,-2.2959,-2.2886,-2.2712,-2.2739,-2.2678,-2.2616,-2.2372,-2.2043,-2.1632,-2.12,-2.0914,-2.0604,-2.0168,-2.3515,-2.2594,-2.197,-2.1293,-2.0683,-2.0489,-2.0255,-1.9942,-1.9784,-1.9329,-1.8772,-1.8451,-1.8031,-1.7383,-1.673,-1.5643,-1.4559,-1.3646,-1.3052,-1.2369,-1.1671,-1.0982,-1.0299,-0.9689,-0.9165,-0.8727,-0.8376,-0.8113,-0.7944,-0.7591,-0.7326,-0.7143,-0.7143,-0.7143,-0.7143,-0.7143,-0.7054,-0.6966,-0.6966,-0.6877,-0.6782,-0.67,-0.6474,-0.6268,-0.615,-0.6097,-0.599,-0.593,-0.6096,-0.626,-0.6371,-0.6627,-0.7055,-0.7382,-0.7685,-0.7903,-0.8552,-0.9342,-0.9958,-1.0731,-1.1598,-1.2353,-1.3243,-1.4016,-1.4641,-1.5275,-1.5908,-1.6403,-1.6599,-1.6884,-1.7019,-1.6924,-1.6638,-1.6413,-1.6211,-1.5858,-1.5512,-1.5238,-1.4787,-1.4181,-1.3639,-1.3186,-1.2897,-1.2726,-1.2698,-1.2724,-1.2829,-1.2897,-1.3013,-1.3178,-1.3432,-1.4124,-1.462,-1.5931,-1.7336,-1.8712,-2.0025,-2.0928,-2.1761,-2.2587,-2.3144,-2.3489,-2.3499,-2.3328,-2.3232,-2.3198,-2.2969,-2.2983,-2.2587,-2.2231,-2.182,-2.1422,-2.1105,-2.0742,-2.0305,-2.3125,-2.2372,-2.175,-2.1115,-2.0586,-2.043,-2.0196,-1.9863,-1.9724,-1.925,-1.8692,-1.8371,-1.7951,-1.7302,-1.6484,-1.5477,-1.4321,-1.3476,-1.2881,-1.2198,-1.1413,-1.0722,-1.0212,-0.9602,-0.899,-0.8552,-0.8201,-0.7856,-0.7768,-0.7503,-0.7319,-0.7143,-0.7143,-0.7143,-0.7143,-0.7231,-0.7143,-0.7143,-0.7231,-0.7143,-0.7054,-0.6966,-0.67,-0.6517,-0.6428,-0.6467,-0.6381,-0.6398,-0.659,-0.6736,-0.6933,-0.7148,-0.774,-0.8086,-0.83,-0.8493,-0.9094,-0.9916,-1.072,-1.1588,-1.2371,-1.3128,-1.397,-1.4721,-1.5441,-1.599,-1.656,-1.7207,-1.7352,-1.7514,-1.7689,-1.7628,-1.7301,-1.7132,-1.6884,-1.6573,-1.622,-1.5894,-1.5576,-1.4938,-1.4261,-1.3856,-1.3548,-1.3426,-1.3343,-1.3424,-1.3437,-1.3454,-1.3573,-1.385,-1.4266,-1.5095,-1.5928,-1.708,-1.8261,-1.9408,-2.0629,-2.1681,-2.2528,-2.3296,-2.3792,-2.4236,-2.411,-2.4025,-2.4165,-2.4111,-2.3741,-2.324,-2.3039,-2.2655,-2.2091,-2.1713,-2.1348,-2.0846,-2.0322,-2.2149,-2.165,-2.1154,-2.0858,-2.0566,-2.0333,-2.0117,-1.9863,-1.9645,-1.925,-1.8692,-1.821,-1.7806,-1.7139,-1.6072,-1.5075,-1.4153,-1.3392,-1.2711,-1.2037,-1.1338,-1.0636,-1.0038,-0.9515,-0.8903,-0.8376,-0.8025,-0.7768,-0.7598,-0.7333,-0.7156,-0.7156,-0.7183,-0.7156,-0.7204,-0.7485,-0.7415,-0.751,-0.751,-0.7326,-0.7143,-0.7143,-0.6966,-0.6789,-0.6789,-0.6782,-0.6819,-0.684,-0.7011,-0.724,-0.7666,-0.7837,-0.7948,-0.8532,-0.8951,-0.9306,-0.9916,-1.0743,-1.149,-1.2331,-1.3169,-1.3915,-1.4712,-1.5474,-1.6216,-1.6949,-1.7512,-1.7861,-1.7971,-1.8097,-1.8253,-1.8095,-1.7961,-1.7706,-1.7346,-1.7025,-1.6651,-1.618,-1.5891,-1.5477,-1.4693,-1.442,-1.4227,-1.4115,-1.4001,-1.4072,-1.4102,-1.4022,-1.4144,-1.4574,-1.5108,-1.5937,-1.6801,-1.7976,-1.8954,-2.0059,-2.1138,-2.2339,-2.3099,-2.3826,-2.4234,-2.4637,-2.492,-2.4869,-2.4963,-2.4792,-2.4213,-2.3785,-2.3532,-2.3048,-2.2456,-2.2012,-2.1727,-2.1083,-2.0468,-2.1391,-2.1571,-2.084,-2.0508,-2.0411,-2.0039,-1.9882,-1.9706,-1.939,-1.9091,-1.8612,-1.8112,-1.7383,-1.6648,-1.5726,-1.4894,-1.4068,-1.3307,-1.254,-1.1952,-1.1251,-1.0549,-1.0038,-0.9515,-0.8903,-0.8288,-0.7937,-0.7768,-0.7524,-0.7327,-0.7272,-0.7272,-0.7437,-0.7682,-0.764,-0.7851,-0.7898,-0.7825,-0.7738,-0.768,-0.7584,-0.7503,-0.7415,-0.7238,-0.7326,-0.7326,-0.7217,-0.7365,-0.7578,-0.7801,-0.8098,-0.8397,-0.8708,-0.9271,-0.9776,-1.0526,-1.1265,-1.1738,-1.2013,-1.3061,-1.3874,-1.463,-1.552,-1.6507,-1.7125,-1.7638,-1.8115,-1.8449,-1.8449,-1.8497,-1.8632,-1.8583,-1.8276,-1.7997,-1.7613,-1.722,-1.6794,-1.6335,-1.5922,-1.5575,-1.5187,-1.4923,-1.4613,-1.4389,-1.4179,-1.4126,-1.428,-1.4365,-1.471,-1.5286,-1.599,-1.6782,-1.7678,-1.8662,-1.9637,-2.0621,-2.1569,-2.2542,-2.3283,-2.3963,-2.4515,-2.4897,-2.5111,-2.5229,-2.518,-2.4915,-2.4578,-2.4294,-2.3943,-2.3388,-2.2747,-2.2342,-2.1936,-2.1461,-2.0809,-2.0762,-2.1095,-2.0468,-2.0177,-2.0177,-1.9784,-1.9645,-1.9566,-1.9152,-1.8931,-1.8531,-1.7951,-1.7057,-1.617,-1.556,-1.4894,-1.4055,-1.3209,-1.254,-1.1854,-1.1165,-1.0559,-1.0038,-0.9524,-0.8911,-0.8201,-0.8025,-0.7797,-0.761,-0.7514,-0.759,-0.7471,-0.7759,-0.8023,-0.8146,-0.8303,-0.8344,-0.8253,-0.8148,-0.808,-0.7938,-0.793,-0.7812,-0.7694,-0.7768,-0.7856,-0.768,-0.7848,-0.8017,-0.8249,-0.8603,-0.8922,-0.9256,-0.9883,-1.0497,-1.1158,-1.1909,-1.257,-1.2974,-1.3733,-1.4592,-1.5396,-1.633,-1.7366,-1.7872,-1.8245,-1.841,-1.8775,-1.8793,-1.8801,-1.8841,-1.8674,-1.844,-1.807,-1.7664,-1.7334,-1.6885,-1.6446,-1.61,-1.5833,-1.5505,-1.5105,-1.4819,-1.4538,-1.4358,-1.4277,-1.4405,-1.4657,-1.5228,-1.5876,-1.6585,-1.7349,-1.8231,-1.914,-2.0041,-2.1011,-2.1949,-2.2767,-2.3512,-2.41,-2.4655,-2.4945,-2.5111,-2.5253,-2.5325,-2.5133,-2.48,-2.4587,-2.4305,-2.3839,-2.3306,-2.2592,-2.2154,-2.1599,-2.0857,-2.0196,-1.9979,-1.996,-1.9942,-1.9863,-1.9706,-1.9566,-1.9487,-1.9152,-1.8851,-1.8451,-1.7806,-1.6894,-1.6154,-1.5575,-1.4908,-1.4082,-1.3392,-1.2711,-1.194,-1.1338,-1.0646,-1.0038,-0.9515,-0.8999,-0.8376,-0.8055,-0.7871,-0.7815,-0.7959,-0.7852,-0.7872,-0.8074,-0.8168,-0.837,-0.8683,-0.8746,-0.8683,-0.8629,-0.8459,-0.8299,-0.8163,-0.8027,-0.7908,-0.7871,-0.7856,-0.7856,-0.812,-0.8376,-0.864,-0.9122,-0.9484,-0.979,-1.049,-1.1051,-1.1688,-1.2451,-1.3253,-1.3881,-1.4525,-1.5265,-1.6146,-1.7098,-1.813,-1.8515,-1.8939,-1.914,-1.8964,-1.8849,-1.8744,-1.8594,-1.8406,-1.8254,-1.7979,-1.7579,-1.7217,-1.6869,-1.6458,-1.6184,-1.6096,-1.5789,-1.5251,-1.5122,-1.4838,-1.462,-1.4525,-1.4671,-1.4977,-1.5741,-1.6386,-1.7123,-1.7836,-1.8638,-1.9529,-2.0391,-2.1302,-2.2213,-2.2983,-2.3705,-2.4255,-2.4795,-2.5015,-2.5324,-2.5421,-2.554,-2.5302,-2.5135,-2.4944,-2.4704,-2.435,-2.3761,-2.2871,-2.1934,-2.1219,-2.0325,-1.9608,-1.9548,-1.9231,-1.9311,-1.9548,-1.9311,-1.917,-1.9011,-1.8772,-1.8371,-1.787,-1.7221,-1.6664,-1.6087,-1.5409,-1.4824,-1.4068,-1.3392,-1.2723,-1.2037,-1.1338,-1.0733,-1.0125,-0.9611,-0.9087,-0.8673,-0.8391,-0.829,-0.82,-0.8262,-0.8445,-0.8562,-0.8645,-0.8728,-0.8922,-0.9204,-0.9345,-0.9313,-0.9247,-0.9047,-0.9023,-0.8806,-0.859,-0.8436,-0.8477,-0.8462,-0.8527,-0.8609,-0.8752,-0.9078,-0.9602,-0.9885,-1.0257,-1.1006,-1.1629,-1.229,-1.3092,-1.3899,-1.4764,-1.5507,-1.6331,-1.7525,-1.8215,-1.8601,-1.8957,-1.9079,-1.9054,-1.8993,-1.8789,-1.8584,-1.829,-1.8091,-1.7896,-1.7709,-1.7445,-1.7116,-1.6831,-1.6388,-1.6092,-1.5852,-1.5631,-1.5294,-1.5191,-1.5164,-1.5007,-1.4847,-1.5064,-1.5394,-1.6154,-1.6844,-1.7498,-1.8198,-1.8941,-1.9776,-2.0664,-2.1524,-2.2422,-2.322,-2.3939,-2.4469,-2.5015,-2.5518,-2.5784,-2.5793,-2.5749,-2.5577,-2.5452,-2.5298,-2.4987,-2.4448,-2.3638,-2.2783,-2.1818,-2.0933,-2.0137,-1.9231,-1.9073,-1.8772,-1.8851,-1.9073,-1.8913,-1.8851,-1.8692,-1.8451,-1.7951,-1.7302,-1.6894,-1.65,-1.6004,-1.5423,-1.4741,-1.4055,-1.3476,-1.2711,-1.2037,-1.1424,-1.0819,-1.0231,-0.9754,-0.9199,-0.8949,-0.8721,-0.8551,-0.866,-0.868,-0.8779,-0.896,-0.9257,-0.9296,-0.9379,-0.9705,-0.9912,-0.9878,-0.9905,-0.9673,-0.9656,-0.9451,-0.9299,-0.9072,-0.9134,-0.9183,-0.9125,-0.9212,-0.9287,-0.9605,-0.992,-1.0299,-1.0809,-1.1413,-1.2198,-1.2954,-1.3717,-1.4475,-1.5253,-1.6246,-1.7119,-1.7992,-1.8461,-1.8816,-1.9073,-1.9073,-1.8993,-1.8869,-1.8619,-1.8301,-1.8057,-1.7779,-1.768,-1.7526,-1.6949,-1.6579,-1.6454,-1.619,-1.5896,-1.5554,-1.5399,-1.5402,-1.5518,-1.5477,-1.5567,-1.5489,-1.5689,-1.5974,-1.6319,-1.7008,-1.7727,-1.8447,-1.9264,-2.0024,-2.0878,-2.1829,-2.2766,-2.3495,-2.4149,-2.4725,-2.5224,-2.5684,-2.5893,-2.5791,-2.5745,-2.5777,-2.5524,-2.5079,-2.4709,-2.4318,-2.346,-2.2457,-2.1937,-2.1076,-2.032,-1.9073,-1.8692,-1.8451,-1.8531,-1.8692,-1.8692,-1.8612,-1.8531,-1.8112,-1.7627,-1.7057,-1.6812,-1.6402,-1.6004,-1.534,-1.4741,-1.4153,-1.3561,-1.2881,-1.2112,-1.1596,-1.0895,-1.0377,-0.9855,-0.9508,-0.9125,-0.8991,-0.8965,-0.9013,-0.8987,-0.9081,-0.9257,-0.941,-0.9525,-0.9624,-0.992,-1.0109,-1.0395,-1.0369,-1.0246,-1.0149,-1.0018,-0.9845,-0.9768,-0.9766,-0.9731,-0.9881,-0.9731,-0.9894,-1.0187,-1.0328,-1.0696,-1.1241,-1.1682,-1.2369,-1.3052,-1.3717,-1.4405,-1.5159,-1.655,-1.7448,-1.8031,-1.8451,-1.8772,-1.8913,-1.8913,-1.8905,-1.8735,-1.8521,-1.8296,-1.7943,-1.7556,-1.7332,-1.7071,-1.6454,-1.6049,-1.591,-1.5778,-1.5405,-1.5338,-1.5444,-1.5481,-1.5671,-1.5869,-1.5998,-1.614,-1.6339,-1.6622,-1.6854,-1.745,-1.8243,-1.8889,-1.967,-2.0461,-2.1325,-2.2251,-2.3062,-2.3807,-2.4494,-2.5068,-2.5408,-2.5611,-2.5678,-2.5652,-2.561,-2.5599,-2.5103,-2.4566,-2.4083,-2.3642,-2.2855,-2.2069,-2.1703,-2.1154,-2.0191,-1.8612,-1.8193,-1.8031,-1.787,-1.7887,-1.7951,-1.7951,-1.7806,-1.7546,-1.7139,-1.6812,-1.6484,-1.6154,-1.5741,-1.5159,-1.4657,-1.4237,-1.3646,-1.2966,-1.2283,-1.1768,-1.1282,-1.076,-1.0234,-0.9904,-0.967,-0.9451,-0.9283,-0.9244,-0.9251,-0.9347,-0.9517,-0.9525,-0.9723,-0.992,-1.0117,-1.0404,-1.06,-1.069,-1.0663,-1.0511,-1.0396,-1.0272,-1.028,-1.0174,-1.031,-1.049,-1.0399,-1.0433,-1.078,-1.0899,-1.1149,-1.1554,-1.1963,-1.2381,-1.3137,-1.373,-1.4321,-1.5242,-1.6304,-1.7221,-1.7806,-1.8273,-1.8612,-1.8772,-1.8674,-1.8654,-1.8538,-1.8246,-1.794,-1.7588,-1.6832,-1.6545,-1.6358,-1.5934,-1.5538,-1.536,-1.5102,-1.4874,-1.505,-1.5153,-1.5737,-1.6048,-1.6275,-1.6493,-1.6877,-1.711,-1.7361,-1.7584,-1.8228,-1.9006,-1.9512,-2.0171,-2.0957,-2.1753,-2.2629,-2.3371,-2.3969,-2.4777,-2.5596,-2.5776,-2.5636,-2.5739,-2.5797,-2.5562,-2.5382,-2.4634,-2.395,-2.3301,-2.2709,-2.1909,-2.1334,-2.0911,-2.034,-1.9484,-1.8193,-1.787,-1.7546,-1.7302,-1.7237,-1.7465,-1.7465,-1.7139,-1.6976,-1.6812,-1.65,-1.6087,-1.5824,-1.5477,-1.4977,-1.4489,-1.4237,-1.3646,-1.3137,-1.2443,-1.1929,-1.1478,-1.1008,-1.0629,-1.0149,-0.9938,-0.9819,-0.9744,-0.947,-0.9567,-0.9616,-0.9624,-0.9624,-0.9723,-1.0019,-1.0216,-1.0609,-1.0806,-1.0895,-1.0895,-1.0886,-1.0886,-1.0797,-1.0849,-1.0872,-1.099,-1.1135,-1.1179,-1.1179,-1.1395,-1.1521,-1.1739,-1.1936,-1.2169,-1.2564,-1.3137,-1.373,-1.4321,-1.5242,-1.5824,-1.6696,-1.7615,-1.8053,-1.844,-1.8609,-1.8615,-1.8659,-1.8448,-1.8006,-1.7526,-1.7143,-1.6358,-1.5855,-1.5658,-1.5162,-1.4841,-1.4567,-1.4388,-1.4388,-1.4484,-1.4975,-1.5642,-1.64,-1.6749,-1.6979,-1.7462,-1.7928,-1.8081,-1.8311,-1.8919,-1.9574,-2.0057,-2.0692,-2.1448,-2.2175,-2.3003,-2.3632,-2.4179,-2.4893,-2.5549,-2.5589,-2.5435,-2.5587,-2.5695,-2.5125,-2.464,-2.3957,-2.3288,-2.237,-2.154,-2.0676,-2.0272,-2.0043,-1.9553,-1.8946,-1.7853,-1.7594,-1.6976,-1.673,-1.6812,-1.7139,-1.7057,-1.6664,-1.6648,-1.6417,-1.6087,-1.5824,-1.5658,-1.5325,-1.4908,-1.4489,-1.4082,-1.3646,-1.3137,-1.2649,-1.2158,-1.1718,-1.1299,-1.0866,-1.0604,-1.0236,-1.0087,-0.9951,-0.9616,-0.9616,-0.9624,-0.9624,-0.9624,-0.9821,-1.0019,-1.0216,-1.0609,-1.0904,-1.11,-1.11,-1.1189,-1.1394,-1.1394,-1.1473,-1.1541,-1.1726,-1.1869,-1.1854,-1.2036,-1.2138,-1.2086,-1.2271,-1.2445,-1.2522,-1.2771,-1.3137,-1.3743,-1.4348,-1.4993,-1.5496,-1.6247,-1.7191,-1.7697,-1.8209,-1.8576,-1.8631,-1.8583,-1.8423,-1.7938,-1.74,-1.6795,-1.6044,-1.5266,-1.4816,-1.4244,-1.4004,-1.3811,-1.3715,-1.3715,-1.4004,-1.458,-1.5248,-1.6292,-1.6842,-1.7311,-1.7887,-1.836,-1.8685,-1.8935,-1.94,-2.0009,-2.0447,-2.1131,-2.1938,-2.2679,-2.3169,-2.3639,-2.4132,-2.4449,-2.4956,-2.5041,-2.5041,-2.5041,-2.485,-2.4423,-2.38,-2.2843,-2.1906,-2.1123,-2.0231,-1.9485,-1.9364,-1.9216,-1.9141,-1.868,-1.7384,-1.7004,-1.6782,-1.6648,-1.6484,-1.65,-1.6417,-1.6252,-1.6252,-1.6087,-1.5824,-1.5741,-1.5492,-1.5173,-1.4824,-1.4573,-1.4153,-1.373,-1.3307,-1.2845,-1.2447,-1.2071,-1.1759,-1.1424,-1.1086,-1.0757,-1.0476,-1.0117,-0.992,-0.9723,-0.9624,-0.9624,-0.9624,-0.9723,-0.992,-1.0117,-1.0511,-1.0806,-1.11,-1.1296,-1.1394,-1.159,-1.1688,-1.1883,-1.198,-1.2175,-1.2425,-1.2501,-1.2682,-1.2841,-1.2834,-1.2974,-1.2936,-1.288,-1.2877,-1.3076,-1.3587,-1.4064,-1.4679,-1.5248,-1.5992,-1.6764,-1.7321,-1.7867,-1.8291,-1.846,-1.8419,-1.8153,-1.7612,-1.6916,-1.6016,-1.5132,-1.4472,-1.3896,-1.3329,-1.3039,-1.2942,-1.3039,-1.3039,-1.3619,-1.4196,-1.5153,-1.6197,-1.6857,-1.7419,-1.8087,-1.8688,-1.9018,-1.9535,-1.9918,-2.0325,-2.0766,-2.1475,-2.2252,-2.2659,-2.324,-2.3541,-2.3907,-2.4272,-2.4444,-2.4444,-2.4444,-2.4272,-2.3927,-2.3299,-2.2403,-2.1338,-2.0584,-1.9991,-1.9216,-1.8514,-1.8458,-1.8426,-1.8349,-1.8303,-1.6857,-1.6596,-1.6381,-1.6195,-1.5989,-1.5839,-1.5839,-1.5839,-1.5922,-1.5824,-1.5575,-1.5492,-1.5242,-1.4908,-1.4657,-1.4489,-1.4237,-1.3815,-1.3392,-1.3199,-1.2838,-1.2428,-1.214,-1.1921,-1.1557,-1.123,-1.0904,-1.0511,-1.0117,-0.9723,-0.9624,-0.9624,-0.9624,-0.9723,-0.9821,-1.0019,-1.0216,-1.0609,-1.0904,-1.1198,-1.1492,-1.1688,-1.1883,-1.2078,-1.2273,-1.2565,-1.2856,-1.2953,-1.325,-1.3377,-1.3437,-1.338,-1.3353,-1.3152,-1.2808,-1.3073,-1.3423,-1.3762,-1.4229,-1.496,-1.5655,-1.6284,-1.6833,-1.7354,-1.7799,-1.8039,-1.7987,-1.7796,-1.6912,-1.6137,-1.5119,-1.416,-1.3499,-1.2931,-1.2457,-1.2078,-1.2078,-1.2273,-1.2759,-1.3329,-1.4196,-1.5153,-1.6008,-1.6777,-1.7434,-1.8087,-1.8735,-1.9163,-1.9736,-2.0318,-2.0624,-2.0873,-2.164,-2.2403,-2.2794,-2.3057,-2.3406,-2.3667,-2.3927,-2.4013,-2.3927,-2.3667,-2.3493,-2.2862,-2.2069,-2.1177,-2.0365,-1.9712,-1.9023,-1.8257,-1.7672,-1.7512,-1.7507,-1.7493,-1.7463,-1.6277,-1.6234,-1.5747,-1.5523,-1.5365,-1.5409,-1.5438,-1.5423,-1.5575,-1.5575,-1.534,-1.5173,-1.4992,-1.4741,-1.4475,-1.4321,-1.4166,-1.3828,-1.3625,-1.3442,-1.3173,-1.2901,-1.2595,-1.2328,-1.2107,-1.1541,-1.11,-1.0708,-1.0117,-0.9821,-0.9723,-0.9624,-0.9624,-0.9624,-0.9723,-0.9821,-1.0117,-1.0413,-1.0708,-1.1002,-1.1492,-1.1883,-1.2175,-1.237,-1.2759,-1.3147,-1.3147,-1.334,-1.363,-1.3741,-1.3731,-1.3766,-1.3519,-1.3401,-1.31,-1.2904,-1.3117,-1.3459,-1.387,-1.454,-1.515,-1.5769,-1.626,-1.6621,-1.7004,-1.7523,-1.7537,-1.7135,-1.6341,-1.5308,-1.4339,-1.3307,-1.2543,-1.197,-1.158,-1.1296,-1.1296,-1.1688,-1.2467,-1.3136,-1.41,-1.5057,-1.5913,-1.6683,-1.734,-1.7994,-1.8735,-1.9288,-1.9837,-2.0473,-2.0817,-2.0997,-2.1802,-2.2441,-2.2618,-2.2882,-2.3319,-2.3493,-2.3667,-2.358,-2.3493,-2.3057,-2.2599,-2.1891,-2.1177,-2.0365,-1.9546,-1.898,-1.8334,-1.7591,-1.7016,-1.6669,-1.6602,-1.6899,-1.6994,-1.5807,-1.5798,-1.5654,-1.5388,-1.5087,-1.5321,-1.5423,-1.5438,-1.5423,-1.534,-1.5173,-1.509,-1.4824,-1.4573,-1.4405,-1.4237,-1.4082,-1.3926,-1.3703,-1.3623,-1.3533,-1.3417,-1.3147,-1.2892,-1.2587,-1.2242,-1.1688,-1.0806,-1.0314,-1.0019,-0.983,-0.9624,-0.9624,-0.9624,-0.9624,-0.9723,-0.992,-1.0413,-1.0511,-1.0904,-1.1492,-1.1883,-1.2175,-1.2467,-1.2856,-1.3244,-1.3352,-1.3642,-1.3919,-1.4076,-1.4148,-1.3909,-1.3625,-1.3461,-1.3147,-1.2825,-1.2837,-1.3113,-1.3576,-1.4099,-1.4676,-1.5217,-1.5604,-1.5752,-1.6142,-1.685,-1.6865,-1.625,-1.552,-1.4472,-1.3511,-1.2457,-1.159,-1.11,-1.0708,-1.0609,-1.0511,-1.1287,-1.2165,-1.3136,-1.4112,-1.4975,-1.5724,-1.6588,-1.7246,-1.7994,-1.8735,-1.9379,-1.9745,-2.0382,-2.0817,-2.1177,-2.1891,-2.2353,-2.253,-2.2794,-2.3144,-2.3232,-2.3232,-2.3144,-2.2969,-2.2422,-2.1891,-2.1087,-2.0365,-1.9637,-1.9104,-1.8535,-1.79,-1.7153,-1.6777,-1.6588,-1.6616,-1.6834,-1.6899,-1.5663,-1.5511,-1.5294,-1.5151,-1.5087,-1.5212,-1.5359,-1.5409,-1.5438,-1.5257,-1.509,-1.4992,-1.4741,-1.4489,-1.4405,-1.4237,-1.4082,-1.3997,-1.3913,-1.3911,-1.3835,-1.3732,-1.3543,-1.3419,-1.3006,-1.2662,-1.1688,-1.0904,-1.0511,-1.0216,-1.0019,-0.9821,-0.9723,-0.9723,-0.9624,-0.9624,-0.992,-1.0413,-1.0413,-1.0806,-1.1492,-1.1785,-1.2078,-1.2467,-1.2953,-1.3244,-1.3534,-1.3835,-1.4112,-1.4208,-1.4196,-1.3872,-1.3564,-1.3328,-1.307,-1.2803,-1.2686,-1.2897,-1.3271,-1.3613,-1.4123,-1.453,-1.4771,-1.4854,-1.4651,-1.5184,-1.5089,-1.4555,-1.4172,-1.3307,-1.2349,-1.1287,-1.0609,-1.0117,-1.0019,-0.992,-1.0413,-1.1198,-1.2078,-1.2856,-1.3823,-1.4771,-1.5534,-1.6305,-1.7059,-1.7807,-1.855,-1.9196,-1.9745,-2.0382,-2.0727,-2.1266,-2.1909,-2.2353,-2.2441,-2.2706,-2.3057,-2.3057,-2.2882,-2.2618,-2.2353,-2.182,-2.1177,-2.0546,-2.0002,-1.9379,-1.8735,-1.8365,-1.7714,-1.7073,-1.6791,-1.6602,-1.6739,-1.7094,-1.745,-1.5522,-1.5111,-1.4941,-1.4973,-1.5083,-1.5218,-1.5331,-1.5418,-1.5409,-1.534,-1.5173,-1.4908,-1.4741,-1.4573,-1.4321,-1.425,-1.4082,-1.4082,-1.4097,-1.4239,-1.4219,-1.4185,-1.4084,-1.3909,-1.3403,-1.2759,-1.1883,-1.1394,-1.11,-1.0708,-1.0413,-1.0117,-1.0019,-0.992,-0.9723,-0.9723,-1.0019,-1.0413,-1.0609,-1.0806,-1.1198,-1.1688,-1.2078,-1.2565,-1.305,-1.3448,-1.363,-1.3919,-1.4208,-1.4208,-1.4016,-1.3811,-1.3511,-1.3284,-1.2898,-1.2651,-1.2544,-1.2673,-1.2823,-1.3091,-1.3392,-1.3619,-1.3715,-1.3715,-1.3619,-1.3318,-1.3221,-1.292,-1.2533,-1.2047,-1.1091,-1.0413,-0.9723,-0.9327,-0.9327,-0.9525,-1.0314,-1.11,-1.1883,-1.2662,-1.363,-1.458,-1.5439,-1.6211,-1.6871,-1.7621,-1.8288,-1.8936,-1.9579,-2.0382,-2.0907,-2.1356,-2.1909,-2.2176,-2.2353,-2.2706,-2.3144,-2.2969,-2.2794,-2.2353,-2.182,-2.1463,-2.0907,-2.0292,-1.9654,-1.9288,-1.8751,-1.8381,-1.7729,-1.729,-1.7073,-1.7102,-1.7436,-1.7823,-1.8464,-1.5363,-1.4737,-1.4941,-1.4953,-1.4836,-1.526,-1.5549,-1.5559,-1.5636,-1.5575,-1.5492,-1.5159,-1.4908,-1.4727,-1.4475,-1.4321,-1.4237,-1.4179,-1.4356,-1.4487,-1.4462,-1.4444,-1.4383,-1.416,-1.3619,-1.2953,-1.2273,-1.1883,-1.1492,-1.1198,-1.0806,-1.0413,-1.0314,-1.0314,-1.0314,-1.0314,-1.0314,-1.0609,-1.0708,-1.0904,-1.1189,-1.1688,-1.198,-1.237,-1.2759,-1.3147,-1.3534,-1.3823,-1.4016,-1.4112,-1.4016,-1.3738,-1.3437,-1.3147,-1.2759,-1.2467,-1.2467,-1.2273,-1.237,-1.2554,-1.2748,-1.2845,-1.2845,-1.2748,-1.2457,-1.1873,-1.1678,-1.1277,-1.0886,-1.0592,-0.9912,-0.9624,-0.9137,-0.8832,-0.8733,-0.9525,-1.0306,-1.0993,-1.1785,-1.2759,-1.3727,-1.4675,-1.5642,-1.6305,-1.6965,-1.7714,-1.8458,-1.9012,-1.9579,-2.0382,-2.1087,-2.1535,-2.1998,-2.2176,-2.2441,-2.2794,-2.3057,-2.2969,-2.2706,-2.2264,-2.1731,-2.1266,-2.0727,-2.0292,-1.9928,-1.9563,-1.9028,-1.8613,-1.8272,-1.7912,-1.7665,-1.7695,-1.8187,-1.8716,-1.9414]},{"header":{"parameterUnit":"m.s-1","parameterCategory":1,"la1":31.0,"la2":29.5877,"lo1":-88.7671,"lo2":-86.6584,"dy":0.0162,"dx":0.0185,"nx":115,"ny":88,"refTime":"2023-07-23T00:00:00:Z","depth":0,"parameterNumber":3,"parameterNumberName":"V-component_of_WINDS"},"data":[0.0,0.0,0.0,0.0,0.0,0.0,0.0,0.0,0.0,0.0,0.0,0.0,0.0,0.0,0.0,0.0,0.0,0.0,0.0,0.0,0.0,0.0,0.0,0.0,0.0,0.0,0.0,0.0,0.0,0.0,0.0,0.0,0.0,0.0,0.0,0.0,0.0,0.0,0.0,0.0,0.0,0.0,0.0,0.0,0.0,0.0,0.0,0.0,0.0,0.0,0.0,0.0,0.0,0.0,0.0,0.0,0.0,0.0,0.0,0.0,0.0,0.0,0.0,0.0,0.0,0.0,0.0,0.0,0.0,0.0,0.0,0.0,0.0,0.0,0.0,0.0,0.0,0.0,0.0,0.0,0.0,0.0,0.0,0.0,0.0,0.0,0.0,0.0,0.0,0.0,0.0,0.0,0.0,0.0,0.0,0.0,0.0,0.0,0.0,0.0,0.0,0.0,0.0,0.0,0.0,0.0,0.0,0.0,0.0,0.0,0.0,0.0,0.0,0.0,0.0,0.0,0.0,0.0,0.0,0.0,0.0,0.0,0.0,0.0,0.0,0.0,0.0,0.0,0.0,0.0,0.0,0.0,0.0,0.0,0.0,0.0,0.0,0.0,0.0,0.0,0.0,0.0,0.0,0.0,0.0,0.0,0.0,0.0,0.0,0.0,0.0,0.0,0.0,0.0,0.0,0.0,0.0,0.0,0.0,0.0,0.0,0.0,0.0,0.0,0.0,0.0,0.0,0.0,0.0,0.0,0.0,0.0,0.0,0.0,0.0,0.0,0.0,0.0,0.0,0.0,0.0,0.0,0.0,0.0,0.0,0.0,0.0,0.0,0.0,0.0,0.0,0.0,0.0,0.0,0.0,0.0,0.0,0.0,0.0,0.0,0.0,0.0,0.0,0.0,0.0,0.0,0.0,0.0,0.0,0.0,0.0,0.0,0.0,0.0,0.0,0.0,0.0,0.0,0.0,0.0,0.0,0.0,0.0,0.0,0.0,0.0,0.0,0.0,0.0,0.0,0.0,0.0,0.0,0.0,0.0,0.0,0.0,0.0,0.0,0.0,0.0,0.0,0.0,0.0,0.0,0.0,0.0,0.0,0.0,0.0,0.0,0.0,0.0,0.0,0.0,0.0,0.0,0.0,0.0,0.0,0.0,0.0,0.0,0.0,0.0,0.0,0.0,0.0,0.0,0.0,0.0,0.0,0.0,0.0,0.0,0.0,0.0,0.0,0.0,0.0,0.0,0.0,0.0,0.0,0.0,0.0,0.0,0.0,0.0,0.0,0.0,0.0,0.0,0.0,0.0,0.0,0.0,0.0,0.0,0.0,0.0,0.0,0.0,0.0,0.0,0.0,0.0,0.0,0.0,0.0,0.0,0.0,0.0,0.0,0.0,0.0,0.0,0.0,0.0,0.0,0.0,0.0,0.0,0.0,0.0,0.0,0.0,0.0,0.0,0.0,0.0,0.0,0.0,0.0,0.0,0.0,0.0,0.0,0.0,0.0,0.0,0.0,0.0,0.0,0.0,0.0,0.0,0.0,0.0,0.0,0.0,0.0,0.0,0.0,0.0,0.0,0.0,0.0,0.0,0.0,0.0,0.0,0.0,0.0,0.0,0.0,0.0,0.0,0.0,0.0,0.0,0.0,0.0,0.0,0.0,0.0,0.0,0.0,0.0,0.0,0.0,0.0,0.0,0.0,0.0,0.0,0.0,0.0,0.0,0.0,0.0,0.0,0.0,0.0,0.0,0.0,0.0,0.0,0.0,0.0,0.0,0.0,0.0,0.0,0.0,0.0,0.0,0.0,0.0,0.0,0.0,0.0,0.0,0.0,0.0,0.0,0.0,0.0,0.0,0.0,0.0,0.0,0.0,0.0,0.0,0.0,0.0,0.0,0.0,0.0,0.0,0.0,0.0,0.0,0.0,0.0,0.0,0.0,0.0,0.0,0.0,0.0,0.0,0.0,0.0,0.0,0.0,0.0,0.0,0.0,0.0,0.0,0.0,0.0,0.0,0.0,0.0,0.0,0.0,0.0,0.0,0.0,0.0,0.0,0.0,0.0,0.0,0.0,0.0,0.0,0.0,0.0,0.0,0.0,0.0,0.0,0.0,0.0,0.0,0.0,0.0,0.0,0.0,0.0,0.0,0.0,0.0,0.0,0.0,0.0,0.0,0.0,0.0,0.0,0.0,0.0,0.0,0.0,0.0,0.0,0.0,0.0,0.0,0.0,0.0,0.0,0.0,0.0,0.0,0.0,0.0,0.0,0.0,0.0,0.0,0.0,0.0,0.0,0.0,0.0,0.0,0.0,0.0,0.0,0.0,0.0,0.0,0.0,0.0,0.0,0.0,0.0,0.0,0.0,0.0,0.0,0.0,0.0,0.0,0.0,0.0,0.0,0.0,0.0,0.0,0.0,0.0,0.0,0.0,0.0,0.0,0.0,0.0,0.0,0.0,0.0,0.0,0.0,0.0,0.0,0.0,0.0,0.0,0.0,0.0,0.0,0.0,0.0,0.0,0.0,0.0,0.0,0.0,0.0,0.0,0.0,0.0,0.0,0.0,0.0,0.0,0.0,0.0,0.0,0.0,0.0,0.0,0.0,0.0,0.0,0.0,0.0,0.0,0.0,0.0,0.0,0.0,0.0,0.0,0.0,0.0,0.0,0.0,0.0,0.0,0.0,0.0,0.0,0.0,0.0,0.0,0.0,0.0,0.0,0.0,0.0,0.0,0.0,0.0,0.0,0.0,0.0,0.0,0.0,0.0,0.0,0.0,0.0,0.0,0.0,0.0,0.0,0.0,0.0,0.0,0.0,0.0,0.0,0.0,0.0,0.0,0.0,0.0,0.0,0.0,0.0,0.0,0.0,0.0,0.0,0.0,0.0,0.0,0.0,0.0,0.0,0.0,0.0,0.0,0.0,0.0,0.0,0.0,0.0,0.0,0.0,0.0,0.0,0.0,0.0,0.0,0.0,0.0,0.0,0.0,0.0,0.0,0.0,0.0,0.0,0.0,0.0,0.0,0.0,0.0,0.0,0.0,0.0,0.0,0.0,0.0,0.0,0.0,0.0,0.0,0.0,0.0,0.0,0.0,0.0,0.0,0.0,0.0,0.0,0.0,0.0,0.0,0.0,0.0,0.0,0.0,0.0,0.0,0.0,0.0,0.0,0.0,0.0,0.0,0.0,0.0,0.0,0.0,0.0,0.0,0.0,0.0,0.0,0.0,0.0,0.0,0.0,0.0,0.0,0.0,0.0,0.0,0.0,0.0,0.0,0.0,0.0,0.0,0.0,0.0,0.0,0.0,0.0,0.0,0.0,0.0,0.0,0.0,0.0,0.0,0.0,0.0,0.0,0.0,0.0,0.0,0.0,0.0,0.0,0.0,0.0,0.0,0.0,0.0,0.0,0.0,0.0,0.0,0.0,0.0,0.0,0.0,0.0,0.0,0.0,0.0,0.0,0.0,0.0,0.0,0.0,0.0,0.0,0.0,0.0,0.0,0.0,0.0,0.0,0.0,0.0,0.0,0.0,0.0,0.0,0.0,0.0,0.0,0.0,0.0,0.0,0.0,0.0,0.0,0.0,0.0,0.0,0.0,0.0,0.0,0.0,0.0,0.0,0.0,0.0,0.0,0.0,0.0,0.0,0.0,0.0,0.0,0.0,0.0,0.0,0.0,0.0,0.0,0.0,0.0,0.0,0.0,0.0,0.0,0.0,0.0,0.0,0.0,0.0,0.0,0.0,0.0,0.0,0.0,0.0,0.0,0.0,0.0,0.0,0.0,0.0,0.0,0.0,0.0,0.0,0.0,0.0,0.0,0.0,0.0,0.0,0.0,0.0,0.0,0.0,0.0,0.0,0.0,0.0,0.0,0.0,0.0,0.0,0.0,0.0,0.0,0.0,0.0,0.0,0.0,0.0,0.0,0.0,0.0,0.0,0.0,0.0,0.0,0.0,0.0,0.0,0.0,0.0,0.0,0.0,0.0,0.0,0.0,0.0,0.0,0.0,0.0,0.0,0.0,0.0,0.0,0.0,0.0,0.0,0.0,0.0,0.0,0.0,0.0,0.0,0.0,0.0,0.0,0.0,0.0,0.0,0.0,0.0,0.0,0.0,0.0,0.0,0.0,0.0,0.0,0.0,0.0,0.0,0.0,0.0,0.0,0.0,0.0,0.0,0.0,0.0,0.0,0.0,0.0,0.0,0.0,0.0,0.0,0.0,0.0,0.0,0.0,0.0,0.0,0.0,0.0,0.0,0.0,0.0,0.0,0.0,-0.0476,0.0,0.0,0.0,0.0,0.0,0.0,0.0,0.0,0.0,0.0,0.0,0.0,0.0,0.0,0.0,0.0,0.0,0.0,0.0,0.0,0.0,0.0,0.0,0.0,0.0,0.0,0.0,0.0,0.0,0.0,0.0,0.0,0.0,0.0,0.0,0.0,0.0,0.0,0.0,0.0,0.0,0.0,0.0,0.0,0.0,0.0,0.0,0.0,0.0,0.0,0.0,0.0,0.0,0.0,0.0,0.0,0.0,0.0,0.0,0.0,0.0,0.0,0.0,0.0,0.0,0.0,0.0,0.0,0.0,0.0,0.0,0.0,0.0,0.0,0.0,0.0,0.0,0.0,0.0,0.0,0.0,0.0,0.0,0.0,0.0,0.0,0.0,0.0,0.0,0.0,0.0,0.0,0.0,0.0,0.0,0.0,0.0,0.0,0.0,0.0,0.0,0.0,0.0,0.0,0.0,0.0,0.0,0.0,0.0,0.0,-0.0393,-0.0336,-0.0505,-0.0773,-0.1065,0.0,0.0,0.0,0.0,0.0,0.0,0.0,0.0,0.0,0.0,0.0,0.0,0.0,0.0,0.0,0.0,0.0,0.0,0.0,0.0,0.0,0.0,0.0,0.0,0.0,0.0,0.0,0.0,0.0,0.0,0.0,0.0,0.0,0.0,0.0,0.0,0.0,0.0,0.0,0.0,0.0,0.0,0.0,0.0,0.0,0.0,0.0,0.0,0.0,0.0,0.0,0.0,0.0,0.0,0.0,0.0,0.0,0.0,0.0,0.0,0.0,0.0,0.0,0.0,0.0,0.0,0.0,0.0,0.0,0.0,0.0,0.0,0.0,0.0,0.0,0.0,0.0,0.0,0.0,0.0,0.0,0.0,0.0,0.0,0.0,0.0,0.0,0.0,0.0,0.0,0.0,0.0,0.0,0.0,0.0,0.0,0.0,0.0,0.0,0.0,0.0,0.0,0.0,0.0,0.0,0.0,0.0,0.0,0.0,0.0,0.0,0.0,-0.1179,-0.1371,-0.1722,0.0,0.0,0.0,0.0,0.0,0.0,0.0,0.0,0.0,0.0,0.0,0.0,0.0,0.0,0.0,0.0,0.0,0.0,0.0,0.0,0.0,0.0,0.0,0.0,0.0,0.0,0.0,0.0,0.0,0.0,0.0,0.0,0.0,0.0,0.0,0.0,0.0,0.0,0.0,0.0,0.0,0.0,0.0,0.0,0.0,0.0,0.0,0.0,0.0,0.0,0.0,0.0,0.0,0.0,0.0,0.0,0.0,0.0,0.0,0.0,0.0,0.0,0.0,0.0,0.0,0.0,0.0,0.0,0.0,0.0,0.0,0.0,0.0,0.0,0.0,0.0,0.0,0.0,0.0,0.0,0.0,0.0,0.0,0.0,0.0,0.0,0.0,0.0,0.0,0.0,0.0,0.0,0.0,0.0,0.0,0.0,0.0,0.0,0.0,0.0,0.0,0.0,0.0,0.0,0.0,0.0,0.0,0.0,0.0,0.0,-0.1515,-0.1515,-0.1572,0.0,-0.2417,0.0,0.0,0.0,0.0,0.0,0.0,0.0,0.0,0.0,0.0,0.0,0.0,0.0,0.0,0.0,0.0,0.0,0.0,0.0,0.0,0.0,0.0,0.0,0.0,0.0,0.0,0.0,0.0,0.0,0.0,0.0,0.0,0.0,0.0,0.0,0.0,0.0,0.0,0.0,0.0,0.0,0.0,0.0,0.0,0.0,0.0,0.0,0.0,0.0,0.0,0.0,0.0,0.0,0.0,0.0,0.0,0.0,0.0,0.0,0.0,0.0,0.0,0.0,0.0,0.0,0.0,0.0,0.0,0.0,0.0,0.0,0.0,0.0,0.0,0.0,0.0,0.0,0.0,0.0,0.0,0.0,0.0,0.0,0.0,0.0,0.0,0.0,0.0,0.0,0.0,0.0,0.0,0.0,0.0,0.0,0.0,0.0,0.0,0.0,0.0,0.0,0.0,0.0,0.0,0.0,0.0,0.0,0.0,0.0,0.0,-0.2188,-0.2132,-0.2188,-0.2392,0.0,0.0,0.0,0.0,0.0,0.0,0.0,0.0,0.0,0.0,0.0,0.0,0.0,0.0,0.0,0.0,0.0,0.0,0.0,0.0,0.0,0.0,0.0,0.0,0.0,0.0,0.0,0.0,0.0,0.0,0.0,0.0,0.0,0.0,0.0,0.0,0.0,0.0,0.0,0.0,0.0,0.0,0.0,0.0,0.0,0.0,0.0,0.0,0.0,0.0,0.0,0.0,0.0,0.0,0.0,0.0,0.0,0.0,0.0,0.0,0.0,0.0,0.0,0.0,0.0,0.0,0.0,0.0,0.0,0.0,0.0,0.0,0.0,0.0,0.0,0.0,0.0,0.0,0.0,0.0,0.0,0.0,0.0,0.0,0.0,0.0,0.0,0.0,0.0,0.0,0.0,0.0,0.0,0.0,0.0,0.0,0.0,0.0,0.0,0.0,0.0,0.0,0.0,0.0,0.0,0.0,0.0,0.0,0.0,0.0,-0.3021,-0.2687,-0.2408,-0.2631,-0.2798,-0.2885,0.0,0.0,0.0,0.0,0.0,0.0,0.0,0.0,0.0,0.0,0.0,0.0,0.0,0.0,0.0,0.0,0.0,0.0,0.0,0.0,0.0,0.0,0.0,0.0,0.0,0.0,0.0,0.0,0.0,0.0,0.0,0.0,0.0,0.0,0.0,0.0,0.0,0.0,0.0,0.0,0.0,0.0,0.0,0.0,0.0,0.0,0.0,0.0,0.0,0.0,0.0,0.0,0.0,0.0,0.0,0.0,0.0,0.0,0.0,0.0,0.0,0.0,0.0,0.0,0.0,0.0,0.0,0.0,0.0,0.0,0.0,0.0,0.0,0.0,0.0,0.0,0.0,0.0,0.0,0.0,0.0,0.0,0.0,0.0,0.0,0.0,0.0,0.0,0.0,0.0,0.0,0.0,0.0,0.0,0.0,0.0,0.0,0.0,0.0,0.0,0.0,0.0,0.0,0.0,0.0,0.0,0.0,0.0,-0.3965,-0.3411,-0.2742,-0.2073,-0.2571,-0.2916,0.0,0.0,0.0,0.0,0.0,0.0,0.0,0.0,0.0,0.0,0.0,0.0,0.0,0.0,0.0,0.0,0.0,0.0,0.0,0.0,0.0,0.0,0.0,0.0,0.0,0.0,0.0,0.0,0.0,0.0,0.0,0.0,0.0,0.0,0.0,0.0,0.0,0.0,0.0,0.0,0.0,0.0,0.0,0.0,0.0,0.0,0.0,0.0,0.0,0.0,0.0,0.0,0.0,0.0,0.0,0.0,0.0,0.0,0.0,0.0,0.0,0.0,0.0,0.0,0.0,0.0,0.0,0.0,0.0,0.0,0.0,0.0,0.0,0.0,0.0,0.0,0.0,0.0,0.0,0.0,0.0,0.0,0.0,0.0,0.0,0.0,0.0,0.0,0.0,0.0,0.0,0.0,0.0,0.0,0.0,0.0,0.0,0.0,0.0,0.0,0.0,0.0,0.0,0.0,0.0,0.0,0.0,0.0,0.0,-0.4739,-0.3799,-0.2965,-0.2352,-0.2794,-0.3003,0.0,0.0,0.0,0.0,0.0,0.0,0.0,0.0,0.0,0.0,0.0,0.0,0.0,0.0,0.0,0.0,0.0,0.0,0.0,0.0,0.0,0.0,0.0,0.0,0.0,0.0,0.0,0.0,0.0,0.0,0.0,0.0,0.0,0.0,0.0,0.0,0.0,0.0,0.0,0.0,0.0,0.0,0.0,0.0,0.0,0.0,0.0,0.0,0.0,0.0,0.0,0.0,0.0,0.0,0.0,0.0,0.0,0.0,0.0,0.0,0.0,0.0,0.0,0.0,0.0,0.0,0.0,0.0,0.0,0.0,0.0,0.0,0.0,0.0,0.0,0.0,0.0,0.0,0.0,0.0,0.0,0.0,0.0,0.0,0.0,0.0,0.0,0.0,0.0,0.0,0.0,0.0,0.0,0.0,0.0,0.0,0.0,0.0,0.0,0.0,0.0,0.0,0.0,0.0,0.0,0.0,0.0,0.0,0.0,-0.4842,0.0,-0.3137,-0.2519,-0.291,-0.3132,0.0,0.0,0.0,0.0,0.0,0.0,0.0,0.0,0.0,0.0,0.0,0.0,0.0,0.0,0.0,0.0,0.0,0.0,0.0,0.0,0.0,0.0,0.0,0.0,0.0,0.0,0.0,0.0,0.0,0.0,0.0,0.0,0.0,0.0,0.0,0.0,0.0,0.0,0.0,0.0,0.0,0.0,0.0,0.0,0.0,0.0,0.0,0.0,0.0,0.0,0.0,0.0,0.0,0.0,0.0,0.0,0.0,0.0,0.0,0.0,0.0,0.0,0.0,0.0,0.0,0.0,0.0,0.0,0.0,0.0,0.0,0.0,0.0,0.0,0.0,0.0,0.0,0.0,0.0,0.0,0.0,0.0,0.0,0.0,0.0,0.0,0.0,0.0,0.0,0.0,0.0,0.0,0.0,0.0,0.0,0.0,0.0,0.0,0.0,0.0,0.0,0.0,0.0,0.0,0.0,0.0,0.0,0.0,-0.6253,-0.4284,-0.3688,-0.3137,-0.2519,-0.291,-0.3077,0.0,0.0,0.0,0.0,0.0,0.0,0.0,0.0,0.0,0.0,0.0,0.0,0.0,0.0,0.0,0.0,0.0,0.0,0.0,0.0,0.0,0.0,0.0,0.0,0.0,0.0,0.0,0.0,0.0,0.0,0.0,0.0,0.0,0.0,0.0,0.0,0.0,0.0,0.0,0.0,0.0,0.0,0.0,0.0,0.0,0.0,0.0,0.0,0.0,0.0,0.0,0.0,0.0,0.0,0.0,0.0,0.0,0.0,0.0,0.0,0.0,0.0,0.0,0.0,0.0,0.0,0.0,0.0,0.0,0.0,0.0,0.0,0.0,0.0,0.0,0.0,0.0,0.0,0.0,0.0,0.0,0.0,0.0,0.0,0.0,0.0,0.0,0.0,0.0,0.0,0.0,0.0,0.0,0.0,0.0,0.0,0.0,0.0,0.0,0.0,0.0,0.0,0.0,0.0,0.0,0.0,0.0,0.0,0.0,-0.4229,-0.3688,-0.3132,-0.2691,-0.2854,-0.3077,0.0,0.0,0.0,0.0,0.0,0.0,0.0,0.0,0.0,0.0,0.0,0.0,0.0,0.0,0.0,0.0,0.0,0.0,0.0,0.0,0.0,0.0,0.0,0.0,0.0,0.0,0.0,0.0,0.0,0.0,0.0,0.0,0.0,0.0,0.0,0.0,0.0,0.0,0.0,0.0,0.0,0.0,0.0,0.0,0.0,0.0,0.0,0.0,0.0,0.0,0.0,0.0,0.0,0.0,0.0,0.0,0.0,0.0,0.0,0.0,0.0,0.0,0.0,0.0,0.0,0.0,0.0,0.0,0.0,0.0,0.0,0.0,0.0,0.0,0.0,0.0,0.0,0.0,0.0,0.0,0.0,0.0,0.0,0.0,0.0,0.0,0.0,0.0,0.0,0.0,0.0,0.0,0.0,0.0,0.0,0.0,0.0,0.0,0.0,0.0,0.0,0.0,0.0,0.0,0.0,0.0,0.0,0.0,0.0,-0.4015,-0.3516,-0.3132,-0.2802,-0.291,-0.3183,-0.3516,0.0,0.0,0.0,0.0,0.0,0.0,0.0,0.0,0.0,0.0,0.0,0.0,0.0,0.0,0.0,0.0,0.0,0.0,0.0,0.0,0.0,0.0,0.0,0.0,0.0,0.0,0.0,0.0,0.0,0.0,0.0,0.0,0.0,0.0,0.0,0.0,0.0,0.0,0.0,0.0,0.0,0.0,0.0,0.0,0.0,0.0,0.0,0.0,0.0,0.0,0.0,0.0,0.0,0.0,0.0,0.0,0.0,0.0,0.0,0.0,0.0,0.0,0.0,0.0,0.0,0.0,0.0,0.0,0.0,0.0,0.0,0.0,0.0,0.0,0.0,0.0,0.0,0.0,0.0,0.0,0.0,0.0,0.0,0.0,0.0,0.0,0.0,0.0,0.0,0.0,0.0,0.0,0.0,0.0,0.0,0.0,0.0,0.0,0.0,0.0,0.0,0.0,0.0,0.0,0.0,0.0,0.0,0.0,-0.3627,-0.3294,-0.3021,-0.2905,-0.3021,-0.3355,0.0,0.0,0.0,0.0,0.0,0.0,0.0,0.0,0.0,0.0,0.0,0.0,0.0,0.0,0.0,0.0,0.0,0.0,0.0,0.0,0.0,0.0,0.0,0.0,0.0,0.0,0.0,0.0,0.0,0.0,0.0,0.0,0.0,0.0,0.0,0.0,0.0,0.0,0.0,0.0,0.0,0.0,0.0,0.0,0.0,0.0,0.0,0.0,0.0,0.0,0.0,0.0,0.0,0.0,0.0,0.0,0.0,0.0,0.0,0.0,0.0,0.0,0.0,0.0,0.0,0.0,0.0,0.0,0.0,0.0,0.0,0.0,0.0,0.0,0.0,0.0,0.0,0.0,0.0,0.0,0.0,0.0,0.0,0.0,0.0,0.0,0.0,0.0,0.0,0.0,0.0,0.0,0.0,0.0,0.0,0.0,0.0,0.0,0.0,0.0,0.0,0.0,0.0,0.0,0.0,0.0,0.0,0.0,0.0,-0.3738,-0.3239,-0.2961,-0.2905,-0.3188,-0.3577,0.0,0.0,0.0,0.0,0.0,0.0,0.0,0.0,0.0,0.0,0.0,0.0,0.0,0.0,0.0,0.0,0.0,0.0,0.0,0.0,0.0,0.0,0.0,0.0,0.0,0.0,0.0,0.0,0.0,0.0,0.0,0.0,0.0,0.0,0.0,0.0,0.0,0.0,0.0,0.0,0.0,0.0,0.0,0.0,0.0,0.0,0.0,0.0,0.0,0.0,0.0,0.0,0.0,0.0,0.0,0.0,0.0,0.0,0.0,0.0,0.0,0.0,0.0,0.0,0.0,0.0,0.0,0.0,0.0,0.0,0.0,0.0,0.0,0.0,0.0,0.0,0.0,0.0,0.0,0.0,0.0,0.0,0.0,0.0,0.0,0.0,0.0,0.0,0.0,0.0,0.0,0.0,0.0,0.0,0.0,0.0,0.0,0.0,0.0,0.0,0.0,0.0,0.0,0.0,0.0,0.0,0.0,0.0,-0.3904,-0.3522,-0.3294,-0.3239,-0.335,-0.3577,-0.391,0.0,0.0,0.0,0.0,0.0,0.0,0.0,0.0,0.0,0.0,0.0,0.0,0.0,0.0,0.0,0.0,0.0,0.0,0.0,0.0,0.0,0.0,0.0,0.0,0.0,0.0,0.0,0.0,0.0,0.0,0.0,0.0,0.0,0.0,0.0,0.0,0.0,0.0,0.0,0.0,0.0,0.0,0.0,0.0,0.0,0.0,0.0,0.0,0.0,0.0,0.0,0.0,0.0,0.0,0.0,0.0,0.0,0.0,0.0,0.0,0.0,0.0,0.0,0.0,0.0,0.0,0.0,0.0,0.0,0.0,0.0,0.0,0.0,0.0,0.0,0.0,0.0,0.0,0.0,0.0,0.0,0.0,0.0,0.0,0.0,0.0,0.0,0.0,0.0,0.0,0.0,0.0,0.0,0.0,0.0,0.0,0.0,0.0,0.0,0.0,0.0,0.0,0.0,0.0,0.0,0.0,0.0,0.0,-0.3688,-0.3183,-0.3461,-0.3849,-0.4187,-0.4132,-0.4353,0.0,0.0,0.0,0.0,0.0,0.0,0.0,0.0,0.0,0.0,0.0,0.0,0.0,0.0,0.0,0.0,0.0,0.0,0.0,0.0,0.0,0.0,0.0,0.0,0.0,0.0,0.0,0.0,0.0,0.0,0.0,0.0,0.0,0.0,0.0,0.0,0.0,0.0,0.0,0.0,0.0,0.0,0.0,0.0,0.0,0.0,0.0,0.0,0.0,0.0,0.0,0.0,0.0,0.0,0.0,0.0,0.0,0.0,0.0,0.0,0.0,0.0,0.0,0.0,0.0,0.0,0.0,0.0,0.0,0.0,0.0,0.0,0.0,0.0,0.0,0.0,0.0,0.0,0.0,0.0,0.0,0.0,0.0,0.0,0.0,0.0,0.0,0.0,0.0,0.0,0.0,0.0,0.0,0.0,0.0,0.0,0.0,0.0,0.0,0.0,0.0,0.0,0.0,0.0,0.0,0.0,0.0,0.0,-0.335,-0.3516,-0.3788,-0.4395,-0.5391,-0.5069,-0.5014,0.0,0.0,0.0,0.0,0.0,0.0,0.0,0.0,0.0,0.0,0.0,0.0,0.0,0.0,0.0,0.0,0.0,0.0,0.0,0.0,0.0,0.0,0.0,0.0,0.0,0.0,0.0,0.0,0.0,0.0,0.0,0.0,0.0,0.0,0.0,0.0,0.0,0.0,0.0,0.0,0.0,0.0,0.0,0.0,0.0,0.0,0.0,0.0,-2.8552,0.0,0.0,0.0,0.0,0.0,0.0,0.0,0.0,0.0,0.0,0.0,0.0,0.0,0.0,0.0,0.0,0.0,0.0,0.0,0.0,0.0,0.0,0.0,0.0,0.0,0.0,0.0,0.0,0.0,0.0,0.0,0.0,0.0,0.0,0.0,0.0,0.0,0.0,0.0,0.0,0.0,0.0,0.0,0.0,0.0,0.0,0.0,0.0,0.0,0.0,0.0,0.0,0.0,0.0,0.0,0.0,0.0,0.0,0.0,-0.3627,-0.3892,-0.4546,-0.5475,-0.6514,-0.6676,-0.6578,0.0,0.0,0.0,0.0,0.0,0.0,0.0,0.0,0.0,0.0,0.0,0.0,0.0,0.0,0.0,0.0,0.0,0.0,0.0,0.0,0.0,0.0,0.0,0.0,0.0,0.0,0.0,0.0,0.0,0.0,0.0,0.0,0.0,0.0,0.0,0.0,0.0,0.0,0.0,0.0,0.0,0.0,0.0,0.0,0.0,0.0,0.0,0.0,0.0,0.0,0.0,0.0,0.0,0.0,0.0,0.0,0.0,0.0,0.0,0.0,0.0,0.0,0.0,0.0,0.0,0.0,0.0,0.0,0.0,0.0,0.0,0.0,0.0,0.0,0.0,0.0,0.0,0.0,0.0,0.0,0.0,0.0,0.0,0.0,0.0,0.0,0.0,0.0,0.0,0.0,0.0,0.0,0.0,0.0,0.0,0.0,0.0,0.0,0.0,0.0,0.0,0.0,0.0,0.0,0.0,0.0,0.0,-0.407,-0.4229,-0.4648,-0.5783,-0.686,-0.7923,-0.8567,-0.8462,-0.7629,0.0,0.0,0.0,0.0,0.0,0.0,0.0,0.0,0.0,0.0,0.0,0.0,0.0,0.0,0.0,0.0,0.0,0.0,0.0,0.0,0.0,0.0,0.0,0.0,0.0,0.0,0.0,0.0,0.0,0.0,0.0,0.0,0.0,0.0,0.0,0.0,0.0,0.0,-2.3483,-2.539,0.0,0.0,0.0,0.0,0.0,0.0,0.0,0.0,-2.9228,0.0,0.0,0.0,0.0,0.0,0.0,0.0,0.0,0.0,0.0,0.0,0.0,0.0,0.0,0.0,0.0,0.0,0.0,0.0,0.0,0.0,0.0,0.0,0.0,0.0,0.0,0.0,0.0,0.0,0.0,0.0,0.0,0.0,0.0,0.0,0.0,0.0,0.0,0.0,0.0,0.0,0.0,0.0,0.0,0.0,0.0,0.0,0.0,0.0,0.0,0.0,0.0,0.0,0.0,0.0,0.0,-0.4333,-0.4326,-0.507,-0.6518,-0.7571,-0.8671,-0.9819,-1.046,-1.0713,-1.0612,0.0,0.0,0.0,0.0,0.0,0.0,0.0,0.0,0.0,0.0,0.0,0.0,0.0,0.0,0.0,0.0,0.0,0.0,0.0,0.0,0.0,0.0,0.0,0.0,0.0,0.0,0.0,0.0,0.0,0.0,0.0,0.0,0.0,0.0,0.0,0.0,0.0,0.0,0.0,-2.6418,-2.7454,0.0,0.0,0.0,0.0,0.0,0.0,0.0,0.0,-2.9052,0.0,0.0,0.0,0.0,0.0,0.0,0.0,0.0,0.0,0.0,0.0,0.0,0.0,0.0,0.0,0.0,0.0,0.0,0.0,0.0,0.0,0.0,0.0,0.0,0.0,0.0,0.0,0.0,0.0,0.0,0.0,0.0,0.0,0.0,0.0,0.0,0.0,0.0,0.0,0.0,0.0,0.0,0.0,0.0,0.0,0.0,0.0,0.0,0.0,0.0,0.0,0.0,0.0,0.0,0.0,-0.6541,-0.6881,-0.7605,-0.8642,-0.9965,-1.1094,-1.1962,-1.2589,-1.2962,0.0,0.0,0.0,0.0,0.0,0.0,0.0,0.0,0.0,0.0,0.0,0.0,0.0,0.0,0.0,0.0,0.0,0.0,0.0,0.0,0.0,0.0,0.0,0.0,0.0,0.0,0.0,0.0,0.0,0.0,0.0,0.0,0.0,0.0,0.0,0.0,0.0,0.0,0.0,0.0,-2.7093,-2.7996,-2.9458,0.0,0.0,0.0,0.0,0.0,0.0,-2.9312,-2.9097,0.0,0.0,0.0,0.0,0.0,0.0,0.0,0.0,0.0,0.0,0.0,0.0,0.0,0.0,0.0,0.0,0.0,0.0,0.0,0.0,0.0,0.0,0.0,0.0,0.0,0.0,0.0,0.0,0.0,0.0,0.0,0.0,0.0,0.0,0.0,0.0,0.0,0.0,0.0,0.0,0.0,0.0,0.0,0.0,0.0,0.0,0.0,0.0,0.0,0.0,0.0,0.0,0.0,0.0,0.0,-0.9184,-0.9838,-1.0532,-1.12,-1.2594,-1.3655,-1.4315,-1.4832,-1.5054,0.0,0.0,0.0,0.0,0.0,0.0,0.0,0.0,0.0,0.0,0.0,0.0,0.0,0.0,0.0,0.0,0.0,0.0,0.0,0.0,0.0,0.0,0.0,0.0,0.0,0.0,0.0,0.0,0.0,0.0,0.0,0.0,0.0,0.0,0.0,0.0,0.0,0.0,0.0,0.0,0.0,-2.8501,-2.9568,-2.9735,0.0,0.0,0.0,0.0,-2.9511,-2.9312,0.0,0.0,0.0,0.0,0.0,0.0,0.0,0.0,0.0,0.0,0.0,0.0,0.0,0.0,0.0,0.0,0.0,0.0,0.0,0.0,0.0,0.0,0.0,0.0,0.0,0.0,0.0,0.0,0.0,0.0,0.0,0.0,0.0,0.0,0.0,0.0,0.0,0.0,0.0,0.0,0.0,0.0,0.0,0.0,0.0,0.0,0.0,0.0,0.0,0.0,0.0,0.0,0.0,0.0,0.0,0.0,-1.1612,-1.2022,-1.2975,-1.4427,-1.5348,-1.6086,-1.6679,-1.7007,-1.7169,0.0,0.0,0.0,0.0,0.0,0.0,0.0,0.0,0.0,0.0,0.0,0.0,0.0,0.0,0.0,0.0,0.0,0.0,0.0,0.0,0.0,0.0,0.0,0.0,0.0,0.0,0.0,0.0,0.0,0.0,0.0,0.0,0.0,0.0,0.0,0.0,0.0,0.0,0.0,0.0,0.0,-2.8577,-2.9568,-2.9717,-2.9753,0.0,0.0,-2.9608,-2.9373,-2.9222,0.0,0.0,0.0,0.0,0.0,0.0,0.0,0.0,0.0,0.0,0.0,0.0,0.0,0.0,0.0,0.0,0.0,0.0,0.0,0.0,0.0,0.0,0.0,0.0,0.0,0.0,0.0,0.0,0.0,0.0,0.0,0.0,0.0,0.0,0.0,0.0,0.0,0.0,0.0,0.0,0.0,0.0,0.0,0.0,0.0,0.0,0.0,0.0,0.0,0.0,0.0,0.0,0.0,0.0,0.0,-1.6303,-1.6045,-1.6023,-1.6375,-1.7219,-1.7908,-1.8407,-1.8797,-1.9123,-1.9265,0.0,0.0,0.0,0.0,0.0,0.0,0.0,0.0,0.0,0.0,0.0,0.0,0.0,0.0,0.0,0.0,0.0,0.0,0.0,0.0,0.0,0.0,0.0,0.0,0.0,0.0,0.0,0.0,0.0,0.0,0.0,0.0,0.0,0.0,0.0,0.0,0.0,0.0,0.0,0.0,0.0,0.0,-2.9626,-2.9682,0.0,0.0,0.0,-2.9511,-2.9254,0.0,0.0,0.0,0.0,0.0,0.0,0.0,0.0,0.0,0.0,0.0,0.0,0.0,0.0,0.0,0.0,0.0,0.0,0.0,0.0,0.0,0.0,0.0,0.0,0.0,0.0,0.0,0.0,0.0,0.0,0.0,0.0,0.0,0.0,0.0,0.0,0.0,0.0,0.0,0.0,0.0,0.0,0.0,0.0,0.0,0.0,0.0,0.0,0.0,0.0,0.0,0.0,0.0,0.0,0.0,0.0,0.0,-1.9959,-1.9562,-1.9394,-1.9592,-2.0087,-2.0413,-2.0607,-2.0894,0.0,0.0,0.0,0.0,0.0,0.0,0.0,0.0,0.0,0.0,0.0,0.0,0.0,0.0,0.0,0.0,0.0,0.0,0.0,0.0,0.0,0.0,0.0,0.0,0.0,0.0,0.0,-2.3684,0.0,0.0,0.0,0.0,0.0,0.0,0.0,0.0,0.0,0.0,0.0,0.0,0.0,0.0,-2.9386,-2.9608,-2.9589,-2.9589,0.0,0.0,-2.9353,-2.9185,-2.9007,-2.8845,0.0,0.0,0.0,0.0,0.0,0.0,0.0,0.0,0.0,0.0,0.0,0.0,0.0,0.0,0.0,0.0,0.0,0.0,0.0,0.0,0.0,0.0,0.0,0.0,0.0,0.0,0.0,0.0,0.0,0.0,0.0,0.0,0.0,0.0,0.0,0.0,0.0,0.0,0.0,0.0,0.0,0.0,0.0,0.0,0.0,0.0,0.0,0.0,0.0,0.0,0.0,0.0,0.0,0.0,0.0,-2.234,-2.162,-2.1259,-2.1384,-2.1628,-2.1836,-2.195,-2.2257,-2.2367,0.0,0.0,0.0,0.0,0.0,0.0,0.0,0.0,0.0,0.0,0.0,0.0,0.0,0.0,0.0,0.0,0.0,0.0,0.0,0.0,0.0,0.0,0.0,0.0,0.0,0.0,0.0,0.0,0.0,0.0,0.0,0.0,0.0,0.0,0.0,0.0,0.0,0.0,0.0,0.0,0.0,-2.9365,-2.9511,-2.9531,-2.9531,0.0,0.0,-2.9222,-2.903,-2.8845,-2.8712,-2.8612,0.0,0.0,0.0,0.0,0.0,0.0,0.0,0.0,0.0,0.0,0.0,0.0,0.0,0.0,0.0,0.0,0.0,0.0,0.0,0.0,0.0,0.0,0.0,0.0,0.0,0.0,0.0,0.0,0.0,0.0,0.0,0.0,0.0,0.0,0.0,0.0,0.0,0.0,0.0,0.0,0.0,0.0,0.0,0.0,0.0,0.0,0.0,0.0,0.0,0.0,0.0,0.0,0.0,-2.4592,-2.4537,-2.3345,-2.2718,-2.2728,-2.2788,-2.2863,-2.3034,-2.3199,-2.3342,0.0,0.0,0.0,0.0,0.0,0.0,0.0,0.0,0.0,0.0,0.0,0.0,0.0,0.0,0.0,0.0,0.0,0.0,0.0,0.0,0.0,0.0,0.0,0.0,0.0,0.0,0.0,0.0,-2.7034,-2.733,-2.7631,0.0,0.0,0.0,0.0,0.0,0.0,0.0,0.0,0.0,0.0,-2.9265,-2.9373,-2.9411,0.0,0.0,-2.9286,-2.9112,-2.8975,-2.881,-2.8687,-2.8612,-2.8651,0.0,0.0,0.0,0.0,0.0,0.0,0.0,0.0,0.0,0.0,0.0,0.0,0.0,0.0,0.0,0.0,0.0,0.0,0.0,0.0,0.0,0.0,0.0,0.0,0.0,0.0,0.0,0.0,0.0,0.0,0.0,0.0,0.0,0.0,0.0,0.0,0.0,0.0,0.0,0.0,0.0,0.0,0.0,0.0,0.0,0.0,0.0,0.0,0.0,0.0,0.0,0.0,-2.6045,-2.5973,-2.4437,-2.361,-2.3566,-2.358,-2.3624,-2.3738,-2.3873,-2.3996,0.0,0.0,0.0,0.0,0.0,0.0,0.0,0.0,0.0,0.0,0.0,0.0,0.0,0.0,0.0,0.0,0.0,0.0,0.0,0.0,0.0,0.0,0.0,0.0,0.0,0.0,0.0,0.0,-2.7826,-2.7994,-2.8288,0.0,0.0,0.0,0.0,0.0,0.0,0.0,0.0,0.0,0.0,-2.9132,-2.8977,-2.9221,-2.9349,-2.927,-2.9178,-2.9021,-2.8881,-2.8761,-2.8662,-2.8612,0.0,0.0,0.0,0.0,0.0,0.0,0.0,0.0,0.0,0.0,0.0,0.0,0.0,0.0,0.0,0.0,0.0,0.0,0.0,0.0,0.0,0.0,0.0,0.0,0.0,0.0,0.0,0.0,0.0,0.0,-1.6683,0.0,0.0,0.0,0.0,0.0,0.0,0.0,0.0,0.0,0.0,0.0,0.0,0.0,0.0,0.0,0.0,0.0,0.0,0.0,0.0,0.0,0.0,-2.6381,-2.6366,-2.4798,-2.3955,-2.3915,-2.3955,-2.4036,-2.4097,-2.4222,-2.4357,-2.4489,0.0,0.0,0.0,0.0,0.0,0.0,0.0,0.0,0.0,0.0,0.0,0.0,0.0,0.0,0.0,0.0,0.0,0.0,0.0,0.0,0.0,0.0,0.0,0.0,0.0,0.0,-2.8474,-2.8615,-2.8724,0.0,0.0,0.0,0.0,0.0,0.0,0.0,0.0,0.0,0.0,-2.8746,-2.8989,-2.8272,-2.8886,-2.9365,-2.9222,-2.9089,-2.8952,-2.8834,-2.8687,-2.8587,0.0,0.0,0.0,0.0,0.0,0.0,0.0,0.0,0.0,0.0,0.0,0.0,0.0,0.0,0.0,0.0,0.0,0.0,0.0,0.0,0.0,0.0,0.0,0.0,0.0,0.0,0.0,-1.2663,-1.4893,0.0,0.0,0.0,0.0,0.0,0.0,0.0,0.0,0.0,0.0,0.0,-1.8109,-1.9066,0.0,0.0,0.0,0.0,0.0,0.0,0.0,0.0,0.0,0.0,0.0,0.0,-2.6618,-2.6528,-2.5019,-2.421,-2.4229,-2.4284,-2.4321,-2.4405,-2.4551,-2.4698,-2.4809,0.0,0.0,0.0,0.0,0.0,0.0,0.0,0.0,0.0,0.0,0.0,0.0,0.0,0.0,0.0,0.0,0.0,0.0,0.0,0.0,0.0,0.0,0.0,0.0,0.0,-2.8868,0.0,0.0,0.0,0.0,0.0,0.0,0.0,0.0,0.0,0.0,0.0,-2.9089,-2.8852,-2.9095,-2.9191,-2.8936,-2.918,-2.9365,0.0,0.0,0.0,0.0,0.0,0.0,0.0,0.0,0.0,0.0,0.0,0.0,0.0,0.0,-2.9021,-2.9044,-2.8915,-2.8785,-2.8858,0.0,0.0,0.0,0.0,0.0,0.0,0.0,0.0,0.0,0.0,0.0,0.0,0.0,0.0,0.0,0.0,-1.9177,0.0,0.0,0.0,0.0,0.0,0.0,0.0,0.0,-1.976,-1.9638,-1.9486,-2.0217,-2.0918,0.0,-2.2873,-2.3962,0.0,0.0,0.0,0.0,0.0,0.0,0.0,0.0,-2.668,-2.663,-2.5134,-2.4357,-2.441,-2.4462,-2.4564,-2.4654,-2.4827,-2.4966,-2.5053,-2.5685,-2.6167,0.0,0.0,0.0,0.0,0.0,0.0,0.0,0.0,0.0,0.0,0.0,0.0,0.0,0.0,0.0,0.0,0.0,0.0,0.0,0.0,0.0,0.0,0.0,-2.9228,0.0,0.0,0.0,0.0,0.0,0.0,0.0,0.0,0.0,-2.9349,-2.9286,-2.9153,-2.8836,-2.9101,-2.9233,-2.8936,0.0,0.0,0.0,0.0,0.0,0.0,0.0,-2.8651,-2.8737,-2.8737,-2.8761,-2.8834,-2.8881,-2.8929,-2.8975,0.0,0.0,-2.8952,-2.8625,-2.8348,-2.8385,-2.8106,-2.7671,-2.7019,-2.6523,-2.5938,0.0,0.0,0.0,0.0,0.0,0.0,0.0,0.0,-1.4559,-1.6786,0.0,-2.0877,0.0,0.0,0.0,0.0,0.0,-2.2836,0.0,0.0,-2.141,-2.0872,-2.0571,-2.1485,-2.1935,-2.2043,-2.2989,-2.3753,-2.437,-2.5975,0.0,0.0,0.0,0.0,0.0,0.0,-2.6618,-2.663,-2.5153,-2.4465,-2.453,-2.4645,-2.4738,-2.4827,-2.5006,-2.5126,-2.5178,-2.5244,-2.5657,-2.6376,-2.6484,0.0,0.0,0.0,0.0,0.0,0.0,0.0,0.0,0.0,0.0,0.0,0.0,0.0,0.0,0.0,0.0,0.0,0.0,0.0,0.0,-2.9454,0.0,0.0,0.0,0.0,0.0,0.0,0.0,0.0,0.0,0.0,-2.9339,-2.9394,-2.9076,-2.8292,0.0,0.0,0.0,0.0,-2.9365,-2.9222,-2.9134,-2.9044,-2.8929,-2.8724,-2.864,-2.8773,0.0,0.0,-2.8905,-2.8905,-2.8929,-2.8975,-2.8952,-2.8905,-2.8832,-2.82,-2.7643,-2.751,-2.6941,-2.6291,-2.6044,-2.541,-2.4657,-1.896,0.0,0.0,0.0,0.0,-1.302,-1.363,-1.4811,-1.6586,-1.8505,-2.0656,-2.2329,0.0,0.0,0.0,0.0,0.0,0.0,-2.2572,-2.1885,-2.1761,-2.1361,-2.0811,-2.1234,-2.147,-2.1601,-2.2636,-2.3345,-2.3778,-2.4902,-2.5981,-2.7007,0.0,0.0,0.0,0.0,-2.6381,-2.5893,-2.4967,-2.4534,-2.465,-2.4723,-2.4884,-2.5057,-2.5187,-2.4955,-2.438,-2.4995,-2.5206,-2.4876,-2.5425,0.0,0.0,0.0,0.0,0.0,0.0,0.0,0.0,0.0,0.0,0.0,0.0,0.0,0.0,0.0,0.0,0.0,0.0,0.0,-2.9589,-2.9664,-2.9719,0.0,0.0,0.0,0.0,0.0,0.0,0.0,0.0,0.0,-2.8688,-2.9176,-2.9379,0.0,0.0,-2.9299,-2.9076,-2.9241,-2.9365,-2.9265,0.0,0.0,0.0,-2.8938,-2.8915,-2.8998,-2.9012,-2.8989,-2.8952,-2.8929,-2.8929,-2.8975,-2.8952,-2.8722,-2.8137,-2.7775,-2.7318,-2.6763,-2.6331,-2.5935,-2.5278,-2.4825,-2.4311,-2.0402,-1.8644,-1.6984,-1.576,-1.4906,-1.5042,-1.5786,-1.6939,-1.8505,-2.0234,-2.2073,-2.3197,-2.4256,-2.5147,-2.5446,0.0,0.0,0.0,-2.2997,-2.2378,-2.2086,-2.1761,-2.137,-2.1432,-2.1554,-2.1738,-2.2408,-2.2907,-2.3198,-2.4136,-2.503,-2.5879,0.0,0.0,-2.705,-2.6395,-2.5919,-2.5579,-2.4908,-2.4617,-2.476,-2.4884,-2.5057,-2.5209,-2.5303,-2.5072,-2.458,-2.5134,-2.5197,-2.4749,-2.5197,-2.5444,0.0,0.0,0.0,0.0,0.0,0.0,0.0,0.0,0.0,0.0,0.0,-2.9436,-2.9474,0.0,0.0,0.0,-2.9589,-2.9458,-2.9231,-2.9267,0.0,0.0,0.0,0.0,0.0,0.0,0.0,-2.8274,-2.7774,-2.7616,-2.8067,-2.8738,-2.927,-2.9513,-2.9511,-2.9471,-2.9471,0.0,-2.9448,-2.9328,-2.9307,-2.9265,-2.9178,-2.9171,-2.9149,-2.9134,-2.9089,-2.9067,-2.903,-2.9021,-2.8998,-2.8998,-2.8952,-2.8649,-2.7821,-2.7305,-2.6739,-2.5932,-2.5407,-2.4895,-2.4349,-2.41,-2.3739,-2.2071,-2.1107,-1.9389,-1.7877,-1.6757,-1.728,-1.7993,-1.8867,-2.0381,-2.1925,-2.3353,-2.3795,-2.4463,-2.5211,-2.4936,0.0,-2.4833,-2.3899,-2.3414,-2.3265,-2.2445,-2.2084,-2.2051,-2.1998,-2.2027,-2.2136,-2.2337,-2.2535,-2.2755,-2.3667,-2.4272,-2.4551,-2.5314,-2.5877,-2.6154,-2.5607,-2.5404,-2.5505,-2.4903,-2.4692,-2.4818,-2.5056,-2.5241,-2.5313,-2.5369,-2.5374,-2.5313,-2.543,-2.549,-2.5413,-2.546,-2.5529,-2.5568,0.0,0.0,0.0,0.0,0.0,0.0,0.0,0.0,0.0,0.0,0.0,0.0,0.0,0.0,0.0,-2.9663,0.0,-2.8457,-2.8454,0.0,0.0,0.0,-2.7622,-2.7701,-2.7599,-2.751,-2.751,0.0,0.0,-2.7424,0.0,-2.8855,-2.9458,-2.957,-2.9589,-2.9513,-2.9493,-2.9511,-2.9451,-2.9488,-2.9485,-2.9365,-2.9381,-2.936,-2.928,-2.9222,-2.9163,-2.9126,-2.9097,-2.9089,-2.9126,-2.8975,-2.8625,-2.7752,-2.6872,-2.5945,-2.5235,-2.4307,-2.3575,-2.3437,-2.327,-2.3072,-2.3625,-2.2752,-2.2515,-2.1106,-1.9112,-1.9137,-1.9788,-2.0828,-2.2119,-2.334,-2.4524,-2.4824,-2.5169,-2.5457,-2.4848,-2.4549,-2.4462,-2.3648,-2.3222,-2.311,-2.2834,-2.2686,-2.2686,-2.2554,-2.2561,-2.2642,-2.2721,-2.2876,-2.3077,-2.3436,-2.3741,-2.3999,-2.4351,-2.4855,-2.5502,-2.5518,-2.5319,-2.4841,-2.4798,-2.4861,-2.5106,-2.5231,-2.5313,-2.5369,-2.5453,-2.5173,-2.4522,-2.5189,-2.5257,-2.4646,-2.5235,-2.5566,-2.557,-2.6576,0.0,0.0,0.0,0.0,0.0,0.0,0.0,0.0,0.0,-2.9959,-2.9859,0.0,-2.9842,0.0,-2.919,-2.844,-2.7683,-2.7603,0.0,0.0,-2.7594,-2.7649,-2.7764,-2.7178,-2.6771,-2.6771,-2.6147,-2.597,-2.6581,-2.742,-2.8179,-2.8897,-2.9427,-2.9699,-2.9663,-2.9664,-2.9626,-2.9626,-2.9645,-2.9626,-2.9548,-2.9509,-2.9451,-2.9451,-2.9332,-2.9291,-2.9233,-2.9163,-2.9126,-2.9126,-2.8952,-2.8481,-2.7705,-2.6718,-2.5793,-2.4885,-2.4028,-2.3401,-2.3199,-2.2952,-2.2721,-2.4925,-2.449,-2.4313,-2.3474,-2.2326,-2.168,-2.1966,-2.2925,-2.3691,-2.4555,-2.5473,-2.5471,-2.5422,-2.5241,-2.4515,-2.4157,-2.4052,-2.3636,-2.3399,-2.333,-2.3212,-2.3164,-2.314,-2.3028,-2.2977,-2.3003,-2.3126,-2.3247,-2.3376,-2.3544,-2.3816,-2.4022,-2.4211,-2.4799,-2.5649,-2.5388,-2.5061,-2.4746,-2.4891,-2.5091,-2.5283,-2.5351,-2.5412,-2.5461,-2.5493,-2.5329,-2.4857,-2.5367,-2.5425,-2.4962,-2.5399,-2.5616,-2.5648,-2.647,-2.7171,0.0,0.0,0.0,0.0,0.0,0.0,0.0,0.0,0.0,0.0,0.0,-2.8828,-2.8726,-2.8282,-2.7662,-2.6833,-2.6752,-2.6677,-2.6488,-2.6477,-2.653,-2.6642,-2.6232,-2.5926,-2.5948,-2.5527,-2.5351,-2.5876,-2.6986,-2.788,-2.8273,-2.9292,-2.9943,-2.9805,-2.9808,-2.979,-2.981,-2.981,-2.9775,-2.9664,-2.9589,-2.955,-2.9531,-2.9414,-2.9353,-2.939,-2.9243,-2.9134,-2.9112,-2.8952,-2.8676,-2.8094,-2.6886,-2.5804,-2.5155,-2.4025,-2.3207,-2.2952,-2.2694,-2.2419,-2.6081,-2.6125,-2.5492,-2.5384,-2.5698,-2.4433,-2.4292,-2.4846,-2.5138,-2.5603,-2.6219,-2.6002,-2.5575,-2.5036,-2.4317,-2.3961,-2.3919,-2.381,-2.3753,-2.3689,-2.358,-2.3571,-2.3571,-2.3412,-2.3342,-2.3365,-2.3481,-2.358,-2.3653,-2.3919,-2.4154,-2.4353,-2.4538,-2.5152,-2.598,-2.5225,-2.4847,-2.4981,-2.5133,-2.5255,-2.5412,-2.5468,-2.5511,-2.5511,-2.5595,-2.5615,-2.5615,-2.5683,-2.5691,-2.5687,-2.571,-2.5689,-2.5701,-2.6406,-2.6875,0.0,-2.7723,0.0,0.0,0.0,0.0,0.0,0.0,0.0,0.0,-2.8041,-2.7476,-2.729,-2.7176,-2.6827,-2.6012,-2.5966,-2.5693,-2.5105,-2.5057,-2.517,-2.5203,-2.5236,-2.5269,-2.5283,-2.5273,-2.5262,-2.5398,-2.676,-2.78,-2.7917,-2.9193,-3.0118,-2.9984,-2.9921,-2.9943,-2.991,-2.991,-2.9859,-2.9753,-2.9682,-2.9664,-2.9608,-2.9531,-2.9451,-2.9488,-2.9307,-2.92,-2.9178,-2.8975,-2.8785,-2.8676,-2.7211,-2.5958,-2.5622,-2.4129,-2.2859,-2.2694,-2.2419,-2.2136,-2.7381,-2.6863,-2.7052,-2.7237,-2.732,-2.6866,-2.6212,-2.5497,-2.6276,-2.6552,-2.6486,-2.6766,-2.6536,-2.5909,-2.5287,-2.5022,-2.4986,-2.4368,-2.4112,-2.4056,-2.3955,-2.3915,-2.3894,-2.371,-2.3646,-2.3689,-2.3732,-2.3816,-2.4016,-2.4136,-2.4391,-2.4607,-2.4842,-2.5095,-2.5367,0.0,0.0,0.0,-2.5357,-2.5376,-2.5473,-2.5544,-2.5574,-2.5595,-2.5632,0.0,-2.5687,-2.5707,-2.5712,-2.571,-2.5689,0.0,0.0,0.0,0.0,0.0,0.0,0.0,0.0,0.0,0.0,0.0,-2.7421,-2.7286,-2.7854,-2.7736,-2.7262,-2.6498,-2.6418,-2.6062,-2.5215,-2.5153,-2.5156,-2.5095,-2.5144,-2.5214,-2.5262,-2.5283,-2.5303,-2.536,-2.536,-2.536,-2.5475,-2.6843,-2.7852,-2.7857,-2.9217,-3.0177,-3.0226,-3.0128,-3.0053,-3.0076,-3.0007,-2.9959,-2.9872,-2.9859,-2.979,-2.9699,-2.9664,-2.9589,-2.9511,-2.9407,-2.9243,-2.92,-2.8975,-2.8761,-2.8601,-2.7137,-2.5811,-2.5438,-2.3919,-2.2615,-2.2569,-2.2287,-2.1998,-2.8415,0.0,-2.8065,-2.8129,0.0,-2.8247,-2.7758,-2.7105,-2.712,-2.7165,-2.7183,-2.7261,-2.7115,-2.6858,-2.6255,-2.6009,-2.5972,-2.5645,-2.5223,-2.4855,-2.4777,-2.4518,-2.4078,-2.3996,-2.3976,-2.3996,-2.4056,-2.4097,-2.4229,-2.4425,-2.4623,-2.4856,-2.5019,-2.5367,-2.5928,-2.6047,-2.587,-2.5444,-2.5479,-2.5517,-2.5546,-2.561,-2.5667,-2.564,0.0,0.0,0.0,0.0,0.0,0.0,0.0,0.0,0.0,0.0,0.0,-2.6281,-2.6292,-2.6471,-2.6832,-2.6837,-2.6792,-2.6725,-2.6227,-2.6107,-2.645,-2.6428,-2.62,-2.5755,-2.5691,-2.5475,-2.5057,-2.5032,-2.5082,-2.513,-2.5176,-2.5231,-2.5274,-2.5341,-2.5369,-2.5451,-2.5412,-2.5404,-2.5404,-2.6853,-2.7826,-2.7939,-2.9302,-3.0355,-3.0318,-3.0188,-3.0142,-3.0113,-3.0068,-3.0022,-2.9975,-2.9888,-2.9876,-2.9753,-2.9719,-2.9626,-2.9531,-2.939,-2.928,-2.9156,-2.8929,-2.8712,-2.8428,-2.7046,-2.5683,-2.5189,-2.3819,-2.2583,-2.2417,-2.2065,-2.1738,-2.9403,-2.9638,-2.903,-2.8832,-2.9002,-2.909,-2.9061,-2.8837,0.0,0.0,0.0,-2.7733,-2.7683,-2.7752,-2.7163,-2.688,-2.6938,-2.6851,-2.6428,-2.5762,-2.5613,-2.5132,-2.4469,-2.4284,-2.4228,-2.4228,-2.4303,-2.4393,-2.4459,-2.4639,-2.4932,-2.5222,-2.5394,-2.5869,-2.6657,-2.6759,-2.6378,-2.5556,-2.5556,-2.5619,-2.5632,-2.5652,-2.5701,-2.571,-2.5715,-2.5679,-2.5679,-2.5683,-2.5683,-2.5683,-2.5689,-2.5691,-2.5689,-2.5681,-2.5671,-2.5619,-2.5598,-2.5546,-2.5499,-2.5492,-2.5476,-2.5378,-2.5313,-2.5262,-2.5192,-2.5187,-2.5203,-2.5203,-2.5168,-2.5156,-2.5118,-2.5115,-2.5187,-2.5231,-2.5252,-2.5254,-2.533,-2.5395,-2.5459,-2.5492,-2.5453,-2.5514,-2.5785,-2.7034,-2.7972,-2.8289,-2.9451,-3.0379,-3.0304,-3.0241,-3.0213,-3.0118,-3.0128,-3.0083,-3.0038,-2.9991,-2.9926,-2.9842,-2.9755,-2.9664,-2.9531,-2.939,-2.9243,-2.9112,-2.8881,-2.8662,-2.8324,-2.6942,-2.565,-2.5255,-2.3736,-2.2377,-2.219,-2.1804,-2.1466,-3.028,-3.0241,-3.0423,-3.0099,-2.9515,-2.9958,-2.9867,-2.9482,-2.8558,-2.8444,-2.8805,-2.8425,-2.8355,-2.8482,-2.7917,-2.7684,-2.7754,-2.7113,-2.6765,0.0,-2.5931,-2.5542,-2.5375,-2.4709,-2.4376,-2.4394,-2.4517,-2.4596,-2.4676,-2.4842,-2.531,-2.6121,-2.6348,-2.6544,-2.6791,-2.6856,-2.6456,-2.5615,-2.5628,-2.5687,-2.5704,-2.5707,-2.5707,-2.571,-2.571,-2.571,-2.571,-2.5712,-2.571,-2.5704,-2.5704,-2.5701,-2.5691,-2.5628,-2.5595,-2.5601,-2.5556,-2.5486,-2.5414,-2.5404,-2.5389,-2.5331,-2.5293,-2.5283,-2.5231,-2.522,-2.522,-2.522,-2.5171,-2.522,-2.5241,-2.5252,-2.5283,-2.5351,-2.5369,-2.5395,-2.5453,-2.5468,-2.5476,-2.5505,-2.5505,-2.5924,-2.6722,-2.7542,-2.8327,-2.8994,-2.9803,-3.0375,-3.0316,-3.0305,-3.0266,-3.0226,-3.0213,-3.0147,-3.0075,-3.0083,-3.0007,-2.9893,-2.9825,-2.9719,-2.955,-2.9373,-2.9249,-2.9112,-2.8881,-2.8637,-2.8396,-2.6942,-2.5808,-2.5199,-2.3659,-2.2304,-2.1927,-2.1466,-2.1151,-3.0983,-3.0944,-3.1086,-3.1028,-3.0803,-3.0799,-3.0631,-3.0235,-2.9649,-2.921,-2.8956,-2.8948,-2.8828,-2.8576,-2.8421,-2.8439,-2.8515,-2.8212,-2.7853,-2.7469,-2.7079,-2.6672,-2.6302,-2.5968,-2.5782,-2.5801,-2.5942,-2.6043,-2.6101,-2.6266,-2.6606,-2.7113,-2.7285,-2.7409,-2.751,-2.7544,-2.7379,-2.6982,-2.6147,-2.5691,-2.5701,-2.5707,-2.5707,-2.5701,-2.5701,-2.5697,-2.5655,-2.5655,-2.5655,-2.5648,-2.5644,-2.5636,-2.5624,-2.559,-2.5544,-2.5543,-2.5476,-2.5398,-2.5339,-2.5322,-2.5283,-2.5311,-2.5321,-2.5283,-2.5273,-2.5262,-2.5252,-2.5273,-2.5234,-2.5293,-2.5332,-2.5351,-2.5378,-2.5437,-2.5453,-2.5483,-2.5557,-2.557,-2.5577,-2.5615,-2.5971,-2.6463,-2.6939,-2.8001,-2.8788,-2.9303,-2.9939,-3.0386,-3.034,-3.0355,-3.0318,-3.0202,-3.0226,-3.0161,-3.0104,-3.0098,-3.0022,-2.9948,-2.9842,-2.9737,-2.955,-2.9394,-2.9249,-2.9067,-2.8834,-2.8562,-2.83,-2.711,-2.617,-2.5483,-2.3998,-2.2638,-2.1818,-2.1119,-2.0665,-3.1509,-3.1705,-3.1665,-3.1787,-3.1954,-3.1431,-3.111,-3.1005,-3.0692,-3.004,-2.933,-2.9308,-2.9096,-2.8747,-2.871,-2.8785,-2.8965,-2.8998,-2.8721,-2.8297,-2.8075,-2.7672,-2.7175,-2.7065,-2.701,-2.7046,-2.7189,-2.7269,-2.7327,-2.7514,-2.7778,-2.8053,-2.8425,-2.8517,-2.8357,-2.8378,-2.8327,-2.8129,-2.6909,-2.6225,-2.6272,-2.624,-2.6162,-2.596,-2.5952,-2.5831,-2.5628,-2.5589,-2.5585,-2.558,-2.5576,-2.5561,-2.5585,-2.5544,-2.5505,-2.5499,-2.5404,-2.5351,-2.5293,-2.5214,-2.5241,-2.5262,-2.5301,-2.5283,-2.5303,-2.5331,-2.5303,-2.5313,-2.5332,-2.5351,-2.5395,-2.5421,-2.5453,-2.5529,-2.5518,-2.5538,-2.5607,-2.5779,-2.5935,-2.604,-2.6701,-2.7304,-2.7782,-2.8605,-2.9356,-2.9621,-3.0065,-3.0398,-3.0402,-3.039,-3.0343,-3.0241,-3.0202,-3.0174,-3.0118,-3.0098,-3.0038,-2.991,-2.9842,-2.9719,-2.9513,-2.9353,-2.9185,-2.8998,-2.8737,-2.8458,-2.8065,-2.7162,-2.6353,-2.5785,-2.4397,-2.2992,-2.2019,-2.1324,-2.0605,-3.1823,-3.2272,-3.24,-3.2562,-3.2577,-3.1556,-3.1396,-3.1708,-3.1365,-3.0956,-3.0352,-2.946,-2.916,-2.9203,-2.8703,-2.8598,-2.8846,-2.881,-2.8855,-2.8868,-2.8264,-2.7901,-2.7857,-2.7288,-2.7028,-2.7157,-2.7295,-2.7463,-2.7555,-2.7698,-2.8171,-2.907,-2.9951,-2.9949,-2.9279,-2.9241,-2.8914,-2.8138,-2.7964,-2.7929,-2.797,-2.7965,-2.7571,-2.6787,-2.6806,-2.6407,-2.5746,-2.5613,-2.5562,-2.5511,-2.5511,-2.5493,-2.5498,-2.5507,-2.5484,-2.5404,-2.5351,-2.5283,-2.5209,-2.522,-2.5192,-2.5192,-2.5262,-2.5321,-2.5303,-2.5332,-2.5389,-2.5398,-2.5387,-2.5412,-2.5484,-2.5499,-2.5498,-2.5583,-2.5595,-2.5613,-2.5751,-2.6306,-2.6889,-2.7128,-2.7651,-2.8611,-2.9641,-2.9683,-2.9674,-3.0182,-3.0346,-3.0458,-3.0425,-3.0402,-3.0367,-3.0305,-3.0279,-3.0253,-3.0185,-3.0128,-3.0038,-2.9905,-2.9787,-2.9645,-2.9454,-2.9307,-2.9134,-2.8881,-2.8612,-2.8327,-2.7847,-2.7075,-2.6204,-2.5771,-2.4712,-2.3454,-2.2722,-2.2084,-2.143,-3.2527,-3.2437,-3.285,-3.3022,-3.2902,-3.2164,-3.1869,-3.1876,-3.1375,-3.1108,-3.107,-3.0318,-2.9884,-2.9798,-2.9191,-2.9062,-2.915,-2.8855,-2.8761,-2.8892,-2.8668,-2.8611,-2.8667,-2.8511,-2.8425,-2.8559,-2.8648,-2.8785,-2.8897,-2.9126,-2.9473,-2.9886,-3.0335,-3.0376,-3.0104,-3.01,-2.9931,-2.959,-2.9598,-2.9574,-2.9486,-2.865,-2.799,-2.7666,-2.7615,-2.7446,-2.7051,-2.6618,-2.6301,-2.6262,-2.5776,-2.5522,-2.5499,-2.5459,-2.5425,-2.5407,-2.5303,-2.5203,-2.5198,-2.5225,-2.5198,-2.5231,-2.5203,-2.5262,-2.5303,-2.538,-2.5398,-2.5398,-2.5395,-2.5437,-2.5483,-2.5498,-2.5518,-2.5595,-2.5618,-2.579,-2.635,-2.6671,-2.7104,-2.7751,-2.8518,-2.9168,-2.9804,-3.004,-3.0208,-3.0482,-3.049,-3.0469,-3.0414,-3.039,-3.0355,-3.0305,-3.0292,-3.0266,-3.0199,-3.0128,-3.0038,-2.9905,-2.9787,-2.9645,-2.9434,-2.9265,-2.9044,-2.8785,-2.8484,-2.8164,-2.7824,-2.7226,-2.6507,-2.5916,-2.4937,-2.3679,-2.2711,-2.221,-2.1645,-3.3234,-3.3022,-3.3372,-3.3508,-3.3453,-3.2924,-3.2519,-3.2211,-3.1597,-3.1438,-3.1507,-3.1106,-3.0803,-3.0512,-2.9814,-2.9561,-2.9597,-2.9053,-2.8887,-2.9039,-2.8943,-2.8975,-2.9134,-2.9228,-2.9332,-2.9474,-2.9589,-2.9767,-2.9953,-3.0199,-3.0433,-3.0737,-3.0833,-3.1012,-3.1274,-3.1274,-3.1292,-3.1263,-3.1069,-3.0914,-3.0729,-2.9552,-2.8667,-2.8473,-2.8427,-2.8342,-2.8055,-2.7474,-2.7117,-2.711,-2.6312,-2.5824,-2.5807,-2.5541,-2.5389,-2.5361,-2.5273,-2.522,-2.5225,-2.5203,-2.5214,-2.522,-2.522,-2.5203,-2.5283,-2.5322,-2.5341,-2.5389,-2.5387,-2.5437,-2.549,-2.5511,-2.5531,-2.5595,-2.5784,-2.6228,-2.6778,-2.722,-2.7921,-2.8524,-2.9296,-2.9784,-2.9822,-3.0211,-3.0548,-3.051,-3.049,-3.0469,-3.0414,-3.039,-3.0355,-3.0292,-3.0279,-3.0253,-3.0185,-3.0113,-3.0022,-2.9872,-2.9735,-2.957,-2.9353,-2.9178,-2.8905,-2.8587,-2.8264,-2.7933,-2.7522,-2.7083,-2.6489,-2.5933,-2.4986,-2.3934,-2.3226,-2.2665,-2.2274,-3.3706,-3.413,-3.4105,-3.4118,-3.4219,-3.3834,-3.3383,-3.2847,-3.2386,-3.1953,-3.1534,-3.162,-3.177,-3.1636,-3.0552,-3.0078,-3.0092,-2.9561,-2.9438,-2.9566,-2.9021,-2.8798,-2.9035,-2.9134,-2.9323,-2.9638,-2.9833,-3.0028,-3.0213,-3.0316,-3.0753,-3.1583,-3.1719,-3.2149,-3.2722,-3.2831,-3.2957,-3.2725,-3.2106,-3.1758,-3.1681,-3.0917,-3.0131,-2.9505,-2.9295,-2.8899,-2.8194,-2.8023,-2.7967,-2.7932,-2.7121,-2.6639,-2.6516,-2.5851,-2.5476,-2.529,-2.5269,-2.5209,-2.5203,-2.5191,-2.5203,-2.5187,-2.5198,-2.5209,-2.5241,-2.5283,-2.5303,-2.5313,-2.5428,-2.552,-2.5561,-2.5561,-2.5557,-2.5706,-2.6351,-2.6757,-2.7001,-2.8363,-2.9263,-2.953,-3.0056,-3.0418,-3.0482,-3.0574,-3.0577,-3.052,-3.049,-3.0469,-3.0386,-3.034,-3.0304,-3.0292,-3.0253,-3.0174,-3.0104,-3.0068,-2.9975,-2.9842,-2.9645,-2.9471,-2.9185,-2.8915,-2.8651,-2.8317,-2.7961,-2.7582,-2.7181,-2.6624,-2.5999,-2.5481,-2.5005,-2.4163,-2.3529,-2.3558,-2.3155,-3.5054,-3.4844,-3.429,-3.425,-3.4529,-3.3994,-3.3494,-3.2937,-3.2412,-3.1867,-3.1453,-3.1538,-3.1651,-3.1694,-3.1463,-3.1147,-3.0786,-3.029,-3.0112,-3.0198,-3.0143,-3.0212,-3.0392,-3.0588,-3.0775,-3.0996,-3.1144,-3.1391,-3.1683,-3.1804,-3.2004,-3.234,-3.2517,-3.2728,-3.301,-3.3081,-3.3102,-3.3073,-3.2784,-3.2677,-3.2677,-3.2425,-3.1861,-3.1017,-3.044,-2.9988,-2.9678,-2.9137,-2.8809,-2.882,-2.7952,-2.747,-2.7431,-2.7141,-2.6697,-2.6184,-2.6058,-2.5795,-2.5302,-2.5203,-2.5203,-2.5187,-2.5198,-2.5275,-2.5192,-2.5214,-2.5262,-2.5339,-2.5821,-2.6082,-2.6034,-2.5768,-2.5754,-2.6287,-2.6663,-2.7343,-2.8282,-2.9065,-2.9616,-3.0146,-3.0513,-3.0599,-3.0604,-3.0616,-3.055,-3.0441,-3.0419,-3.0398,-3.0352,-3.0316,-3.0279,-3.0266,-3.0226,-3.0171,-3.0068,-3.0038,-2.9959,-2.977,-2.9589,-2.9353,-2.9134,-2.8749,-2.8422,-2.8037,-2.7636,-2.7147,-2.6691,-2.6033,-2.5406,-2.4974,-2.4503,-2.4181,-2.3824,-2.3509,-2.3172,-3.5783,-3.5169,-3.4543,-3.4448,-3.4721,-3.4399,-3.3951,-3.3393,-3.2782,-3.2205,-3.1793,-3.1564,-3.1538,-3.1691,-3.1948,-3.1917,-3.1461,-3.1013,-3.0843,-3.0838,-3.0923,-3.1003,-3.119,-3.1359,-3.1616,-3.1868,-3.2064,-3.2354,-3.258,-3.2669,-3.2896,-3.3207,-3.3352,-3.3566,-3.3809,-3.3931,-3.3924,-3.3896,-3.3723,-3.3587,-3.3596,-3.3343,-3.2926,-3.2335,-3.1766,-3.1158,-3.0616,-3.0027,-2.9699,-2.9593,-2.8801,-2.8193,-2.796,-2.7901,-2.761,-2.7089,-2.6941,-2.6638,-2.6117,-2.6006,-2.6032,-2.6006,-2.5956,-2.5968,-2.5979,-2.5979,-2.5979,-2.6106,-2.6424,-2.6857,-2.6765,-2.6467,-2.6476,-2.7069,-2.742,-2.8016,-2.9187,-2.959,-2.9986,-3.0435,-3.0565,-3.0577,-3.0588,-3.0569,-3.049,-3.0386,-3.0375,-3.034,-3.0304,-3.0267,-3.0241,-3.0226,-3.0157,-3.0083,-2.9975,-2.9872,-2.9787,-2.9645,-2.9434,-2.9243,-2.8938,-2.8515,-2.812,-2.7754,-2.7269,-2.6723,-2.6071,-2.5406,-2.4895,-2.4441,-2.4109,-2.3855,-2.3523,-2.3201,-2.2965,-3.569,-3.5272,-3.4841,-3.4739,-3.493,-3.5098,-3.4913,-3.4162,-3.3584,-3.293,-3.2344,-3.1803,-3.1614,-3.18,-3.2018,-3.2091,-3.2022,-3.1661,-3.1572,-3.1596,-3.1201,-3.1109,-3.1329,-3.1602,-3.185,-3.2128,-3.2315,-3.2596,-3.2847,-3.2974,-3.3355,-3.4002,-3.4238,-3.4608,-3.5495,-3.54,-3.556,-3.5349,-3.4778,-3.4449,-3.439,-3.3817,-3.34,-3.3244,-3.3119,-3.2365,-3.0836,-3.0655,-3.055,-3.0366,-2.9651,-2.8839,-2.8258,-2.8132,-2.7956,-2.7857,-2.7785,-2.775,-2.7611,-2.7497,-2.7383,-2.7357,-2.7458,-2.7331,-2.7266,-2.7317,-2.7331,-2.7279,-2.7496,-2.7586,-2.7637,-2.7663,-2.7762,-2.7932,-2.8483,-2.9014,-2.9419,-3.0008,-3.0482,-3.0511,-3.0492,-3.0482,-3.05,-3.0469,-3.0386,-3.039,-3.0316,-3.0292,-3.0292,-3.024,-3.0199,-3.0171,-3.0098,-3.0007,-2.9893,-2.9735,-2.9608,-2.9474,-2.9265,-2.9021,-2.87,-2.8281,-2.7811,-2.7396,-2.6791,-2.6241,-2.5481,-2.4855,-2.4492,-2.4067,-2.3812,-2.3566,-2.3304,-2.3083,-2.283,-3.6161,-3.6013,-3.5185,-3.4883,-3.5058,-3.5337,-3.4992,-3.4263,-3.3685,-3.31,-3.2474,-3.1803,-3.1614,-3.18,-3.2018,-3.2196,-3.2301,-3.2258,-3.2317,-3.241,-3.2384,-3.248,-3.271,-3.293,-3.329,-3.3687,-3.3938,-3.415,-3.4293,-3.4426,-3.4695,-3.4908,-3.5123,-3.5302,-3.5662,-3.567,-3.5725,-3.5669,-3.5456,-3.5321,-3.5387,-3.5133,-3.4714,-3.4171,-3.4076,-3.3525,-3.246,-3.1844,-3.1187,-3.0559,-3.024,-2.9939,-2.9666,-2.9632,-2.9313,-2.8802,-2.8641,-2.8337,-2.7865,-2.7714,-2.77,-2.7611,-2.7594,-2.7552,-2.7538,-2.7523,-2.7509,-2.7517,-2.7896,-2.8275,-2.8404,-2.8875,-2.8941,-2.8644,-2.8868,-2.9363,-2.9836,-3.0232,-3.0398,-3.0447,-3.0436,-3.0425,-3.0402,-3.0379,-3.047,-3.0471,-3.0407,-3.033,-3.0303,-3.0362,-3.0128,-3.0068,-2.9991,-3.0082,-3.0112,-3.0057,-2.9878,-2.9561,-2.9228,-2.8785,-2.8386,-2.7946,-2.7482,-2.6889,-2.631,-2.5654,-2.4886,-2.4369,-2.4036,-2.3769,-2.3509,-2.3334,-2.3157,-2.2978,-2.2768,-3.6657,-3.6476,-3.5712,-3.5291,-3.5198,-3.5383,-3.5251,-3.4722,-3.4134,-3.3684,-3.3264,-3.2388,-3.2097,-3.2219,-3.2159,-3.2232,-3.2371,-3.2606,-3.2948,-3.3255,-3.3163,-3.3334,-3.353,-3.386,-3.4191,-3.4561,-3.4713,-3.5059,-3.5549,-3.5687,-3.5921,-3.6213,-3.6433,-3.6537,-3.6511,-3.6598,-3.6527,-3.625,-3.6154,-3.6067,-3.5862,-3.5801,-3.5546,-3.508,-3.4986,-3.4512,-3.3727,-3.3119,-3.227,-3.1207,-3.0714,-3.0479,-3.0398,-3.0364,-3.0148,-2.9713,-2.9486,-2.9245,-2.876,-2.8681,-2.8498,-2.8455,-2.8411,-2.8389,-2.8358,-2.8272,-2.8202,-2.8286,-2.8625,-2.8946,-2.9022,-2.9378,-2.9557,-2.9194,-2.9303,-2.9614,-3.019,-3.0561,-3.0765,-3.0881,-3.1072,-3.1174,-3.1199,-3.1186,-3.1172,-3.1145,-3.1102,-3.1073,-3.1066,-3.102,-3.0896,-3.0831,-3.0956,-3.0885,-3.064,-3.042,-3.0183,-2.9719,-2.9223,-2.868,-2.8147,-2.7601,-2.7049,-2.6247,-2.5578,-2.5045,-2.4359,-2.4006,-2.3666,-2.3406,-2.3246,-2.3157,-2.3052,-2.2917,-2.2781,-3.7155,-3.6593,-3.6274,-3.5785,-3.5325,-3.5429,-3.5532,-3.5453,-3.4907,-3.4661,-3.4438,-3.3396,-3.2969,-3.3023,-3.2789,-3.2687,-3.2615,-3.306,-3.3677,-3.4051,-3.3924,-3.3814,-3.4137,-3.4537,-3.4853,-3.498,-3.5073,-3.5571,-3.6348,-3.6528,-3.7009,-3.7632,-3.7767,-3.8041,-3.7861,-3.8105,-3.7688,-3.713,-3.7045,-3.6716,-3.6008,-3.5918,-3.5849,-3.5732,-3.5693,-3.5344,-3.4667,-3.4348,-3.3546,-3.2028,-3.1071,-3.0634,-3.0436,-3.0402,-3.034,-3.0201,-3.0267,-3.0177,-3.0122,-2.9837,-2.9802,-2.9655,-2.9607,-2.9822,-2.9491,-2.9325,-2.9288,-2.9251,-2.94,-2.9456,-2.9399,-2.9643,-2.9719,-2.9795,-2.9973,-3.0136,-3.0213,-3.0944,-3.1378,-3.1569,-3.2142,-3.26,-3.2409,-3.2378,-3.24,-3.2384,-3.2314,-3.2188,-3.2155,-3.2007,-3.2219,-3.2053,-3.1694,-3.1481,-3.1134,-3.0724,-3.0479,-3.0192,-2.9674,-2.9091,-2.8317,-2.7661,-2.6958,-2.6054,-2.5092,-2.4534,-2.4085,-2.3816,-2.3509,-2.3304,-2.3157,-2.3023,-2.3007,-2.2962,-2.2917,-3.7314,-3.6832,-3.6455,-3.5914,-3.5404,-3.552,-3.5611,-3.552,-3.4975,-3.4832,-3.4719,-3.4094,-3.3878,-3.4001,-3.4051,-3.4199,-3.4304,-3.451,-3.4885,-3.5322,-3.5369,-3.5462,-3.5745,-3.6024,-3.6293,-3.6437,-3.6515,-3.6958,-3.7262,-3.7441,-3.7715,-3.7885,-3.8137,-3.813,-3.8093,-3.8247,-3.809,-3.7904,-3.7876,-3.7482,-3.6813,-3.6677,-3.6375,-3.5849,-3.581,-3.5693,-3.5374,-3.4805,-3.3692,-3.2067,-3.1632,-3.1118,-3.0584,-3.0436,-3.0352,-3.0304,-3.0305,-3.0253,-3.0185,-3.0098,-2.9991,-2.9893,-2.9808,-2.9701,-2.9551,-2.9474,-2.9373,-2.9307,-2.9265,-2.9259,-2.9333,-2.9798,-3.0383,-3.1049,-3.0941,-3.0804,-3.0949,-3.159,-3.2155,-3.2193,-3.2383,-3.2572,-3.2648,-3.261,-3.2593,-3.2593,-3.2596,-3.256,-3.2675,-3.2581,-3.2637,-3.2257,-3.1911,-3.1859,-3.1607,-3.1115,-3.0836,-3.0648,-3.0273,-2.9913,-2.904,-2.8212,-2.7465,-2.664,-2.5383,-2.4615,-2.422,-2.3896,-2.357,-2.3393,-2.3157,-2.3142,-2.3201,-2.3201,-2.3157,-3.7682,-3.6934,-3.6886,-3.6262,-3.545,-3.5532,-3.5622,-3.5644,-3.5436,-3.5326,-3.5282,-3.4869,-3.4757,-3.4917,-3.4791,-3.4906,-3.5188,-3.5357,-3.5768,-3.6422,-3.6955,-3.6998,-3.6774,-3.682,-3.7038,-3.7235,-3.7447,-3.7776,-3.8136,-3.8355,-3.8575,-3.9007,-3.9046,-3.9105,-3.9224,-3.9187,-3.9032,-3.8798,-3.8706,-3.8352,-3.7559,-3.7541,-3.7085,-3.6483,-3.6298,-3.619,-3.5793,-3.5262,-3.4226,-3.2764,-3.2029,-3.1563,-3.1107,-3.0612,-3.0402,-3.033,-3.0292,-3.0226,-3.0128,-2.9984,-2.9926,-2.9808,-2.972,-2.9607,-2.9431,-2.927,-2.9237,-2.9522,-2.9489,-2.9624,-2.993,-3.0418,-3.098,-3.1431,-3.1682,-3.1648,-3.1486,-3.2203,-3.2694,-3.2864,-3.311,-3.3355,-3.3355,-3.3375,-3.3375,-3.3431,-3.3487,-3.341,-3.3351,-3.316,-3.3002,-3.2804,-3.2695,-3.272,-3.2612,-3.2228,-3.1492,-3.1266,-3.0555,-3.0316,-2.9367,-2.8489,-2.7639,-2.671,-2.5615,-2.4792,-2.4642,-2.4386,-2.4029,-2.3791,-2.3436,-2.3304,-2.3393,-2.3422,-2.3348,-3.8097,-3.7036,-3.7353,-3.6712,-3.5609,-3.5577,-3.5667,-3.5834,-3.5864,-3.5994,-3.6061,-3.5711,-3.5675,-3.5801,-3.5537,-3.5368,-3.5647,-3.6026,-3.654,-3.7405,-3.8147,-3.8248,-3.7378,-3.748,-3.7671,-3.7813,-3.7733,-3.8347,-3.8955,-3.9176,-3.9627,-4.006,-4.0369,-4.0515,-4.0314,-4.0472,-4.0204,-3.9689,-3.9572,-3.9182,-3.8496,-3.8363,-3.7996,-3.7269,-3.6891,-3.6473,-3.596,-3.5601,-3.4962,-3.3548,-3.257,-3.2182,-3.1907,-3.1102,-3.0698,-3.0535,-3.0483,-3.0324,-3.0038,-2.9959,-2.9918,-2.987,-2.9813,-2.9675,-2.965,-2.9642,-2.9661,-3.0035,-2.9995,-3.0305,-3.0894,-3.1229,-3.1472,-3.1884,-3.2477,-3.2551,-3.2404,-3.2879,-3.3414,-3.3414,-3.4191,-3.4572,-3.4706,-3.4727,-3.4651,-3.4007,-3.4062,-3.3982,-3.3939,-3.3836,-3.3784,-3.3804,-3.3734,-3.3769,-3.3616,-3.3379,-3.2577,-3.1947,-3.0959,-3.0281,-2.9211,-2.8336,-2.7592,-2.6758,-2.626,-2.5801,-2.5461,-2.5082,-2.4667,-2.4371,-2.4118,-2.3881,-2.3702,-2.367,-2.3596,-3.8183,-3.7253,-3.7402,-3.6712,-3.5609,-3.5577,-3.5667,-3.5834,-3.5932,-3.6105,-3.6284,-3.6353,-3.6486,-3.6689,-3.6673,-3.6968,-3.7076,-3.735,-3.7936,-3.8479,-3.883,-3.908,-3.884,-3.8888,-3.9104,-3.9223,-3.9426,-3.9661,-3.989,-3.998,-4.0202,-4.0444,-4.0508,-4.0539,-4.0607,-4.0622,-4.0626,-4.0436,-4.0385,-3.9959,-3.9375,-3.9193,-3.8866,-3.8063,-3.7414,-3.66,-3.5902,-3.5728,-3.5524,-3.5039,-3.4272,-3.3407,-3.2833,-3.2439,-3.1943,-3.1443,-3.1183,-3.0829,-3.0212,-3.0045,-3.0038,-3.0428,-3.0358,-3.042,-3.0846,-3.056,-3.0486,-3.0576,-3.0471,-3.0801,-3.1534,-3.1737,-3.2105,-3.2674,-3.3177,-3.3423,-3.346,-3.3746,-3.3962,-3.4083,-3.424,-3.4473,-3.4473,-3.4495,-3.4495,-3.4473,-3.445,-3.4427,-3.4381,-3.4311,-3.4179,-3.408,-3.3976,-3.3817,-3.3444,-3.3163,-3.2544,-3.1979,-3.1213,-3.0474,-2.9416,-2.8754,-2.8198,-2.7736,-2.7238,-2.6784,-2.6314,-2.5741,-2.5265,-2.5027,-2.4881,-2.4672,-2.4505,-2.4247,-2.4169,-3.8269,-3.7419,-3.7485,-3.676,-3.5655,-3.5577,-3.5711,-3.5888,-3.5975,-3.6148,-3.6402,-3.6602,-3.6846,-3.7048,-3.7317,-3.7541,-3.7862,-3.8238,-3.859,-3.8884,-3.9082,-3.9324,-3.9526,-3.967,-3.9845,-3.9954,-4.002,-4.0177,-4.0289,-4.0381,-4.0411,-4.0515,-4.0508,-4.0523,-4.0539,-4.0592,-4.0622,-4.0626,-4.0654,-4.041,-4.0089,-4.0036,-3.9673,-3.8855,-3.8014,-3.7151,-3.6425,-3.6337,-3.6084,-3.5665,-3.5168,-3.4515,-3.3682,-3.3159,-3.266,-3.222,-3.1966,-3.1689,-3.1176,-3.0941,-3.0937,-3.1139,-3.0974,-3.0944,-3.1018,-3.0912,-3.0901,-3.0939,-3.0995,-3.1249,-3.2085,-3.2322,-3.2732,-3.3136,-3.3719,-3.4018,-3.4126,-3.4134,-3.4142,-3.4154,-3.4203,-3.425,-3.4274,-3.4559,-3.4447,-3.4484,-3.4447,-3.4386,-3.4191,-3.408,-3.4005,-3.3913,-3.3826,-3.3575,-3.3178,-3.271,-3.2189,-3.172,-3.1233,-3.0663,-3.0023,-2.9515,-2.9092,-2.8415,-2.7631,-2.7546,-2.706,-2.6501,-2.6111,-2.6025,-2.5878,-2.5652,-2.5513,-2.5448,-2.5431,-3.8223,-3.7452,-3.7351,-3.6706,-3.5712,-3.5622,-3.5756,-3.5975,-3.6019,-3.6191,-3.652,-3.6643,-3.6851,-3.7126,-3.7392,-3.765,-3.8068,-3.8465,-3.8803,-3.9036,-3.9219,-3.9427,-3.9623,-3.9823,-3.9954,-4.0017,-4.0118,-4.0234,-4.0363,-4.0415,-4.0466,-4.0508,-4.0508,-4.0523,-4.0523,-4.0539,-4.0607,-4.0583,-4.0612,-4.0588,-4.0524,-4.0552,-4.0166,-3.9391,-3.8783,-3.797,-3.7312,-3.6964,-3.6593,-3.5852,-3.5662,-3.5174,-3.4506,-3.3789,-3.3094,-3.2928,-3.2765,-3.2406,-3.2015,-3.1914,-3.1778,-3.1811,-3.1629,-3.1472,-3.1309,-3.1231,-3.1306,-3.1402,-3.1555,-3.1769,-3.2574,-3.2816,-3.3019,-3.3498,-3.4128,-3.4506,-3.4655,-3.441,-3.4394,-3.4507,-3.4844,-3.4969,-3.4909,-3.5033,-3.4736,-3.455,-3.4525,-3.4402,-3.4264,-3.4086,-3.4081,-3.3762,-3.364,-3.3862,-3.355,-3.3036,-3.2388,-3.1959,-3.1517,-3.1024,-3.0592,-3.0227,-2.965,-2.8627,-2.7997,-2.7879,-2.7769,-2.7248,-2.7043,-2.7066,-2.6855,-2.6489,-2.6472,-2.659,-2.6541,-3.7897,-3.7418,-3.6865,-3.6202,-3.5645,-3.5622,-3.5756,-3.5975,-3.6019,-3.6233,-3.6643,-3.6766,-3.693,-3.7241,-3.754,-3.7931,-3.8332,-3.8683,-3.8921,-3.911,-3.9324,-3.9502,-3.9717,-3.9911,-4.0038,-4.0118,-4.0196,-4.0271,-4.0398,-4.0449,-4.0499,-4.0508,-4.0508,-4.0508,-4.0508,-4.0523,-4.0539,-4.0554,-4.0569,-4.0598,-4.0574,-4.0563,-4.0307,-3.9612,-3.9303,-3.8813,-3.8028,-3.7332,-3.6818,-3.6575,-3.5894,-3.5534,-3.5262,-3.4961,-3.4397,-3.3843,-3.3501,-3.3167,-3.2538,-3.2045,-3.208,-3.2243,-3.2165,-3.2278,-3.2373,-3.2307,-3.2044,-3.2089,-3.2161,-3.2336,-3.3248,-3.3424,-3.3881,-3.4478,-3.4932,-3.5175,-3.5367,-3.5483,-3.5526,-3.5732,-3.5845,-3.5772,-3.5642,-3.5584,-3.5573,-3.5473,-3.551,-3.5272,-3.4981,-3.4752,-3.4531,-3.4069,-3.3472,-3.3827,-3.4058,-3.3529,-3.2975,-3.2607,-3.2112,-3.1533,-3.1131,-3.0835,-3.0192,-2.9162,-2.8553,-2.8332,-2.813,-2.7929,-2.7875,-2.7837,-2.7564,-2.7257,-2.7379,-2.7467,-2.7256,-3.7816,-3.7418,-3.6745,-3.6148,-3.5645,-3.5667,-3.58,-3.5975,-3.6062,-3.6353,-3.6643,-3.6806,-3.697,-3.7279,-3.7577,-3.8,-3.8428,-3.8803,-3.9007,-3.9229,-3.9401,-3.9599,-3.9823,-3.9975,-4.0099,-4.0196,-4.0271,-4.0325,-4.0398,-4.0466,-4.0515,-4.0508,-4.0508,-4.0508,-4.0508,-4.0508,-4.0523,-4.0539,-4.0539,-4.0554,-4.053,-4.0583,-4.0304,-4.0139,-3.9959,-3.9612,-3.8917,-3.8531,-3.7951,-3.7409,-3.6598,-3.6195,-3.5875,-3.549,-3.5026,-3.4577,-3.4301,-3.3973,-3.335,-3.3027,-3.2981,-3.304,-3.2777,-3.2624,-3.2692,-3.2573,-3.2616,-3.272,-3.2753,-3.2958,-3.3766,-3.3945,-3.4303,-3.48,-3.5368,-3.5827,-3.6106,-3.6561,-3.683,-3.6942,-3.6479,-3.6229,-3.6168,-3.6187,-3.6362,-3.6436,-3.6482,-3.6168,-3.5752,-3.5483,-3.5221,-3.4739,-3.4235,-3.4163,-3.4394,-3.3932,-3.3493,-3.3168,-3.2722,-3.2109,-3.171,-3.1455,-3.0763,-2.9858,-2.9337,-2.9164,-2.8747,-2.8636,-2.8652,-2.8583,-2.8309,-2.8171,-2.8263,-2.8288,-2.8075,-3.7552,-3.7233,-3.6558,-3.6026,-3.5656,-3.5745,-3.5878,-3.6019,-3.614,-3.6395,-3.6684,-3.6846,-3.7009,-3.7317,-3.7685,-3.8068,-3.8559,-3.8862,-3.9064,-3.9283,-3.9477,-3.967,-3.9845,-3.9996,-4.0138,-4.0234,-4.0307,-4.0415,-4.0432,-4.0482,-4.0476,-4.0508,-4.0508,-4.0508,-4.0508,-4.0492,-4.0508,-4.0508,-4.0492,-4.0508,-4.0523,-4.0539,-4.0583,-4.0574,-4.0588,-4.0265,-3.9725,-3.9287,-3.8859,-3.82,-3.741,-3.6773,-3.6413,-3.5737,-3.5247,-3.504,-3.4849,-3.4583,-3.426,-3.3894,-3.3533,-3.3328,-3.3111,-3.287,-3.2926,-3.2967,-3.3034,-3.3231,-3.3332,-3.3644,-3.4345,-3.4596,-3.4891,-3.5322,-3.6003,-3.6577,-3.6863,-3.7217,-3.7605,-3.7443,-3.6911,-3.6815,-3.6971,-3.714,-3.7419,-3.739,-3.7426,-3.6964,-3.6545,-3.6316,-3.5986,-3.5562,-3.5154,-3.4826,-3.4708,-3.4304,-3.3996,-3.3707,-3.3242,-3.266,-3.23,-3.2017,-3.1279,-3.0751,-3.0791,-3.0584,-2.998,-2.948,-2.9489,-2.9391,-2.9183,-2.9077,-2.9249,-2.9225,-2.9022,-3.6501,-3.6572,-3.5912,-3.5588,-3.5622,-3.5756,-3.5922,-3.6019,-3.6182,-3.6395,-3.6684,-3.6926,-3.7122,-3.7392,-3.7863,-3.8271,-3.8621,-3.8892,-3.912,-3.9373,-3.9539,-3.9693,-3.9889,-4.0017,-4.0158,-4.0271,-4.0342,-4.0432,-4.0504,-4.0553,-4.0585,-4.0585,-4.0739,-4.0585,-4.0854,-4.0883,-4.0499,-4.0521,-4.0521,-4.0515,-4.0508,-4.0508,-4.0539,-4.0569,-4.0569,-4.053,-4.0207,-3.9807,-3.9262,-3.9061,-3.8104,-3.7271,-3.6608,-3.6235,-3.5571,-3.5035,-3.4583,-3.4335,-3.4092,-3.388,-3.3647,-3.3388,-3.3045,-3.2997,-3.3248,-3.3626,-3.3821,-3.3947,-3.3978,-3.4397,-3.5065,-3.5322,-3.5828,-3.6303,-3.6779,-3.7143,-3.7398,-3.7434,-3.7897,-3.8068,-3.754,-3.7812,-3.8052,-3.8261,-3.8469,-3.8401,-3.8224,-3.7754,-3.7332,-3.6999,-3.6699,-3.6219,-3.5826,-3.5471,-3.5091,-3.4742,-3.4326,-3.4072,-3.3609,-3.3097,-3.2751,-3.24,-3.2331,-3.1975,-3.1951,-3.1589,-3.0852,-3.0443,-3.0392,-3.0173,-2.9935,-3.0021,-3.018,-3.011,-3.0061,-3.6135,-3.6438,-3.5915,-3.5701,-3.5711,-3.5966,-3.6053,-3.6105,-3.6276,-3.6478,-3.6725,-3.693,-3.7279,-3.7613,-3.7966,-3.83,-3.8652,-3.8921,-3.9175,-3.9399,-3.9564,-3.9717,-3.9889,-4.0017,-4.0158,-4.0289,-4.036,-4.0432,-4.0598,-4.103,-4.1239,-4.1239,-4.1646,-4.1959,-4.1728,-4.1848,-4.1601,-4.1217,-4.0756,-4.0449,-4.0427,-4.0482,-4.0499,-4.0531,-4.0515,-4.0515,-4.0415,-4.023,-3.9912,-3.967,-3.8932,-3.8269,-3.7719,-3.7182,-3.6486,-3.6114,-3.5727,-3.508,-3.416,-3.4025,-3.3912,-3.3849,-3.3665,-3.3845,-3.3975,-3.4064,-3.4431,-3.4697,-3.4697,-3.5157,-3.5792,-3.6082,-3.6457,-3.69,-3.7344,-3.7569,-3.7719,-3.7793,-3.7969,-3.807,-3.831,-3.8624,-3.8825,-3.8742,-3.8695,-3.8548,-3.8449,-3.8167,-3.7826,-3.7597,-3.7218,-3.6825,-3.6447,-3.6041,-3.5608,-3.5183,-3.4518,-3.4219,-3.3719,-3.3287,-3.298,-3.2742,-3.2578,-3.2437,-3.2228,-3.189,-3.1459,-3.1235,-3.1062,-3.0896,-3.0741,-3.0893,-3.1039,-3.1227,-3.129,-3.596,-3.6354,-3.5994,-3.5844,-3.5844,-3.6062,-3.6182,-3.6225,-3.6402,-3.6561,-3.6766,-3.7009,-3.7429,-3.7864,-3.8034,-3.83,-3.8615,-3.8913,-3.9175,-3.9388,-3.9588,-3.9754,-3.9889,-4.0055,-4.0196,-4.0307,-4.0342,-4.0586,-4.1058,-4.1553,-4.1975,-4.1838,-4.2381,-4.2769,-4.2905,-4.2716,-4.243,-4.197,-4.1433,-4.1088,-4.0837,-4.0799,-4.0663,-4.0526,-4.0432,-4.0415,-4.0449,-4.0377,-4.0304,-4.0098,-3.9624,-3.9032,-3.8553,-3.7872,-3.722,-3.6782,-3.6382,-3.5745,-3.4934,-3.4643,-3.4587,-3.4579,-3.4624,-3.4641,-3.4515,-3.4495,-3.4806,-3.5497,-3.5531,-3.5925,-3.6388,-3.665,-3.6986,-3.7255,-3.7665,-3.7818,-3.8149,-3.851,-3.8868,-3.9188,-3.9361,-3.9349,-3.9374,-3.9145,-3.892,-3.87,-3.8528,-3.8433,-3.8168,-3.7861,-3.747,-3.6993,-3.6566,-3.6187,-3.5786,-3.5316,-3.4787,-3.4398,-3.3893,-3.3477,-3.3168,-3.2804,-3.2578,-3.2468,-3.2561,-3.2314,-3.2029,-3.1897,-3.1818,-3.1779,-3.1785,-3.1819,-3.1935,-3.2172,-3.2426,-3.5878,-3.6044,-3.601,-3.5975,-3.6019,-3.6105,-3.6225,-3.6268,-3.6402,-3.6602,-3.6806,-3.7122,-3.7503,-3.7828,-3.807,-3.8336,-3.8689,-3.8892,-3.912,-3.9362,-3.9539,-3.9731,-3.9889,-4.0017,-4.0176,-4.0271,-4.0496,-4.0969,-4.1656,-4.2424,-4.2364,-4.1963,-4.3038,-4.302,-4.3061,-4.3159,-4.2986,-4.268,-4.2412,-4.2048,-4.1722,-4.151,-4.1297,-4.0684,-4.0492,-4.0415,-4.0415,-4.0363,-4.0271,-4.0215,-3.9908,-3.9502,-3.8904,-3.8478,-3.7914,-3.7355,-3.6943,-3.6413,-3.5927,-3.5503,-3.5319,-3.5226,-3.5252,-3.5392,-3.5192,-3.5808,-3.6187,-3.6236,-3.6208,-3.6394,-3.669,-3.6916,-3.7426,-3.7905,-3.8351,-3.8899,-3.9264,-3.9734,-4.0057,-4.0345,-4.034,-4.0255,-4.0178,-3.9951,-3.9365,-3.9108,-3.8469,-3.8267,-3.8002,-3.7685,-3.7356,-3.6978,-3.658,-3.6156,-3.5677,-3.5278,-3.5036,-3.4723,-3.433,-3.3847,-3.3356,-3.3045,-3.3153,-3.298,-3.3135,-3.2826,-3.2757,-3.2952,-3.3083,-3.2908,-3.2855,-3.2816,-3.2982,-3.3307,-3.3495,-3.6114,-3.6191,-3.636,-3.6318,-3.6191,-3.6318,-3.6437,-3.652,-3.6643,-3.6846,-3.7048,-3.7354,-3.7649,-3.7899,-3.8138,-3.8368,-3.8652,-3.8892,-3.9157,-3.9373,-3.9539,-3.9708,-3.9867,-4.0034,-4.0157,-4.0368,-4.0786,-4.1206,-4.1701,-4.3003,-4.3445,-4.3541,-4.3963,-4.4384,-4.4346,-4.3769,-4.35,-4.3347,-4.3041,-4.2565,-4.245,-4.2336,-4.2221,-4.1933,-4.1207,-4.1131,-4.0997,-4.0501,-4.0311,-4.0118,-3.9996,-3.9646,-3.9309,-3.9024,-3.8639,-3.8106,-3.7755,-3.7424,-3.7007,-3.6532,-3.6043,-3.613,-3.6138,-3.6116,-3.5842,-3.6264,-3.6409,-3.6485,-3.6678,-3.687,-3.6886,-3.7506,-3.816,-3.8635,-3.9182,-3.9838,-4.0383,-4.0817,-4.0851,-4.1028,-4.0988,-4.0906,-4.0903,-4.083,-4.0138,-3.9447,-3.8736,-3.8101,-3.7828,-3.7611,-3.7312,-3.7106,-3.6776,-3.6423,-3.5972,-3.5646,-3.5366,-3.5082,-3.4832,-3.4462,-3.4116,-3.4328,-3.4373,-3.4073,-3.3861,-3.3942,-3.4085,-3.4345,-3.4234,-3.3805,-3.3758,-3.3777,-3.4083,-3.4497,-3.4878,-3.636,-3.6444,-3.6643,-3.6602,-3.6444,-3.6527,-3.6602,-3.6684,-3.6806,-3.7009,-3.7317,-3.7503,-3.7721,-3.7934,-3.8174,-3.8401,-3.8615,-3.8862,-3.912,-3.9373,-3.9514,-3.9684,-3.9921,-4.0241,-4.0652,-4.0788,-4.1476,-4.2029,-4.2565,-4.3637,-4.4135,-4.4537,-4.4995,-4.5186,-4.509,-4.4701,-4.4255,-4.4102,-4.3776,-4.3188,-4.3111,-4.3077,-4.283,-4.2679,-4.2067,-4.1856,-4.1589,-4.1129,-4.0632,-4.0397,-4.016,-3.9823,-3.9647,-3.9477,-3.9283,-3.8998,-3.8737,-3.846,-3.799,-3.7363,-3.6712,-3.6685,-3.6626,-3.6533,-3.6444,-3.6444,-3.6485,-3.6637,-3.694,-3.7316,-3.7435,-3.8344,-3.9248,-3.983,-4.0418,-4.1035,-4.1506,-4.1903,-4.1681,-4.1601,-4.1742,-4.2032,-4.1782,-4.1672,-4.0552,-3.9829,-3.9077,-3.8328,-3.7757,-3.7537,-3.7376,-3.7201,-3.7005,-3.6688,-3.6344,-3.6329,-3.6257,-3.5836,-3.5635,-3.5476,-3.5363,-3.5514,-3.5313,-3.4855,-3.4792,-3.5156,-3.5292,-3.5322,-3.4962,-3.4569,-3.4781,-3.5251,-3.5623,-3.6139,-3.6659,-3.6444,-3.6684,-3.6806,-3.6766,-3.6684,-3.6684,-3.6725,-3.6766,-3.693,-3.7164,-3.7429,-3.754,-3.7721,-3.7934,-3.8207,-3.8401,-3.8621,-3.8833,-3.9064,-3.9309,-3.9464,-3.9623,-4.0125,-4.0659,-4.1182,-4.1589,-4.2297,-4.3101,-4.3809,-4.4173,-4.4632,-4.4995,-4.5243,-4.5298,-4.5277,-4.5213,-4.5132,-4.5026,-4.4912,-4.4379,-4.3961,-4.383,-4.3509,-4.3166,-4.2726,-4.2574,-4.2379,-4.1732,-4.1212,-4.0858,-4.0299,-3.992,-3.9526,-3.9439,-3.9229,-3.9007,-3.8737,-3.8528,-3.8238,-3.7613,-3.7206,-3.697,-3.6806,-3.6643,-3.6527,-3.6527,-3.6707,-3.6969,-3.7556,-3.8144,-3.8699,-3.9432,-4.0341,-4.096,-4.1506,-4.2083,-4.2553,-4.2768,-4.2613,-4.243,-4.3015,-4.3416,-4.3057,-4.2443,-4.1139,-4.0201,-3.9445,-3.869,-3.8077,-3.7851,-3.7822,-3.7679,-3.7586,-3.7295,-3.7123,-3.7215,-3.7086,-3.6659,-3.6486,-3.6474,-3.6286,-3.6238,-3.5999,-3.5633,-3.5904,-3.639,-3.6355,-3.6249,-3.6385,-3.658,-3.6754,-3.7095,-3.7401,-3.758,-3.7974,-3.6725,-3.6891,-3.697,-3.7048,-3.7083,-3.7009,-3.7009,-3.7122,-3.7203,-3.7392,-3.754,-3.7685,-3.7828,-3.8002,-3.8238,-3.8433,-3.859,-3.8803,-3.9036,-3.9256,-3.9413,-4.0002,-4.0509,-4.1048,-4.1651,-4.2307,-4.3077,-4.3673,-4.396,-4.4478,-4.4937,-4.526,-4.5298,-4.5256,-4.5213,-4.517,-4.5065,-4.5019,-4.4957,-4.4843,-4.4638,-4.4585,-4.4494,-4.4091,-4.3634,-4.3361,-4.3278,-4.2496,-4.1844,-4.1312,-4.0674,-4.0201,-3.9639,-3.9436,-3.9266,-3.8979,-3.8773,-3.8559,-3.8204,-3.7721,-3.7354,-3.7122,-3.6851,-3.6725,-3.6643,-3.665,-3.701,-3.7591,-3.8254,-3.8915,-3.9504,-4.0636,-4.147,-4.1795,-4.2335,-4.2981,-4.3376,-4.355,-4.3504,-4.3402,-4.3697,-4.3532,-4.321,-4.2958,-4.1869,-4.0998,-4.0308,-3.9689,-3.9035,-3.8868,-3.8754,-3.8502,-3.8338,-3.8003,-3.7868,-3.8035,-3.7951,-3.7623,-3.7611,-3.7769,-3.7504,-3.7126,-3.7102,-3.7014,-3.7367,-3.763,-3.7752,-3.7959,-3.8589,-3.894,-3.8724,-3.8687,-3.8917,-3.8866,-3.8866,-3.6891,-3.7048,-3.7203,-3.7317,-3.739,-3.7241,-3.7241,-3.7392,-3.7466,-3.754,-3.7721,-3.7899,-3.7967,-3.8068,-3.8267,-3.8496,-3.859,-3.8803,-3.8979,-3.9165,-3.9324,-4.0027,-4.0726,-4.1472,-4.2275,-4.3047,-4.3836,-4.4412,-4.4551,-4.501,-4.5239,-4.5277,-4.5277,-4.5256,-4.5192,-4.5148,-4.5057,-4.501,-4.4948,-4.4948,-4.491,-4.491,-4.4972,-4.4759,-4.4431,-4.408,-4.3842,-4.3226,-4.2459,-4.1795,-4.1193,-4.0603,-3.9975,-3.9496,-3.9249,-3.8979,-3.8773,-3.8559,-3.8204,-3.7967,-3.772,-3.7775,-3.722,-3.6986,-3.712,-3.7335,-3.7837,-3.8461,-3.9057,-3.983,-4.0633,-4.1795,-4.2406,-4.2729,-4.3115,-4.3721,-4.3855,-4.3955,-4.3955,-4.3923,-4.38,-4.3566,-4.3286,-4.3069,-4.2558,-4.1897,-4.1232,-4.061,-3.9949,-3.9664,-3.9476,-3.9364,-3.9122,-3.8892,-3.8798,-3.8858,-3.8753,-3.8507,-3.8515,-3.86,-3.8479,-3.8066,-3.8293,-3.8455,-3.8504,-3.8677,-3.9287,-3.9733,-3.9944,-4.0087,-4.0145,-4.0219,-4.0421,-4.0313,-4.017,-3.7013,-3.7094,-3.7466,-3.7577,-3.754,-3.7392,-3.7429,-3.7649,-3.7613,-3.7757,-3.7899,-3.7967,-3.8036,-3.8171,-3.8336,-3.8496,-3.8689,-3.8803,-3.8979,-3.9222,-3.9458,-4.0202,-4.1092,-4.2016,-4.2928,-4.39,-4.4576,-4.4887,-4.5239,-4.5239,-4.5277,-4.5277,-4.5277,-4.5235,-4.5192,-4.5148,-4.5057,-4.4986,-4.4938,-4.4938,-4.4876,-4.4865,-4.4865,-4.4764,-4.4625,-4.4537,-4.4297,-4.3856,-4.3401,-4.2682,-4.1804,-4.1098,-4.0392,-3.9713,-3.9305,-3.8979,-3.881,-3.8632,-3.8554,-3.8355,-3.851,-3.8611,-3.7952,-3.7752,-3.7877,-3.8199,-3.8742,-3.9509,-4.0289,-4.0991,-4.1832,-4.2627,-4.341,-4.3647,-4.3838,-4.4079,-4.414,-4.417,-4.417,-4.4079,-4.3892,-4.3664,-4.3286,-4.3032,-4.2846,-4.2397,-4.1725,-4.1238,-4.0607,-3.9997,-3.9914,-4.013,-3.9951,-3.9782,-3.9679,-3.9531,-3.9343,-3.8997,-3.8937,-3.8985,-3.8931,-3.8931,-3.8931,-3.9007,-3.9276,-3.961,-4.017,-4.0556,-4.0793,-4.1025,-4.1082,-4.1527,-4.1682,-4.176,-4.1711,-3.6242,-3.6465,-3.7254,-3.7613,-3.7685,-3.7721,-3.7757,-3.7828,-3.7828,-3.7899,-3.7967,-3.8002,-3.8104,-3.8274,-3.8368,-3.8465,-3.8621,-3.8773,-3.8921,-3.924,-3.9778,-4.075,-4.1694,-4.2636,-4.3653,-4.4379,-4.4928,-4.517,-4.5213,-4.5256,-4.5277,-4.5277,-4.5277,-4.5256,-4.5213,-4.517,-4.508,-4.501,-4.4938,-4.4889,-4.4865,-4.4815,-4.4789,-4.4738,-4.4712,-4.4659,-4.4428,-4.4325,-4.3867,-4.3007,-4.2642,-4.2109,-4.1344,-4.0542,-3.9928,-3.9081,-3.8907,-3.8903,-3.926,-3.921,-3.9334,-3.9733,-3.9365,-3.9206,-3.9226,-3.9363,-3.9727,-4.0535,-4.124,-4.1868,-4.2554,-4.3332,-4.3886,-4.4072,-4.4288,-4.4374,-4.4402,-4.4374,-4.4374,-4.4199,-4.4017,-4.3697,-4.3321,-4.3069,-4.2844,-4.2609,-4.2221,-4.173,-4.1188,-4.0613,-4.0323,-4.0537,-4.0388,-4.0144,-4.005,-3.9851,-3.9765,-3.9592,-3.9415,-3.9309,-3.9309,-3.9309,-3.9415,-3.9625,-3.9952,-4.0417,-4.099,-4.1286,-4.1446,-4.1682,-4.1828,-4.245,-4.2889,-4.2709,-4.2602,-3.5541,-3.5793,-3.6792,-3.747,-3.7898,-3.8003,-3.8003,-3.8003,-3.7969,-3.7967,-3.807,-3.8104,-3.8204,-3.8336,-3.8433,-3.8496,-3.859,-3.8743,-3.8892,-3.9164,-4.0105,-4.0969,-4.1991,-4.2987,-4.3895,-4.4624,-4.4986,-4.508,-4.517,-4.5256,-4.5277,-4.5277,-4.5277,-4.5256,-4.5235,-4.5192,-4.5148,-4.5057,-4.4986,-4.4914,-4.484,-4.4789,-4.4738,-4.4685,-4.4632,-4.4551,-4.4468,-4.444,-4.4026,-4.3415,-4.3274,-4.276,-4.2031,-4.1398,-4.0933,-4.0234,-4.0118,-4.0251,-4.0462,-4.028,-4.0518,-4.0817,-4.089,-4.0883,-4.0692,-4.0756,-4.1121,-4.1672,-4.2122,-4.2592,-4.3295,-4.3906,-4.4154,-4.4365,-4.4541,-4.4685,-4.4685,-4.4632,-4.4496,-4.4288,-4.4017,-4.3697,-4.3391,-4.3142,-4.288,-4.2609,-4.2328,-4.205,-4.1611,-4.12,-4.0916,-4.0965,-4.0698,-4.0417,-4.0288,-4.0138,-3.9935,-3.9781,-3.9625,-3.9573,-3.9625,-3.9781,-3.9884,-4.0204,-4.0645,-4.1117,-4.1525,-4.1796,-4.1985,-4.2239,-4.2402,-4.2806,-4.3061,-4.3025,-4.2953,-3.4907,-3.5013,-3.6217,-3.7246,-3.8029,-3.8138,-3.821,-3.8174,-3.807,-3.807,-3.8207,-3.8274,-3.8303,-3.8401,-3.846,-3.8559,-3.8658,-3.878,-3.9017,-3.9039,-4.0243,-4.1232,-4.2183,-4.2994,-4.403,-4.4625,-4.4938,-4.5033,-4.517,-4.5235,-4.5256,-4.5277,-4.5277,-4.5277,-4.5256,-4.5235,-4.517,-4.5103,-4.5033,-4.4962,-4.484,-4.4738,-4.4659,-4.4605,-4.4496,-4.4383,-4.4383,-4.4325,-4.4237,-4.3916,-4.355,-4.3007,-4.2552,-4.218,-4.1865,-4.1558,-4.1287,-4.1423,-4.1452,-4.1346,-4.1625,-4.1896,-4.2085,-4.2196,-4.2085,-4.1787,-4.2078,-4.2411,-4.2849,-4.3229,-4.3806,-4.4213,-4.4476,-4.4674,-4.4777,-4.4889,-4.4889,-4.4789,-4.4578,-4.4345,-4.4048,-4.373,-4.3426,-4.3178,-4.2918,-4.2649,-4.2328,-4.2079,-4.1823,-4.1515,-4.13,-4.1209,-4.0789,-4.0485,-4.0387,-4.0238,-3.9986,-3.9884,-3.9781,-3.9833,-3.9884,-4.0138,-4.0353,-4.0741,-4.1117,-4.1525,-4.1917,-4.2133,-4.2418,-4.2732,-4.2922,-4.3142,-4.3251,-4.3178,-4.3141,-3.4092,-3.4268,-3.6002,-3.6922,-3.7341,-3.792,-3.8174,-3.821,-3.8174,-3.8207,-3.8274,-3.8307,-3.8368,-3.8465,-3.8528,-3.859,-3.8689,-3.8787,-3.9239,-3.9845,-4.0741,-4.1601,-4.2669,-4.3521,-4.4261,-4.4519,-4.4789,-4.501,-4.5125,-4.5192,-4.5273,-4.5277,-4.5277,-4.5277,-4.5277,-4.5256,-4.5213,-4.5103,-4.508,-4.4986,-4.484,-4.4738,-4.4659,-4.4578,-4.4468,-4.4354,-4.4362,-4.4274,-4.4147,-4.3974,-4.3869,-4.3453,-4.2888,-4.2694,-4.2342,-4.195,-4.1988,-4.223,-4.2411,-4.2446,-4.2622,-4.2971,-4.3164,-4.3277,-4.3175,-4.2777,-4.2814,-4.3176,-4.3526,-4.3886,-4.4192,-4.4541,-4.4815,-4.4938,-4.5033,-4.5057,-4.508,-4.4852,-4.4621,-4.4345,-4.4085,-4.38,-4.3495,-4.3214,-4.2956,-4.2649,-4.2328,-4.2037,-4.1866,-4.156,-4.13,-4.1117,-4.0741,-4.0534,-4.0436,-4.0288,-4.0087,-4.0037,-4.0037,-4.0087,-4.0188,-4.0451,-4.0741,-4.1163,-4.1525,-4.1874,-4.2163,-4.2374,-4.2688,-4.2994,-4.3142,-4.3214,-4.3287,-4.3287,-4.3178,-3.321,-3.3454,-3.4965,-3.6131,-3.6877,-3.7416,-3.7778,-3.8138,-3.821,-3.8241,-3.8307,-3.8303,-3.8401,-3.8496,-3.8528,-3.859,-3.8689,-3.8719,-3.9289,-4.0117,-4.1051,-4.195,-4.2954,-4.3893,-4.4261,-4.4524,-4.4789,-4.4986,-4.508,-4.5148,-4.5192,-4.5235,-4.5256,-4.5256,-4.5277,-4.5277,-4.5213,-4.5103,-4.5103,-4.501,-4.484,-4.4764,-4.4685,-4.4578,-4.444,-4.4354,-4.4266,-4.4214,-4.4085,-4.4055,-4.4017,-4.3998,-4.3685,-4.3594,-4.3427,-4.3222,-4.3175,-4.3194,-4.3407,-4.3506,-4.3466,-4.3743,-4.3828,-4.3758,-4.3786,-4.348,-4.3513,-4.3818,-4.3943,-4.4213,-4.453,-4.4852,-4.5057,-4.517,-4.5192,-4.5213,-4.5103,-4.4914,-4.4685,-4.4468,-4.4177,-4.3828,-4.3563,-4.3322,-4.3031,-4.2727,-4.2409,-4.2121,-4.1866,-4.156,-4.1346,-4.1071,-4.0776,-4.0534,-4.0485,-4.0337,-4.0138,-4.0138,-4.0238,-4.0387,-4.0534,-4.0823,-4.1117,-4.1436,-4.1701,-4.2037,-4.2328,-4.249,-4.2765,-4.3067,-4.3178,-4.3251,-4.3324,-4.3395,-4.3464,-3.2542,-3.2778,-3.3755,-3.5062,-3.6414,-3.6739,-3.7241,-3.7923,-3.8138,-3.8207,-3.8274,-3.8336,-3.8401,-3.8465,-3.8559,-3.8627,-3.8689,-3.8689,-3.9265,-4.0209,-4.1003,-4.2088,-4.3027,-4.3781,-4.4184,-4.4496,-4.4738,-4.4865,-4.4938,-4.5033,-4.5103,-4.517,-4.5192,-4.5213,-4.5256,-4.5256,-4.5192,-4.5103,-4.5057,-4.501,-4.4914,-4.4789,-4.4685,-4.4551,-4.4411,-4.4333,-4.4237,-4.4147,-4.4055,-4.4055,-4.4116,-4.414,-4.4192,-4.4138,-4.4252,-4.412,-4.411,-4.4195,-4.4355,-4.4195,-4.4146,-4.4199,-4.417,-4.417,-4.4199,-4.425,-4.4279,-4.4327,-4.4438,-4.4572,-4.49,-4.5103,-4.5256,-4.5339,-4.5339,-4.5298,-4.5125,-4.4938,-4.4738,-4.4524,-4.4237,-4.3892,-4.3597,-4.3358,-4.3105,-4.2804,-4.2566,-4.2282,-4.1987,-4.156,-4.1255,-4.1024,-4.0776,-4.0631,-4.0534,-4.0337,-4.0087,-4.0188,-4.0288,-4.0534,-4.0823,-4.1012,-4.1255,-4.1604,-4.1909,-4.2079,-4.2364,-4.2526,-4.2802,-4.3065,-4.3067,-4.314,-4.3427,-4.3565,-4.3764,-3.2574,-3.2905,-3.3755,-3.439,-3.495,-3.617,-3.6854,-3.7104,-3.7749,-3.807,-3.8104,-3.8238,-3.8336,-3.8364,-3.846,-3.8559,-3.859,-3.8695,-3.9711,-4.0909,-4.1125,-4.2247,-4.3299,-4.3906,-4.4199,-4.444,-4.4632,-4.4738,-4.484,-4.4914,-4.501,-4.5103,-4.5125,-4.5125,-4.5125,-4.5125,-4.5125,-4.5057,-4.5033,-4.4986,-4.4876,-4.4789,-4.4712,-4.4605,-4.4496,-4.4383,-4.4266,-4.4177,-4.4116,-4.4085,-4.4116,-4.4244,-4.4296,-4.4383,-4.4496,-4.4578,-4.4578,-4.4632,-4.4605,-4.4513,-4.4458,-4.443,-4.443,-4.4458,-4.4541,-4.47,-4.4751,-4.4814,-4.491,-4.4981,-4.5175,-4.5277,-4.5418,-4.5438,-4.5458,-4.5298,-4.5087,-4.4924,-4.4764,-4.4496,-4.4207,-4.386,-4.3566,-4.3322,-4.3068,-4.2765,-4.245,-4.2205,-4.1987,-4.156,-4.1163,-4.0931,-4.0728,-4.0631,-4.0485,-4.0288,-4.0138,-4.0188,-4.0337,-4.0583,-4.0871,-4.1071,-4.1346,-4.1604,-4.178,-4.1952,-4.224,-4.2553,-4.2785,-4.2979,-4.2912,-4.2985,-4.3372,-4.3827,-4.4121]}]]